Wetterdaten: Freitag, 12.07.2019
Datum Zeit Temp. A. Feuchte A. Luftdruck Regen Wind Richtung Richtung Sonnenschein ET UV Solar Taupunkt Windchill Windböen
12.07.2019 00:00 11,8 °C 94 % 1014,4 hPa 0,0 mm 0,0 km/h (0 Bft) S 174 ° 0 min 0,000 mm 0,0 UV-I 0 W/m² 10,9 °C 11,8 °C 0,0 km/h (0 Bft)
12.07.2019 00:01 11,8 °C 94 % 1014,4 hPa 0,0 mm 0,0 km/h (0 Bft) S 174 ° 0 min 0,000 mm 0,0 UV-I 0 W/m² 10,9 °C 11,8 °C 0,0 km/h (0 Bft)
12.07.2019 00:02 11,8 °C 94 % 1014,4 hPa 0,0 mm 0,0 km/h (0 Bft) S 174 ° 0 min 0,000 mm 0,0 UV-I 0 W/m² 10,9 °C 11,8 °C 0,0 km/h (0 Bft)
12.07.2019 00:03 11,8 °C 94 % 1014,4 hPa 0,0 mm 0,0 km/h (0 Bft) S 174 ° 0 min 0,000 mm 0,0 UV-I 0 W/m² 10,9 °C 11,8 °C 0,0 km/h (0 Bft)
12.07.2019 00:04 11,8 °C 94 % 1014,4 hPa 0,0 mm 0,0 km/h (0 Bft) S 174 ° 0 min 0,000 mm 0,0 UV-I 0 W/m² 10,9 °C 11,8 °C 0,0 km/h (0 Bft)
12.07.2019 00:05 11,8 °C 94 % 1014,3 hPa 0,0 mm 0,0 km/h (0 Bft) S 174 ° 0 min 0,000 mm 0,0 UV-I 0 W/m² 10,9 °C 11,8 °C 0,0 km/h (0 Bft)
12.07.2019 00:06 11,8 °C 94 % 1014,4 hPa 0,0 mm 0,0 km/h (0 Bft) S 174 ° 0 min 0,000 mm 0,0 UV-I 0 W/m² 10,9 °C 11,8 °C 0,0 km/h (0 Bft)
12.07.2019 00:07 11,8 °C 94 % 1014,3 hPa 0,0 mm 0,0 km/h (0 Bft) S 174 ° 0 min 0,000 mm 0,0 UV-I 0 W/m² 10,9 °C 11,8 °C 0,0 km/h (0 Bft)
12.07.2019 00:08 11,8 °C 94 % 1014,3 hPa 0,0 mm 0,0 km/h (0 Bft) S 174 ° 0 min 0,000 mm 0,0 UV-I 0 W/m² 10,9 °C 11,8 °C 0,0 km/h (0 Bft)
12.07.2019 00:09 11,8 °C 94 % 1014,3 hPa 0,0 mm 0,0 km/h (0 Bft) S 174 ° 0 min 0,000 mm 0,0 UV-I 0 W/m² 10,9 °C 11,8 °C 0,0 km/h (0 Bft)
12.07.2019 00:10 11,8 °C 94 % 1014,3 hPa 0,0 mm 0,0 km/h (0 Bft) S 174 ° 0 min 0,000 mm 0,0 UV-I 0 W/m² 10,9 °C 11,8 °C 0,0 km/h (0 Bft)
12.07.2019 00:11 11,8 °C 94 % 1014,3 hPa 0,0 mm 0,0 km/h (0 Bft) S 174 ° 0 min 0,000 mm 0,0 UV-I 0 W/m² 10,9 °C 11,8 °C 0,0 km/h (0 Bft)
12.07.2019 00:12 11,8 °C 94 % 1014,3 hPa 0,0 mm 0,0 km/h (0 Bft) S 174 ° 0 min 0,000 mm 0,0 UV-I 0 W/m² 10,9 °C 11,8 °C 0,0 km/h (0 Bft)
12.07.2019 00:13 11,8 °C 94 % 1014,3 hPa 0,0 mm 0,0 km/h (0 Bft) S 174 ° 0 min 0,000 mm 0,0 UV-I 0 W/m² 10,9 °C 11,8 °C 0,0 km/h (0 Bft)
12.07.2019 00:14 11,7 °C 94 % 1014,3 hPa 0,0 mm 0,0 km/h (0 Bft) S 174 ° 0 min 0,000 mm 0,0 UV-I 0 W/m² 10,8 °C 11,7 °C 0,0 km/h (0 Bft)
12.07.2019 00:15 11,7 °C 94 % 1014,4 hPa 0,0 mm 0,0 km/h (0 Bft) S 174 ° 0 min 0,000 mm 0,0 UV-I 0 W/m² 10,8 °C 11,7 °C 0,0 km/h (0 Bft)
12.07.2019 00:16 11,7 °C 94 % 1014,3 hPa 0,0 mm 0,0 km/h (0 Bft) S 174 ° 0 min 0,000 mm 0,0 UV-I 0 W/m² 10,8 °C 11,7 °C 0,0 km/h (0 Bft)
12.07.2019 00:17 11,7 °C 94 % 1014,3 hPa 0,0 mm 0,0 km/h (0 Bft) S 174 ° 0 min 0,000 mm 0,0 UV-I 0 W/m² 10,8 °C 11,7 °C 0,0 km/h (0 Bft)
12.07.2019 00:18 11,7 °C 94 % 1014,3 hPa 0,0 mm 0,0 km/h (0 Bft) S 174 ° 0 min 0,000 mm 0,0 UV-I 0 W/m² 10,8 °C 11,7 °C 0,0 km/h (0 Bft)
12.07.2019 00:19 11,7 °C 94 % 1014,4 hPa 0,0 mm 0,0 km/h (0 Bft) S 174 ° 0 min 0,000 mm 0,0 UV-I 0 W/m² 10,8 °C 11,7 °C 0,0 km/h (0 Bft)
12.07.2019 00:20 11,6 °C 94 % 1014,4 hPa 0,0 mm 0,0 km/h (0 Bft) S 174 ° 0 min 0,000 mm 0,0 UV-I 0 W/m² 10,7 °C 11,6 °C 0,0 km/h (0 Bft)
12.07.2019 00:21 11,6 °C 94 % 1014,4 hPa 0,0 mm 0,0 km/h (0 Bft) S 174 ° 0 min 0,000 mm 0,0 UV-I 0 W/m² 10,7 °C 11,6 °C 0,0 km/h (0 Bft)
12.07.2019 00:22 11,6 °C 94 % 1014,3 hPa 0,0 mm 0,0 km/h (0 Bft) S 174 ° 0 min 0,000 mm 0,0 UV-I 0 W/m² 10,7 °C 11,6 °C 0,0 km/h (0 Bft)
12.07.2019 00:23 11,7 °C 94 % 1014,4 hPa 0,0 mm 0,0 km/h (0 Bft) S 174 ° 0 min 0,000 mm 0,0 UV-I 0 W/m² 10,8 °C 11,7 °C 0,0 km/h (0 Bft)
12.07.2019 00:24 11,7 °C 94 % 1014,4 hPa 0,0 mm 0,0 km/h (0 Bft) S 174 ° 0 min 0,000 mm 0,0 UV-I 0 W/m² 10,8 °C 11,7 °C 0,0 km/h (0 Bft)
12.07.2019 00:25 11,7 °C 94 % 1014,4 hPa 0,0 mm 0,0 km/h (0 Bft) S 174 ° 0 min 0,000 mm 0,0 UV-I 0 W/m² 10,8 °C 11,7 °C 0,0 km/h (0 Bft)
12.07.2019 00:26 11,6 °C 94 % 1014,4 hPa 0,0 mm 0,0 km/h (0 Bft) S 174 ° 0 min 0,000 mm 0,0 UV-I 0 W/m² 10,7 °C 11,6 °C 0,0 km/h (0 Bft)
12.07.2019 00:27 11,7 °C 94 % 1014,4 hPa 0,0 mm 0,0 km/h (0 Bft) S 174 ° 0 min 0,000 mm 0,0 UV-I 0 W/m² 10,8 °C 11,7 °C 0,0 km/h (0 Bft)
12.07.2019 00:28 11,6 °C 94 % 1014,4 hPa 0,0 mm 0,0 km/h (0 Bft) S 174 ° 0 min 0,000 mm 0,0 UV-I 0 W/m² 10,7 °C 11,6 °C 0,0 km/h (0 Bft)
12.07.2019 00:29 11,6 °C 94 % 1014,4 hPa 0,0 mm 1,7 km/h (1 Bft) S 174 ° 0 min 0,000 mm 0,0 UV-I 0 W/m² 10,7 °C 11,6 °C 3,2 km/h (1 Bft)
12.07.2019 00:30 11,7 °C 94 % 1014,4 hPa 0,0 mm 0,0 km/h (0 Bft) S 174 ° 0 min 0,000 mm 0,0 UV-I 0 W/m² 10,8 °C 11,7 °C 0,0 km/h (0 Bft)
12.07.2019 00:31 11,7 °C 94 % 1014,3 hPa 0,0 mm 0,3 km/h (0 Bft) S 174 ° 0 min 0,000 mm 0,0 UV-I 0 W/m² 10,8 °C 11,7 °C 1,6 km/h (1 Bft)
12.07.2019 00:32 11,7 °C 94 % 1014,4 hPa 0,0 mm 0,0 km/h (0 Bft) S 174 ° 0 min 0,000 mm 0,0 UV-I 0 W/m² 10,8 °C 11,7 °C 0,0 km/h (0 Bft)
12.07.2019 00:33 11,7 °C 94 % 1014,4 hPa 0,0 mm 0,0 km/h (0 Bft) S 174 ° 0 min 0,000 mm 0,0 UV-I 0 W/m² 10,8 °C 11,7 °C 0,0 km/h (0 Bft)
12.07.2019 00:34 11,7 °C 94 % 1014,3 hPa 0,0 mm 0,0 km/h (0 Bft) S 174 ° 0 min 0,000 mm 0,0 UV-I 0 W/m² 10,8 °C 11,7 °C 0,0 km/h (0 Bft)
12.07.2019 00:35 11,7 °C 94 % 1014,3 hPa 0,0 mm 0,4 km/h (0 Bft) S 188 ° 0 min 0,000 mm 0,0 UV-I 0 W/m² 10,8 °C 11,7 °C 1,6 km/h (1 Bft)
12.07.2019 00:36 11,7 °C 94 % 1014,3 hPa 0,0 mm 0,1 km/h (0 Bft) S 190 ° 0 min 0,000 mm 0,0 UV-I 0 W/m² 10,8 °C 11,7 °C 3,2 km/h (1 Bft)
12.07.2019 00:37 11,7 °C 94 % 1014,3 hPa 0,0 mm 2,1 km/h (1 Bft) S-SW 204 ° 0 min 0,000 mm 0,0 UV-I 0 W/m² 10,8 °C 11,7 °C 6,4 km/h (2 Bft)
12.07.2019 00:38 11,7 °C 94 % 1014,3 hPa 0,0 mm 0,0 km/h (0 Bft) SO 140 ° 0 min 0,000 mm 0,0 UV-I 0 W/m² 10,8 °C 11,7 °C 0,0 km/h (0 Bft)
12.07.2019 00:39 11,7 °C 94 % 1014,3 hPa 0,0 mm 0,1 km/h (0 Bft) SO 140 ° 0 min 0,000 mm 0,0 UV-I 0 W/m² 10,8 °C 11,7 °C 1,6 km/h (1 Bft)
12.07.2019 00:40 11,7 °C 94 % 1014,3 hPa 0,0 mm 0,0 km/h (0 Bft) SO 140 ° 0 min 0,000 mm 0,0 UV-I 0 W/m² 10,8 °C 11,7 °C 0,0 km/h (0 Bft)
12.07.2019 00:41 11,7 °C 94 % 1014,3 hPa 0,0 mm 0,0 km/h (0 Bft) SO 140 ° 0 min 0,000 mm 0,0 UV-I 0 W/m² 10,8 °C 11,7 °C 0,0 km/h (0 Bft)
12.07.2019 00:42 11,7 °C 94 % 1014,3 hPa 0,0 mm 0,0 km/h (0 Bft) SO 140 ° 0 min 0,000 mm 0,0 UV-I 0 W/m² 10,8 °C 11,7 °C 0,0 km/h (0 Bft)
12.07.2019 00:43 11,7 °C 94 % 1014,3 hPa 0,0 mm 0,0 km/h (0 Bft) SO 140 ° 0 min 0,000 mm 0,0 UV-I 0 W/m² 10,8 °C 11,7 °C 0,0 km/h (0 Bft)
12.07.2019 00:44 11,7 °C 94 % 1014,3 hPa 0,0 mm 0,4 km/h (0 Bft) SO 140 ° 0 min 0,000 mm 0,0 UV-I 0 W/m² 10,8 °C 11,7 °C 1,6 km/h (1 Bft)
12.07.2019 00:45 11,7 °C 94 % 1014,3 hPa 0,0 mm 4,4 km/h (1 Bft) S 175 ° 0 min 0,000 mm 0,0 UV-I 0 W/m² 10,8 °C 11,7 °C 8,0 km/h (2 Bft)
12.07.2019 00:46 11,7 °C 94 % 1014,3 hPa 0,0 mm 0,7 km/h (0 Bft) S 175 ° 0 min 0,000 mm 0,0 UV-I 0 W/m² 10,8 °C 11,7 °C 3,2 km/h (1 Bft)
12.07.2019 00:47 11,7 °C 94 % 1014,3 hPa 0,0 mm 1,0 km/h (0 Bft) S 178 ° 0 min 0,000 mm 0,0 UV-I 0 W/m² 10,8 °C 11,7 °C 4,8 km/h (1 Bft)
12.07.2019 00:48 11,7 °C 94 % 1014,3 hPa 0,0 mm 3,2 km/h (1 Bft) S 179 ° 0 min 0,000 mm 0,0 UV-I 0 W/m² 10,8 °C 11,7 °C 6,4 km/h (2 Bft)
12.07.2019 00:49 11,7 °C 94 % 1014,3 hPa 0,0 mm 4,4 km/h (1 Bft) S-SO 159 ° 0 min 0,000 mm 0,0 UV-I 0 W/m² 10,8 °C 11,7 °C 8,0 km/h (2 Bft)
12.07.2019 00:50 11,8 °C 94 % 1014,3 hPa 0,0 mm 3,1 km/h (1 Bft) S 188 ° 0 min 0,000 mm 0,0 UV-I 0 W/m² 10,9 °C 11,8 °C 6,4 km/h (2 Bft)
12.07.2019 00:51 11,8 °C 94 % 1014,3 hPa 0,0 mm 2,5 km/h (1 Bft) S 185 ° 0 min 0,000 mm 0,0 UV-I 0 W/m² 10,9 °C 11,8 °C 9,7 km/h (2 Bft)
12.07.2019 00:52 11,8 °C 94 % 1014,3 hPa 0,0 mm 5,7 km/h (1 Bft) S-SW 194 ° 0 min 0,000 mm 0,0 UV-I 0 W/m² 10,9 °C 11,8 °C 9,7 km/h (2 Bft)
12.07.2019 00:53 11,9 °C 94 % 1014,3 hPa 0,0 mm 6,6 km/h (2 Bft) S 181 ° 0 min 0,000 mm 0,0 UV-I 0 W/m² 11,0 °C 11,9 °C 9,7 km/h (2 Bft)
12.07.2019 00:54 11,9 °C 94 % 1014,2 hPa 0,0 mm 0,9 km/h (0 Bft) S 181 ° 0 min 0,000 mm 0,0 UV-I 0 W/m² 11,0 °C 11,9 °C 3,2 km/h (1 Bft)
12.07.2019 00:55 11,9 °C 94 % 1014,3 hPa 0,0 mm 1,0 km/h (0 Bft) S 185 ° 0 min 0,000 mm 0,0 UV-I 0 W/m² 11,0 °C 11,9 °C 4,8 km/h (1 Bft)
12.07.2019 00:56 12,1 °C 94 % 1014,3 hPa 0,0 mm 1,9 km/h (1 Bft) S 184 ° 0 min 0,000 mm 0,0 UV-I 0 W/m² 11,2 °C 12,1 °C 4,8 km/h (1 Bft)
12.07.2019 00:57 12,1 °C 94 % 1014,3 hPa 0,0 mm 1,8 km/h (1 Bft) S 182 ° 0 min 0,000 mm 0,0 UV-I 0 W/m² 11,2 °C 12,1 °C 4,8 km/h (1 Bft)
12.07.2019 00:58 12,1 °C 94 % 1014,3 hPa 0,0 mm 0,8 km/h (0 Bft) S 182 ° 0 min 0,000 mm 0,0 UV-I 0 W/m² 11,2 °C 12,1 °C 3,2 km/h (1 Bft)
12.07.2019 00:59 12,1 °C 94 % 1014,2 hPa 0,0 mm 0,5 km/h (0 Bft) S 182 ° 0 min 0,000 mm 0,0 UV-I 0 W/m² 11,2 °C 12,1 °C 3,2 km/h (1 Bft)
12.07.2019 01:00 12,0 °C 94 % 1014,3 hPa 0,0 mm 0,5 km/h (0 Bft) S 182 ° 0 min 0,000 mm 0,0 UV-I 0 W/m² 11,1 °C 12,0 °C 3,2 km/h (1 Bft)
12.07.2019 01:01 12,0 °C 94 % 1014,3 hPa 0,0 mm 0,0 km/h (0 Bft) S 182 ° 0 min 0,000 mm 0,0 UV-I 0 W/m² 11,1 °C 12,0 °C 0,0 km/h (0 Bft)
12.07.2019 01:02 12,0 °C 94 % 1014,3 hPa 0,0 mm 0,0 km/h (0 Bft) S 182 ° 0 min 0,000 mm 0,0 UV-I 0 W/m² 11,1 °C 12,0 °C 0,0 km/h (0 Bft)
12.07.2019 01:03 11,9 °C 94 % 1014,2 hPa 0,0 mm 0,0 km/h (0 Bft) S 182 ° 0 min 0,000 mm 0,0 UV-I 0 W/m² 11,0 °C 11,9 °C 0,0 km/h (0 Bft)
12.07.2019 01:04 11,9 °C 94 % 1014,2 hPa 0,0 mm 0,0 km/h (0 Bft) S 182 ° 0 min 0,000 mm 0,0 UV-I 0 W/m² 11,0 °C 11,9 °C 0,0 km/h (0 Bft)
12.07.2019 01:05 11,9 °C 94 % 1014,2 hPa 0,0 mm 0,0 km/h (0 Bft) S 182 ° 0 min 0,000 mm 0,0 UV-I 0 W/m² 11,0 °C 11,9 °C 0,0 km/h (0 Bft)
12.07.2019 01:06 11,9 °C 94 % 1014,1 hPa 0,0 mm 0,0 km/h (0 Bft) S 182 ° 0 min 0,000 mm 0,0 UV-I 0 W/m² 11,0 °C 11,9 °C 0,0 km/h (0 Bft)
12.07.2019 01:07 11,8 °C 94 % 1014,2 hPa 0,0 mm 0,0 km/h (0 Bft) S 182 ° 0 min 0,000 mm 0,0 UV-I 0 W/m² 10,9 °C 11,8 °C 0,0 km/h (0 Bft)
12.07.2019 01:08 11,8 °C 94 % 1014,2 hPa 0,0 mm 0,0 km/h (0 Bft) S 182 ° 0 min 0,000 mm 0,0 UV-I 0 W/m² 10,9 °C 11,8 °C 0,0 km/h (0 Bft)
12.07.2019 01:09 11,8 °C 94 % 1014,1 hPa 0,0 mm 0,0 km/h (0 Bft) S 182 ° 0 min 0,000 mm 0,0 UV-I 0 W/m² 10,9 °C 11,8 °C 0,0 km/h (0 Bft)
12.07.2019 01:10 11,8 °C 94 % 1014,1 hPa 0,0 mm 0,0 km/h (0 Bft) S 182 ° 0 min 0,000 mm 0,0 UV-I 0 W/m² 10,9 °C 11,8 °C 0,0 km/h (0 Bft)
12.07.2019 01:11 11,8 °C 94 % 1014,1 hPa 0,0 mm 0,0 km/h (0 Bft) S 182 ° 0 min 0,000 mm 0,0 UV-I 0 W/m² 10,9 °C 11,8 °C 0,0 km/h (0 Bft)
12.07.2019 01:12 11,8 °C 94 % 1014,1 hPa 0,0 mm 0,0 km/h (0 Bft) S 182 ° 0 min 0,000 mm 0,0 UV-I 0 W/m² 10,9 °C 11,8 °C 0,0 km/h (0 Bft)
12.07.2019 01:13 11,8 °C 94 % 1014,1 hPa 0,0 mm 0,0 km/h (0 Bft) S 182 ° 0 min 0,000 mm 0,0 UV-I 0 W/m² 10,9 °C 11,8 °C 0,0 km/h (0 Bft)
12.07.2019 01:14 11,8 °C 94 % 1014,1 hPa 0,0 mm 0,0 km/h (0 Bft) S 182 ° 0 min 0,000 mm 0,0 UV-I 0 W/m² 10,9 °C 11,8 °C 0,0 km/h (0 Bft)
12.07.2019 01:15 11,8 °C 94 % 1014,1 hPa 0,0 mm 0,1 km/h (0 Bft) W-NW 302 ° 0 min 0,000 mm 0,0 UV-I 0 W/m² 10,9 °C 11,8 °C 1,6 km/h (1 Bft)
12.07.2019 01:16 11,8 °C 94 % 1014,1 hPa 0,0 mm 0,0 km/h (0 Bft) NW 315 ° 0 min 0,000 mm 0,0 UV-I 0 W/m² 10,9 °C 11,8 °C 0,0 km/h (0 Bft)
12.07.2019 01:17 11,8 °C 94 % 1014,2 hPa 0,0 mm 0,0 km/h (0 Bft) NW 315 ° 0 min 0,000 mm 0,0 UV-I 0 W/m² 10,9 °C 11,8 °C 0,0 km/h (0 Bft)
12.07.2019 01:18 11,8 °C 94 % 1014,1 hPa 0,0 mm 0,2 km/h (0 Bft) S 178 ° 0 min 0,000 mm 0,0 UV-I 0 W/m² 10,9 °C 11,8 °C 3,2 km/h (1 Bft)
12.07.2019 01:19 11,8 °C 94 % 1014,2 hPa 0,0 mm 2,1 km/h (1 Bft) S 179 ° 0 min 0,000 mm 0,0 UV-I 0 W/m² 10,9 °C 11,8 °C 3,2 km/h (1 Bft)
12.07.2019 01:20 11,8 °C 94 % 1014,1 hPa 0,0 mm 5,4 km/h (1 Bft) S-SW 200 ° 0 min 0,000 mm 0,0 UV-I 0 W/m² 10,9 °C 11,8 °C 8,0 km/h (2 Bft)
12.07.2019 01:21 11,8 °C 94 % 1014,2 hPa 0,0 mm 3,3 km/h (1 Bft) S-SW 192 ° 0 min 0,000 mm 0,0 UV-I 0 W/m² 10,9 °C 11,8 °C 6,4 km/h (2 Bft)
12.07.2019 01:22 11,9 °C 94 % 1014,1 hPa 0,0 mm 2,8 km/h (1 Bft) S-SW 192 ° 0 min 0,000 mm 0,0 UV-I 0 W/m² 11,0 °C 11,9 °C 4,8 km/h (1 Bft)
12.07.2019 01:23 11,9 °C 94 % 1014,1 hPa 0,0 mm 6,1 km/h (2 Bft) S-SO 154 ° 0 min 0,000 mm 0,0 UV-I 0 W/m² 11,0 °C 11,9 °C 9,7 km/h (2 Bft)
12.07.2019 01:24 11,9 °C 94 % 1014,1 hPa 0,0 mm 4,4 km/h (1 Bft) S-SW 201 ° 0 min 0,000 mm 0,0 UV-I 0 W/m² 11,0 °C 11,9 °C 8,0 km/h (2 Bft)
12.07.2019 01:25 11,9 °C 94 % 1014,1 hPa 0,0 mm 6,9 km/h (2 Bft) S-SO 150 ° 0 min 0,000 mm 0,0 UV-I 0 W/m² 11,0 °C 11,9 °C 9,7 km/h (2 Bft)
12.07.2019 01:26 11,9 °C 94 % 1014,1 hPa 0,0 mm 3,7 km/h (1 Bft) S-SW 208 ° 0 min 0,000 mm 0,0 UV-I 0 W/m² 11,0 °C 11,9 °C 6,4 km/h (2 Bft)
12.07.2019 01:27 11,9 °C 94 % 1014,1 hPa 0,0 mm 3,2 km/h (1 Bft) S-SW 205 ° 0 min 0,000 mm 0,0 UV-I 0 W/m² 11,0 °C 11,9 °C 4,8 km/h (1 Bft)
12.07.2019 01:28 11,9 °C 94 % 1014,1 hPa 0,0 mm 1,9 km/h (1 Bft) S-SO 164 ° 0 min 0,000 mm 0,0 UV-I 0 W/m² 11,0 °C 11,9 °C 6,4 km/h (2 Bft)
12.07.2019 01:29 11,9 °C 94 % 1014,1 hPa 0,0 mm 1,1 km/h (1 Bft) S 171 ° 0 min 0,000 mm 0,0 UV-I 0 W/m² 11,0 °C 11,9 °C 4,8 km/h (1 Bft)
12.07.2019 01:30 11,9 °C 94 % 1014,1 hPa 0,0 mm 3,1 km/h (1 Bft) S 184 ° 0 min 0,000 mm 0,0 UV-I 0 W/m² 11,0 °C 11,9 °C 6,4 km/h (2 Bft)
12.07.2019 01:31 11,9 °C 94 % 1014,1 hPa 0,0 mm 4,4 km/h (1 Bft) S 190 ° 0 min 0,000 mm 0,0 UV-I 0 W/m² 11,0 °C 11,9 °C 8,0 km/h (2 Bft)
12.07.2019 01:32 11,9 °C 94 % 1014,1 hPa 0,0 mm 2,9 km/h (1 Bft) S 175 ° 0 min 0,000 mm 0,0 UV-I 0 W/m² 11,0 °C 11,9 °C 4,8 km/h (1 Bft)
12.07.2019 01:33 11,9 °C 94 % 1014,1 hPa 0,0 mm 3,5 km/h (1 Bft) S 177 ° 0 min 0,000 mm 0,0 UV-I 0 W/m² 11,0 °C 11,9 °C 6,4 km/h (2 Bft)
12.07.2019 01:34 11,9 °C 94 % 1014,1 hPa 0,0 mm 1,8 km/h (1 Bft) S-SW 205 ° 0 min 0,000 mm 0,0 UV-I 0 W/m² 11,0 °C 11,9 °C 4,8 km/h (1 Bft)
12.07.2019 01:35 11,9 °C 94 % 1014,1 hPa 0,0 mm 2,1 km/h (1 Bft) W 259 ° 0 min 0,000 mm 0,0 UV-I 0 W/m² 11,0 °C 11,9 °C 4,8 km/h (1 Bft)
12.07.2019 01:36 12,0 °C 94 % 1014,1 hPa 0,0 mm 2,1 km/h (1 Bft) S 185 ° 0 min 0,000 mm 0,0 UV-I 0 W/m² 11,1 °C 12,0 °C 4,8 km/h (1 Bft)
12.07.2019 01:37 12,0 °C 94 % 1014,1 hPa 0,0 mm 1,3 km/h (1 Bft) S 184 ° 0 min 0,000 mm 0,0 UV-I 0 W/m² 11,1 °C 12,0 °C 3,2 km/h (1 Bft)
12.07.2019 01:38 12,0 °C 94 % 1014,1 hPa 0,0 mm 3,8 km/h (1 Bft) S 186 ° 0 min 0,000 mm 0,0 UV-I 0 W/m² 11,1 °C 12,0 °C 8,0 km/h (2 Bft)
12.07.2019 01:39 12,1 °C 94 % 1014,1 hPa 0,0 mm 2,1 km/h (1 Bft) S 184 ° 0 min 0,000 mm 0,0 UV-I 0 W/m² 11,2 °C 12,1 °C 4,8 km/h (1 Bft)
12.07.2019 01:40 12,1 °C 93 % 1014,1 hPa 0,0 mm 0,4 km/h (0 Bft) S 184 ° 0 min 0,000 mm 0,0 UV-I 0 W/m² 11,0 °C 12,1 °C 1,6 km/h (1 Bft)
12.07.2019 01:41 12,1 °C 93 % 1014,0 hPa 0,0 mm 0,3 km/h (0 Bft) S 184 ° 0 min 0,000 mm 0,0 UV-I 0 W/m² 11,0 °C 12,1 °C 1,6 km/h (1 Bft)
12.07.2019 01:42 12,1 °C 93 % 1014,0 hPa 0,0 mm 3,8 km/h (1 Bft) S 180 ° 0 min 0,000 mm 0,0 UV-I 0 W/m² 11,0 °C 12,1 °C 6,4 km/h (2 Bft)
12.07.2019 01:43 12,1 °C 93 % 1014,0 hPa 0,0 mm 1,2 km/h (1 Bft) S 179 ° 0 min 0,000 mm 0,0 UV-I 0 W/m² 11,0 °C 12,1 °C 3,2 km/h (1 Bft)
12.07.2019 01:44 12,1 °C 93 % 1014,0 hPa 0,0 mm 3,1 km/h (1 Bft) S 180 ° 0 min 0,000 mm 0,0 UV-I 0 W/m² 11,0 °C 12,1 °C 4,8 km/h (1 Bft)
12.07.2019 01:45 12,1 °C 93 % 1013,9 hPa 0,0 mm 1,0 km/h (0 Bft) S 180 ° 0 min 0,000 mm 0,0 UV-I 0 W/m² 11,0 °C 12,1 °C 3,2 km/h (1 Bft)
12.07.2019 01:46 12,1 °C 93 % 1013,9 hPa 0,0 mm 0,6 km/h (0 Bft) S 184 ° 0 min 0,000 mm 0,0 UV-I 0 W/m² 11,0 °C 12,1 °C 3,2 km/h (1 Bft)
12.07.2019 01:47 12,1 °C 93 % 1013,9 hPa 0,0 mm 1,2 km/h (1 Bft) S 182 ° 0 min 0,000 mm 0,0 UV-I 0 W/m² 11,0 °C 12,1 °C 3,2 km/h (1 Bft)
12.07.2019 01:48 12,1 °C 93 % 1013,9 hPa 0,0 mm 1,5 km/h (1 Bft) S 182 ° 0 min 0,000 mm 0,0 UV-I 0 W/m² 11,0 °C 12,1 °C 3,2 km/h (1 Bft)
12.07.2019 01:49 12,1 °C 93 % 1013,9 hPa 0,0 mm 0,3 km/h (0 Bft) S 182 ° 0 min 0,000 mm 0,0 UV-I 0 W/m² 11,0 °C 12,1 °C 1,6 km/h (1 Bft)
12.07.2019 01:50 12,1 °C 93 % 1013,9 hPa 0,0 mm 0,2 km/h (0 Bft) S 182 ° 0 min 0,000 mm 0,0 UV-I 0 W/m² 11,0 °C 12,1 °C 1,6 km/h (1 Bft)
12.07.2019 01:51 12,1 °C 93 % 1013,9 hPa 0,0 mm 2,2 km/h (1 Bft) S-SW 205 ° 0 min 0,000 mm 0,0 UV-I 0 W/m² 11,0 °C 12,1 °C 4,8 km/h (1 Bft)
12.07.2019 01:52 12,1 °C 93 % 1013,9 hPa 0,0 mm 2,5 km/h (1 Bft) S 190 ° 0 min 0,000 mm 0,0 UV-I 0 W/m² 11,0 °C 12,1 °C 4,8 km/h (1 Bft)
12.07.2019 01:53 12,1 °C 93 % 1013,9 hPa 0,0 mm 2,7 km/h (1 Bft) S 188 ° 0 min 0,000 mm 0,0 UV-I 0 W/m² 11,0 °C 12,1 °C 6,4 km/h (2 Bft)
12.07.2019 01:54 12,1 °C 93 % 1013,9 hPa 0,0 mm 0,6 km/h (0 Bft) S 188 ° 0 min 0,000 mm 0,0 UV-I 0 W/m² 11,0 °C 12,1 °C 1,6 km/h (1 Bft)
12.07.2019 01:55 12,1 °C 93 % 1013,9 hPa 0,0 mm 1,5 km/h (1 Bft) S 188 ° 0 min 0,000 mm 0,0 UV-I 0 W/m² 11,0 °C 12,1 °C 3,2 km/h (1 Bft)
12.07.2019 01:56 12,1 °C 93 % 1013,9 hPa 0,0 mm 1,1 km/h (1 Bft) S 188 ° 0 min 0,000 mm 0,0 UV-I 0 W/m² 11,0 °C 12,1 °C 3,2 km/h (1 Bft)
12.07.2019 01:57 12,1 °C 93 % 1013,9 hPa 0,0 mm 0,3 km/h (0 Bft) S 188 ° 0 min 0,000 mm 0,0 UV-I 0 W/m² 11,0 °C 12,1 °C 1,6 km/h (1 Bft)
12.07.2019 01:58 12,0 °C 93 % 1013,9 hPa 0,0 mm 2,0 km/h (1 Bft) S 188 ° 0 min 0,000 mm 0,0 UV-I 0 W/m² 10,9 °C 12,0 °C 4,8 km/h (1 Bft)
12.07.2019 01:59 12,0 °C 93 % 1013,8 hPa 0,0 mm 3,1 km/h (1 Bft) S-SW 193 ° 0 min 0,000 mm 0,0 UV-I 0 W/m² 10,9 °C 12,0 °C 4,8 km/h (1 Bft)
12.07.2019 02:00 12,0 °C 93 % 1013,8 hPa 0,0 mm 2,4 km/h (1 Bft) S-SW 192 ° 0 min 0,000 mm 0,0 UV-I 0 W/m² 10,9 °C 12,0 °C 3,2 km/h (1 Bft)
12.07.2019 02:01 12,0 °C 93 % 1013,8 hPa 0,0 mm 2,2 km/h (1 Bft) S-SW 207 ° 0 min 0,000 mm 0,0 UV-I 0 W/m² 10,9 °C 12,0 °C 4,8 km/h (1 Bft)
12.07.2019 02:02 12,1 °C 93 % 1013,9 hPa 0,0 mm 1,1 km/h (1 Bft) S-SW 207 ° 0 min 0,000 mm 0,0 UV-I 0 W/m² 11,0 °C 12,1 °C 3,2 km/h (1 Bft)
12.07.2019 02:03 12,1 °C 93 % 1013,9 hPa 0,0 mm 2,0 km/h (1 Bft) S-SW 193 ° 0 min 0,000 mm 0,0 UV-I 0 W/m² 11,0 °C 12,1 °C 4,8 km/h (1 Bft)
12.07.2019 02:04 12,1 °C 93 % 1013,8 hPa 0,0 mm 1,0 km/h (0 Bft) S-SW 192 ° 0 min 0,000 mm 0,0 UV-I 0 W/m² 11,0 °C 12,1 °C 3,2 km/h (1 Bft)
12.07.2019 02:05 12,1 °C 93 % 1013,9 hPa 0,0 mm 4,8 km/h (1 Bft) S-SW 204 ° 0 min 0,000 mm 0,0 UV-I 0 W/m² 11,0 °C 12,1 °C 8,0 km/h (2 Bft)
12.07.2019 02:06 12,1 °C 93 % 1013,9 hPa 0,0 mm 1,3 km/h (1 Bft) S-SW 201 ° 0 min 0,000 mm 0,0 UV-I 0 W/m² 11,0 °C 12,1 °C 3,2 km/h (1 Bft)
12.07.2019 02:07 12,1 °C 93 % 1013,9 hPa 0,0 mm 3,9 km/h (1 Bft) S-SW 192 ° 0 min 0,000 mm 0,0 UV-I 0 W/m² 11,0 °C 12,1 °C 9,7 km/h (2 Bft)
12.07.2019 02:08 12,1 °C 93 % 1013,8 hPa 0,0 mm 3,0 km/h (1 Bft) S-SW 197 ° 0 min 0,000 mm 0,0 UV-I 0 W/m² 11,0 °C 12,1 °C 6,4 km/h (2 Bft)
12.07.2019 02:09 12,1 °C 93 % 1013,8 hPa 0,0 mm 1,7 km/h (1 Bft) S-SW 197 ° 0 min 0,000 mm 0,0 UV-I 0 W/m² 11,0 °C 12,1 °C 3,2 km/h (1 Bft)
12.07.2019 02:10 12,1 °C 93 % 1013,8 hPa 0,0 mm 1,0 km/h (0 Bft) S-SW 197 ° 0 min 0,000 mm 0,0 UV-I 0 W/m² 11,0 °C 12,1 °C 3,2 km/h (1 Bft)
12.07.2019 02:11 12,1 °C 93 % 1013,8 hPa 0,0 mm 0,5 km/h (0 Bft) S-SW 197 ° 0 min 0,000 mm 0,0 UV-I 0 W/m² 11,0 °C 12,1 °C 1,6 km/h (1 Bft)
12.07.2019 02:12 12,1 °C 93 % 1013,7 hPa 0,0 mm 0,9 km/h (0 Bft) S 188 ° 0 min 0,000 mm 0,0 UV-I 0 W/m² 11,0 °C 12,1 °C 3,2 km/h (1 Bft)
12.07.2019 02:13 12,1 °C 93 % 1013,7 hPa 0,0 mm 1,5 km/h (1 Bft) S 188 ° 0 min 0,000 mm 0,0 UV-I 0 W/m² 11,0 °C 12,1 °C 3,2 km/h (1 Bft)
12.07.2019 02:14 12,1 °C 93 % 1013,7 hPa 0,0 mm 0,0 km/h (0 Bft) S 188 ° 0 min 0,000 mm 0,0 UV-I 0 W/m² 11,0 °C 12,1 °C 0,0 km/h (0 Bft)
12.07.2019 02:15 12,1 °C 93 % 1013,6 hPa 0,0 mm 0,7 km/h (0 Bft) S 188 ° 0 min 0,000 mm 0,0 UV-I 0 W/m² 11,0 °C 12,1 °C 3,2 km/h (1 Bft)
12.07.2019 02:16 12,1 °C 93 % 1013,6 hPa 0,0 mm 1,7 km/h (1 Bft) S 187 ° 0 min 0,000 mm 0,0 UV-I 0 W/m² 11,0 °C 12,1 °C 3,2 km/h (1 Bft)
12.07.2019 02:17 12,0 °C 93 % 1013,5 hPa 0,0 mm 0,7 km/h (0 Bft) S 188 ° 0 min 0,000 mm 0,0 UV-I 0 W/m² 10,9 °C 12,0 °C 3,2 km/h (1 Bft)
12.07.2019 02:18 11,9 °C 93 % 1013,5 hPa 0,0 mm 0,2 km/h (0 Bft) S 188 ° 0 min 0,000 mm 0,0 UV-I 0 W/m² 10,8 °C 11,9 °C 1,6 km/h (1 Bft)
12.07.2019 02:19 11,9 °C 93 % 1013,6 hPa 0,0 mm 1,8 km/h (1 Bft) S 187 ° 0 min 0,000 mm 0,0 UV-I 0 W/m² 10,8 °C 11,9 °C 3,2 km/h (1 Bft)
12.07.2019 02:20 11,9 °C 93 % 1013,5 hPa 0,0 mm 2,4 km/h (1 Bft) S-SO 147 ° 0 min 0,000 mm 0,0 UV-I 0 W/m² 10,8 °C 11,9 °C 4,8 km/h (1 Bft)
12.07.2019 02:21 11,9 °C 93 % 1013,5 hPa 0,0 mm 4,1 km/h (1 Bft) S 169 ° 0 min 0,000 mm 0,0 UV-I 0 W/m² 10,8 °C 11,9 °C 6,4 km/h (2 Bft)
12.07.2019 02:22 11,9 °C 93 % 1013,6 hPa 0,0 mm 3,2 km/h (1 Bft) S-SO 159 ° 0 min 0,000 mm 0,0 UV-I 0 W/m² 10,8 °C 11,9 °C 6,4 km/h (2 Bft)
12.07.2019 02:23 11,9 °C 93 % 1013,5 hPa 0,0 mm 1,3 km/h (1 Bft) S-SO 159 ° 0 min 0,000 mm 0,0 UV-I 0 W/m² 10,8 °C 11,9 °C 3,2 km/h (1 Bft)
12.07.2019 02:24 11,9 °C 94 % 1013,5 hPa 0,0 mm 2,7 km/h (1 Bft) S-SO 159 ° 0 min 0,000 mm 0,0 UV-I 0 W/m² 11,0 °C 11,9 °C 3,2 km/h (1 Bft)
12.07.2019 02:25 11,9 °C 93 % 1013,4 hPa 0,0 mm 2,6 km/h (1 Bft) S-SO 159 ° 0 min 0,000 mm 0,0 UV-I 0 W/m² 10,8 °C 11,9 °C 3,2 km/h (1 Bft)
12.07.2019 02:26 11,9 °C 94 % 1013,5 hPa 0,0 mm 1,5 km/h (1 Bft) S-SO 159 ° 0 min 0,000 mm 0,0 UV-I 0 W/m² 11,0 °C 11,9 °C 3,2 km/h (1 Bft)
12.07.2019 02:27 11,9 °C 94 % 1013,4 hPa 0,0 mm 0,8 km/h (0 Bft) S-SO 159 ° 0 min 0,000 mm 0,0 UV-I 0 W/m² 11,0 °C 11,9 °C 1,6 km/h (1 Bft)
12.07.2019 02:28 11,9 °C 94 % 1013,4 hPa 0,0 mm 1,5 km/h (1 Bft) S-SO 159 ° 0 min 0,000 mm 0,0 UV-I 0 W/m² 11,0 °C 11,9 °C 3,2 km/h (1 Bft)
12.07.2019 02:29 11,9 °C 94 % 1013,4 hPa 0,0 mm 0,4 km/h (0 Bft) S-SO 159 ° 0 min 0,000 mm 0,0 UV-I 0 W/m² 11,0 °C 11,9 °C 1,6 km/h (1 Bft)
12.07.2019 02:30 11,9 °C 94 % 1013,4 hPa 0,0 mm 0,1 km/h (0 Bft) S-SO 159 ° 0 min 0,000 mm 0,0 UV-I 0 W/m² 11,0 °C 11,9 °C 1,6 km/h (1 Bft)
12.07.2019 02:31 11,9 °C 94 % 1013,4 hPa 0,0 mm 0,0 km/h (0 Bft) S-SO 159 ° 0 min 0,000 mm 0,0 UV-I 0 W/m² 11,0 °C 11,9 °C 0,0 km/h (0 Bft)
12.07.2019 02:32 11,9 °C 94 % 1013,5 hPa 0,0 mm 0,0 km/h (0 Bft) S-SO 159 ° 0 min 0,000 mm 0,0 UV-I 0 W/m² 11,0 °C 11,9 °C 0,0 km/h (0 Bft)
12.07.2019 02:33 11,9 °C 94 % 1013,4 hPa 0,0 mm 0,0 km/h (0 Bft) S-SO 159 ° 0 min 0,000 mm 0,0 UV-I 0 W/m² 11,0 °C 11,9 °C 0,0 km/h (0 Bft)
12.07.2019 02:34 11,9 °C 94 % 1013,4 hPa 0,0 mm 0,0 km/h (0 Bft) S-SO 159 ° 0 min 0,000 mm 0,0 UV-I 0 W/m² 11,0 °C 11,9 °C 0,0 km/h (0 Bft)
12.07.2019 02:35 11,9 °C 94 % 1013,4 hPa 0,0 mm 0,0 km/h (0 Bft) S-SO 159 ° 0 min 0,000 mm 0,0 UV-I 0 W/m² 11,0 °C 11,9 °C 0,0 km/h (0 Bft)
12.07.2019 02:36 11,9 °C 94 % 1013,4 hPa 0,0 mm 0,0 km/h (0 Bft) S-SO 159 ° 0 min 0,000 mm 0,0 UV-I 0 W/m² 11,0 °C 11,9 °C 0,0 km/h (0 Bft)
12.07.2019 02:37 11,9 °C 94 % 1013,3 hPa 0,0 mm 0,0 km/h (0 Bft) S-SO 159 ° 0 min 0,000 mm 0,0 UV-I 0 W/m² 11,0 °C 11,9 °C 0,0 km/h (0 Bft)
12.07.2019 02:38 11,9 °C 94 % 1013,4 hPa 0,0 mm 0,0 km/h (0 Bft) S-SO 159 ° 0 min 0,000 mm 0,0 UV-I 0 W/m² 11,0 °C 11,9 °C 0,0 km/h (0 Bft)
12.07.2019 02:39 11,9 °C 94 % 1013,3 hPa 0,0 mm 0,0 km/h (0 Bft) S-SO 159 ° 0 min 0,000 mm 0,0 UV-I 0 W/m² 11,0 °C 11,9 °C 0,0 km/h (0 Bft)
12.07.2019 02:40 11,9 °C 94 % 1013,3 hPa 0,0 mm 1,9 km/h (1 Bft) S-SO 159 ° 0 min 0,000 mm 0,0 UV-I 0 W/m² 11,0 °C 11,9 °C 6,4 km/h (2 Bft)
12.07.2019 02:41 11,9 °C 94 % 1013,4 hPa 0,0 mm 1,7 km/h (1 Bft) S-SO 159 ° 0 min 0,000 mm 0,0 UV-I 0 W/m² 11,0 °C 11,9 °C 3,2 km/h (1 Bft)
12.07.2019 02:42 11,8 °C 94 % 1013,3 hPa 0,0 mm 3,3 km/h (1 Bft) S-SO 159 ° 0 min 0,000 mm 0,0 UV-I 0 W/m² 10,9 °C 11,8 °C 6,4 km/h (2 Bft)
12.07.2019 02:43 11,8 °C 94 % 1013,3 hPa 0,0 mm 3,0 km/h (1 Bft) S-SO 159 ° 0 min 0,000 mm 0,0 UV-I 0 W/m² 10,9 °C 11,8 °C 6,4 km/h (2 Bft)
12.07.2019 02:44 11,8 °C 94 % 1013,3 hPa 0,0 mm 3,2 km/h (1 Bft) S-SO 159 ° 0 min 0,000 mm 0,0 UV-I 0 W/m² 10,9 °C 11,8 °C 6,4 km/h (2 Bft)
12.07.2019 02:45 11,8 °C 94 % 1013,2 hPa 0,0 mm 3,7 km/h (1 Bft) S-SO 159 ° 0 min 0,000 mm 0,0 UV-I 0 W/m² 10,9 °C 11,8 °C 6,4 km/h (2 Bft)
12.07.2019 02:46 11,8 °C 94 % 1013,3 hPa 0,0 mm 2,3 km/h (1 Bft) S-SO 159 ° 0 min 0,000 mm 0,0 UV-I 0 W/m² 10,9 °C 11,8 °C 3,2 km/h (1 Bft)
12.07.2019 02:47 11,8 °C 94 % 1013,2 hPa 0,0 mm 3,9 km/h (1 Bft) S-SO 159 ° 0 min 0,000 mm 0,0 UV-I 0 W/m² 10,9 °C 11,8 °C 6,4 km/h (2 Bft)
12.07.2019 02:48 11,8 °C 94 % 1013,2 hPa 0,0 mm 1,4 km/h (1 Bft) S-SO 159 ° 0 min 0,000 mm 0,0 UV-I 0 W/m² 10,9 °C 11,8 °C 3,2 km/h (1 Bft)
12.07.2019 02:49 11,8 °C 94 % 1013,2 hPa 0,0 mm 0,0 km/h (0 Bft) S-SO 159 ° 0 min 0,000 mm 0,0 UV-I 0 W/m² 10,9 °C 11,8 °C 0,0 km/h (0 Bft)
12.07.2019 02:50 11,8 °C 94 % 1013,2 hPa 0,0 mm 0,0 km/h (0 Bft) S-SO 159 ° 0 min 0,000 mm 0,0 UV-I 0 W/m² 10,9 °C 11,8 °C 0,0 km/h (0 Bft)
12.07.2019 02:51 11,8 °C 94 % 1013,2 hPa 0,0 mm 0,0 km/h (0 Bft) S-SO 159 ° 0 min 0,000 mm 0,0 UV-I 0 W/m² 10,9 °C 11,8 °C 0,0 km/h (0 Bft)
12.07.2019 02:52 11,9 °C 94 % 1013,2 hPa 0,0 mm 0,0 km/h (0 Bft) S-SO 160 ° 0 min 0,000 mm 0,0 UV-I 0 W/m² 11,0 °C 11,9 °C 0,0 km/h (0 Bft)
12.07.2019 02:53 11,9 °C 94 % 1013,2 hPa 0,0 mm 0,6 km/h (0 Bft) S-SW 197 ° 0 min 0,000 mm 0,0 UV-I 0 W/m² 11,0 °C 11,9 °C 3,2 km/h (1 Bft)
12.07.2019 02:54 11,9 °C 94 % 1013,1 hPa 0,0 mm 1,3 km/h (1 Bft) S-SW 196 ° 0 min 0,000 mm 0,0 UV-I 0 W/m² 11,0 °C 11,9 °C 3,2 km/h (1 Bft)
12.07.2019 02:55 11,9 °C 94 % 1013,2 hPa 0,0 mm 1,0 km/h (0 Bft) S-SW 196 ° 0 min 0,000 mm 0,0 UV-I 0 W/m² 11,0 °C 11,9 °C 1,6 km/h (1 Bft)
12.07.2019 02:56 11,9 °C 94 % 1013,1 hPa 0,0 mm 2,7 km/h (1 Bft) S-SW 192 ° 0 min 0,000 mm 0,0 UV-I 0 W/m² 11,0 °C 11,9 °C 6,4 km/h (2 Bft)
12.07.2019 02:57 12,0 °C 94 % 1013,2 hPa 0,0 mm 4,5 km/h (1 Bft) S-SW 206 ° 0 min 0,000 mm 0,0 UV-I 0 W/m² 11,1 °C 12,0 °C 6,4 km/h (2 Bft)
12.07.2019 02:58 12,1 °C 94 % 1013,2 hPa 0,0 mm 4,8 km/h (1 Bft) S-SW 208 ° 0 min 0,000 mm 0,0 UV-I 0 W/m² 11,2 °C 12,1 °C 6,4 km/h (2 Bft)
12.07.2019 02:59 12,1 °C 93 % 1013,2 hPa 0,0 mm 6,4 km/h (2 Bft) S 183 ° 0 min 0,000 mm 0,0 UV-I 0 W/m² 11,0 °C 12,1 °C 9,7 km/h (2 Bft)
12.07.2019 03:00 12,2 °C 93 % 1013,2 hPa 0,0 mm 4,8 km/h (1 Bft) S-SO 157 ° 0 min 0,000 mm 0,0 UV-I 0 W/m² 11,1 °C 12,2 °C 8,0 km/h (2 Bft)
12.07.2019 03:01 12,2 °C 93 % 1013,2 hPa 0,0 mm 2,9 km/h (1 Bft) S 180 ° 0 min 0,000 mm 0,0 UV-I 0 W/m² 11,1 °C 12,2 °C 4,8 km/h (1 Bft)
12.07.2019 03:02 12,3 °C 93 % 1013,2 hPa 0,0 mm 5,3 km/h (1 Bft) S 189 ° 0 min 0,000 mm 0,0 UV-I 0 W/m² 11,2 °C 12,3 °C 6,4 km/h (2 Bft)
12.07.2019 03:03 12,4 °C 93 % 1013,2 hPa 0,0 mm 2,7 km/h (1 Bft) S 188 ° 0 min 0,000 mm 0,0 UV-I 0 W/m² 11,3 °C 12,4 °C 6,4 km/h (2 Bft)
12.07.2019 03:04 12,4 °C 93 % 1013,2 hPa 0,0 mm 0,1 km/h (0 Bft) S 188 ° 0 min 0,000 mm 0,0 UV-I 0 W/m² 11,3 °C 12,4 °C 1,6 km/h (1 Bft)
12.07.2019 03:05 12,4 °C 93 % 1013,2 hPa 0,0 mm 1,5 km/h (1 Bft) S 171 ° 0 min 0,000 mm 0,0 UV-I 0 W/m² 11,3 °C 12,4 °C 6,4 km/h (2 Bft)
12.07.2019 03:06 12,4 °C 93 % 1013,2 hPa 0,0 mm 0,6 km/h (0 Bft) S 171 ° 0 min 0,000 mm 0,0 UV-I 0 W/m² 11,3 °C 12,4 °C 3,2 km/h (1 Bft)
12.07.2019 03:07 12,3 °C 93 % 1013,2 hPa 0,0 mm 0,3 km/h (0 Bft) S 171 ° 0 min 0,000 mm 0,0 UV-I 0 W/m² 11,2 °C 12,3 °C 3,2 km/h (1 Bft)
12.07.2019 03:08 12,3 °C 93 % 1013,2 hPa 0,0 mm 1,7 km/h (1 Bft) S 170 ° 0 min 0,000 mm 0,0 UV-I 0 W/m² 11,2 °C 12,3 °C 6,4 km/h (2 Bft)
12.07.2019 03:09 12,3 °C 93 % 1013,2 hPa 0,0 mm 2,9 km/h (1 Bft) S 170 ° 0 min 0,000 mm 0,0 UV-I 0 W/m² 11,2 °C 12,3 °C 6,4 km/h (2 Bft)
12.07.2019 03:10 12,2 °C 93 % 1013,1 hPa 0,0 mm 2,6 km/h (1 Bft) S 170 ° 0 min 0,000 mm 0,0 UV-I 0 W/m² 11,1 °C 12,2 °C 3,2 km/h (1 Bft)
12.07.2019 03:11 12,2 °C 93 % 1013,1 hPa 0,0 mm 2,3 km/h (1 Bft) S 171 ° 0 min 0,000 mm 0,0 UV-I 0 W/m² 11,1 °C 12,2 °C 3,2 km/h (1 Bft)
12.07.2019 03:12 12,2 °C 93 % 1013,0 hPa 0,0 mm 2,5 km/h (1 Bft) S 171 ° 0 min 0,000 mm 0,0 UV-I 0 W/m² 11,1 °C 12,2 °C 3,2 km/h (1 Bft)
12.07.2019 03:13 12,2 °C 93 % 1013,1 hPa 0,0 mm 0,5 km/h (0 Bft) S 171 ° 0 min 0,000 mm 0,0 UV-I 0 W/m² 11,1 °C 12,2 °C 1,6 km/h (1 Bft)
12.07.2019 03:14 12,2 °C 93 % 1013,1 hPa 0,0 mm 1,7 km/h (1 Bft) SO 140 ° 0 min 0,000 mm 0,0 UV-I 0 W/m² 11,1 °C 12,2 °C 3,2 km/h (1 Bft)
12.07.2019 03:15 12,2 °C 93 % 1013,1 hPa 0,0 mm 1,8 km/h (1 Bft) SO 140 ° 0 min 0,000 mm 0,0 UV-I 0 W/m² 11,1 °C 12,2 °C 3,2 km/h (1 Bft)
12.07.2019 03:16 12,2 °C 93 % 1013,1 hPa 0,0 mm 0,1 km/h (0 Bft) SO 140 ° 0 min 0,000 mm 0,0 UV-I 0 W/m² 11,1 °C 12,2 °C 1,6 km/h (1 Bft)
12.07.2019 03:17 12,2 °C 93 % 1013,0 hPa 0,0 mm 0,0 km/h (0 Bft) SO 140 ° 0 min 0,000 mm 0,0 UV-I 0 W/m² 11,1 °C 12,2 °C 0,0 km/h (0 Bft)
12.07.2019 03:18 12,2 °C 93 % 1013,0 hPa 0,0 mm 0,0 km/h (0 Bft) SO 140 ° 0 min 0,000 mm 0,0 UV-I 0 W/m² 11,1 °C 12,2 °C 0,0 km/h (0 Bft)
12.07.2019 03:19 12,2 °C 93 % 1013,0 hPa 0,0 mm 0,0 km/h (0 Bft) SO 140 ° 0 min 0,000 mm 0,0 UV-I 0 W/m² 11,1 °C 12,2 °C 0,0 km/h (0 Bft)
12.07.2019 03:20 12,2 °C 93 % 1013,0 hPa 0,0 mm 0,0 km/h (0 Bft) SO 140 ° 0 min 0,000 mm 0,0 UV-I 0 W/m² 11,1 °C 12,2 °C 0,0 km/h (0 Bft)
12.07.2019 03:21 12,2 °C 93 % 1013,0 hPa 0,0 mm 0,0 km/h (0 Bft) SO 140 ° 0 min 0,000 mm 0,0 UV-I 0 W/m² 11,1 °C 12,2 °C 0,0 km/h (0 Bft)
12.07.2019 03:22 12,2 °C 93 % 1013,0 hPa 0,0 mm 0,0 km/h (0 Bft) SO 140 ° 0 min 0,000 mm 0,0 UV-I 0 W/m² 11,1 °C 12,2 °C 0,0 km/h (0 Bft)
12.07.2019 03:23 12,2 °C 93 % 1013,0 hPa 0,0 mm 0,0 km/h (0 Bft) SO 140 ° 0 min 0,000 mm 0,0 UV-I 0 W/m² 11,1 °C 12,2 °C 0,0 km/h (0 Bft)
12.07.2019 03:24 12,2 °C 93 % 1013,0 hPa 0,0 mm 0,0 km/h (0 Bft) SO 140 ° 0 min 0,000 mm 0,0 UV-I 0 W/m² 11,1 °C 12,2 °C 0,0 km/h (0 Bft)
12.07.2019 03:25 12,2 °C 93 % 1013,0 hPa 0,0 mm 0,0 km/h (0 Bft) SO 140 ° 0 min 0,000 mm 0,0 UV-I 0 W/m² 11,1 °C 12,2 °C 0,0 km/h (0 Bft)
12.07.2019 03:26 12,2 °C 93 % 1013,0 hPa 0,0 mm 0,0 km/h (0 Bft) SO 140 ° 0 min 0,000 mm 0,0 UV-I 0 W/m² 11,1 °C 12,2 °C 0,0 km/h (0 Bft)
12.07.2019 03:27 12,2 °C 93 % 1013,0 hPa 0,0 mm 0,0 km/h (0 Bft) SO 140 ° 0 min 0,000 mm 0,0 UV-I 0 W/m² 11,1 °C 12,2 °C 0,0 km/h (0 Bft)
12.07.2019 03:28 12,2 °C 93 % 1013,0 hPa 0,0 mm 0,0 km/h (0 Bft) SO 140 ° 0 min 0,000 mm 0,0 UV-I 0 W/m² 11,1 °C 12,2 °C 0,0 km/h (0 Bft)
12.07.2019 03:29 12,2 °C 93 % 1013,0 hPa 0,0 mm 0,0 km/h (0 Bft) SO 140 ° 0 min 0,000 mm 0,0 UV-I 0 W/m² 11,1 °C 12,2 °C 0,0 km/h (0 Bft)
12.07.2019 03:30 12,2 °C 93 % 1012,9 hPa 0,0 mm 0,0 km/h (0 Bft) SO 140 ° 0 min 0,000 mm 0,0 UV-I 0 W/m² 11,1 °C 12,2 °C 0,0 km/h (0 Bft)
12.07.2019 03:31 12,2 °C 93 % 1012,9 hPa 0,0 mm 0,1 km/h (0 Bft) SO 140 ° 0 min 0,000 mm 0,0 UV-I 0 W/m² 11,1 °C 12,2 °C 1,6 km/h (1 Bft)
12.07.2019 03:32 12,1 °C 93 % 1012,9 hPa 0,0 mm 0,9 km/h (0 Bft) SO 140 ° 0 min 0,000 mm 0,0 UV-I 0 W/m² 11,0 °C 12,1 °C 3,2 km/h (1 Bft)
12.07.2019 03:33 12,1 °C 93 % 1012,9 hPa 0,0 mm 0,1 km/h (0 Bft) SO 140 ° 0 min 0,000 mm 0,0 UV-I 0 W/m² 11,0 °C 12,1 °C 1,6 km/h (1 Bft)
12.07.2019 03:34 12,2 °C 93 % 1012,9 hPa 0,0 mm 0,0 km/h (0 Bft) SO 140 ° 0 min 0,000 mm 0,0 UV-I 0 W/m² 11,1 °C 12,2 °C 0,0 km/h (0 Bft)
12.07.2019 03:35 12,1 °C 93 % 1012,9 hPa 0,0 mm 0,9 km/h (0 Bft) SO 140 ° 0 min 0,000 mm 0,0 UV-I 0 W/m² 11,0 °C 12,1 °C 1,6 km/h (1 Bft)
12.07.2019 03:36 12,1 °C 93 % 1012,9 hPa 0,0 mm 1,3 km/h (1 Bft) SO 140 ° 0 min 0,000 mm 0,0 UV-I 0 W/m² 11,0 °C 12,1 °C 3,2 km/h (1 Bft)
12.07.2019 03:37 12,1 °C 93 % 1012,9 hPa 0,0 mm 3,5 km/h (1 Bft) SO 140 ° 0 min 0,000 mm 0,0 UV-I 0 W/m² 11,0 °C 12,1 °C 4,8 km/h (1 Bft)
12.07.2019 03:38 12,1 °C 93 % 1012,9 hPa 0,0 mm 2,1 km/h (1 Bft) SO 140 ° 0 min 0,000 mm 0,0 UV-I 0 W/m² 11,0 °C 12,1 °C 3,2 km/h (1 Bft)
12.07.2019 03:39 12,1 °C 93 % 1012,9 hPa 0,0 mm 1,7 km/h (1 Bft) SO 140 ° 0 min 0,000 mm 0,0 UV-I 0 W/m² 11,0 °C 12,1 °C 3,2 km/h (1 Bft)
12.07.2019 03:40 12,1 °C 93 % 1012,9 hPa 0,0 mm 0,3 km/h (0 Bft) SO 140 ° 0 min 0,000 mm 0,0 UV-I 0 W/m² 11,0 °C 12,1 °C 1,6 km/h (1 Bft)
12.07.2019 03:41 12,1 °C 93 % 1012,9 hPa 0,0 mm 0,0 km/h (0 Bft) SO 140 ° 0 min 0,000 mm 0,0 UV-I 0 W/m² 11,0 °C 12,1 °C 0,0 km/h (0 Bft)
12.07.2019 03:42 12,1 °C 93 % 1012,9 hPa 0,0 mm 0,0 km/h (0 Bft) SO 140 ° 0 min 0,000 mm 0,0 UV-I 0 W/m² 11,0 °C 12,1 °C 0,0 km/h (0 Bft)
12.07.2019 03:43 12,1 °C 93 % 1012,9 hPa 0,0 mm 0,0 km/h (0 Bft) SO 140 ° 0 min 0,000 mm 0,0 UV-I 0 W/m² 11,0 °C 12,1 °C 0,0 km/h (0 Bft)
12.07.2019 03:44 12,1 °C 93 % 1012,9 hPa 0,0 mm 0,0 km/h (0 Bft) SO 140 ° 0 min 0,000 mm 0,0 UV-I 0 W/m² 11,0 °C 12,1 °C 0,0 km/h (0 Bft)
12.07.2019 03:45 12,0 °C 93 % 1012,8 hPa 0,0 mm 0,0 km/h (0 Bft) SO 140 ° 0 min 0,000 mm 0,0 UV-I 0 W/m² 10,9 °C 12,0 °C 0,0 km/h (0 Bft)
12.07.2019 03:46 12,0 °C 93 % 1012,8 hPa 0,0 mm 0,0 km/h (0 Bft) SO 140 ° 0 min 0,000 mm 0,0 UV-I 0 W/m² 10,9 °C 12,0 °C 0,0 km/h (0 Bft)
12.07.2019 03:47 12,0 °C 93 % 1012,8 hPa 0,0 mm 0,1 km/h (0 Bft) SO 140 ° 0 min 0,000 mm 0,0 UV-I 0 W/m² 10,9 °C 12,0 °C 1,6 km/h (1 Bft)
12.07.2019 03:48 11,9 °C 93 % 1012,8 hPa 0,0 mm 2,2 km/h (1 Bft) SO 140 ° 0 min 0,000 mm 0,0 UV-I 0 W/m² 10,8 °C 11,9 °C 3,2 km/h (1 Bft)
12.07.2019 03:49 11,9 °C 93 % 1012,8 hPa 0,0 mm 0,0 km/h (0 Bft) SO 140 ° 0 min 0,000 mm 0,0 UV-I 0 W/m² 10,8 °C 11,9 °C 0,0 km/h (0 Bft)
12.07.2019 03:50 11,9 °C 93 % 1012,8 hPa 0,0 mm 0,0 km/h (0 Bft) SO 140 ° 0 min 0,000 mm 0,0 UV-I 0 W/m² 10,8 °C 11,9 °C 0,0 km/h (0 Bft)
12.07.2019 03:51 11,9 °C 93 % 1012,8 hPa 0,0 mm 1,5 km/h (1 Bft) SO 140 ° 0 min 0,000 mm 0,0 UV-I 0 W/m² 10,8 °C 11,9 °C 4,8 km/h (1 Bft)
12.07.2019 03:52 11,9 °C 94 % 1012,9 hPa 0,0 mm 0,5 km/h (0 Bft) SO 140 ° 0 min 0,000 mm 0,0 UV-I 0 W/m² 11,0 °C 11,9 °C 1,6 km/h (1 Bft)
12.07.2019 03:53 11,9 °C 94 % 1012,9 hPa 0,0 mm 0,0 km/h (0 Bft) SO 140 ° 0 min 0,000 mm 0,0 UV-I 0 W/m² 11,0 °C 11,9 °C 0,0 km/h (0 Bft)
12.07.2019 03:54 11,9 °C 94 % 1012,9 hPa 0,0 mm 0,0 km/h (0 Bft) SO 140 ° 0 min 0,000 mm 0,0 UV-I 0 W/m² 11,0 °C 11,9 °C 0,0 km/h (0 Bft)
12.07.2019 03:55 11,9 °C 94 % 1012,8 hPa 0,0 mm 0,8 km/h (0 Bft) SO 140 ° 0 min 0,000 mm 0,0 UV-I 0 W/m² 11,0 °C 11,9 °C 3,2 km/h (1 Bft)
12.07.2019 03:56 11,9 °C 94 % 1012,8 hPa 0,0 mm 0,0 km/h (0 Bft) SO 140 ° 0 min 0,000 mm 0,0 UV-I 0 W/m² 11,0 °C 11,9 °C 0,0 km/h (0 Bft)
12.07.2019 03:57 11,9 °C 94 % 1012,9 hPa 0,0 mm 0,0 km/h (0 Bft) SO 140 ° 0 min 0,000 mm 0,0 UV-I 0 W/m² 11,0 °C 11,9 °C 0,0 km/h (0 Bft)
12.07.2019 03:58 11,9 °C 94 % 1012,9 hPa 0,0 mm 0,0 km/h (0 Bft) SO 140 ° 0 min 0,000 mm 0,0 UV-I 0 W/m² 11,0 °C 11,9 °C 0,0 km/h (0 Bft)
12.07.2019 03:59 11,9 °C 94 % 1012,9 hPa 0,0 mm 0,0 km/h (0 Bft) SO 140 ° 0 min 0,000 mm 0,0 UV-I 0 W/m² 11,0 °C 11,9 °C 0,0 km/h (0 Bft)
12.07.2019 04:00 11,8 °C 94 % 1012,9 hPa 0,0 mm 0,0 km/h (0 Bft) SO 140 ° 0 min 0,000 mm 0,0 UV-I 0 W/m² 10,9 °C 11,8 °C 0,0 km/h (0 Bft)
12.07.2019 04:01 11,8 °C 94 % 1012,9 hPa 0,0 mm 0,0 km/h (0 Bft) SO 140 ° 0 min 0,000 mm 0,0 UV-I 0 W/m² 10,9 °C 11,8 °C 0,0 km/h (0 Bft)
12.07.2019 04:02 11,9 °C 94 % 1012,9 hPa 0,0 mm 0,0 km/h (0 Bft) SO 140 ° 0 min 0,000 mm 0,0 UV-I 0 W/m² 11,0 °C 11,9 °C 0,0 km/h (0 Bft)
12.07.2019 04:03 11,9 °C 94 % 1012,8 hPa 0,0 mm 0,0 km/h (0 Bft) SO 140 ° 0 min 0,000 mm 0,0 UV-I 0 W/m² 11,0 °C 11,9 °C 0,0 km/h (0 Bft)
12.07.2019 04:04 11,9 °C 94 % 1012,8 hPa 0,0 mm 0,0 km/h (0 Bft) SO 140 ° 0 min 0,000 mm 0,0 UV-I 0 W/m² 11,0 °C 11,9 °C 0,0 km/h (0 Bft)
12.07.2019 04:05 11,9 °C 94 % 1012,8 hPa 0,0 mm 0,0 km/h (0 Bft) SO 140 ° 0 min 0,000 mm 0,0 UV-I 0 W/m² 11,0 °C 11,9 °C 0,0 km/h (0 Bft)
12.07.2019 04:06 11,9 °C 94 % 1012,9 hPa 0,0 mm 0,0 km/h (0 Bft) SO 140 ° 0 min 0,000 mm 0,0 UV-I 0 W/m² 11,0 °C 11,9 °C 0,0 km/h (0 Bft)
12.07.2019 04:07 11,9 °C 94 % 1012,8 hPa 0,0 mm 0,0 km/h (0 Bft) SO 140 ° 0 min 0,000 mm 0,0 UV-I 0 W/m² 11,0 °C 11,9 °C 0,0 km/h (0 Bft)
12.07.2019 04:08 11,9 °C 94 % 1012,8 hPa 0,0 mm 0,0 km/h (0 Bft) SO 140 ° 0 min 0,000 mm 0,0 UV-I 0 W/m² 11,0 °C 11,9 °C 0,0 km/h (0 Bft)
12.07.2019 04:09 11,9 °C 94 % 1012,8 hPa 0,0 mm 0,0 km/h (0 Bft) SO 140 ° 0 min 0,000 mm 0,0 UV-I 0 W/m² 11,0 °C 11,9 °C 0,0 km/h (0 Bft)
12.07.2019 04:10 11,9 °C 94 % 1012,8 hPa 0,0 mm 0,0 km/h (0 Bft) SO 140 ° 0 min 0,000 mm 0,0 UV-I 0 W/m² 11,0 °C 11,9 °C 0,0 km/h (0 Bft)
12.07.2019 04:11 11,9 °C 94 % 1012,8 hPa 0,0 mm 0,0 km/h (0 Bft) SO 140 ° 0 min 0,000 mm 0,0 UV-I 0 W/m² 11,0 °C 11,9 °C 0,0 km/h (0 Bft)
12.07.2019 04:12 11,8 °C 94 % 1012,8 hPa 0,0 mm 0,0 km/h (0 Bft) SO 140 ° 0 min 0,000 mm 0,0 UV-I 0 W/m² 10,9 °C 11,8 °C 0,0 km/h (0 Bft)
12.07.2019 04:13 11,8 °C 94 % 1012,8 hPa 0,0 mm 0,0 km/h (0 Bft) SO 140 ° 0 min 0,000 mm 0,0 UV-I 0 W/m² 10,9 °C 11,8 °C 0,0 km/h (0 Bft)
12.07.2019 04:14 11,8 °C 94 % 1012,8 hPa 0,0 mm 0,0 km/h (0 Bft) SO 140 ° 0 min 0,000 mm 0,0 UV-I 0 W/m² 10,9 °C 11,8 °C 0,0 km/h (0 Bft)
12.07.2019 04:15 11,8 °C 94 % 1012,7 hPa 0,0 mm 0,0 km/h (0 Bft) SO 140 ° 0 min 0,000 mm 0,0 UV-I 0 W/m² 10,9 °C 11,8 °C 0,0 km/h (0 Bft)
12.07.2019 04:16 11,8 °C 94 % 1012,7 hPa 0,0 mm 0,0 km/h (0 Bft) SO 140 ° 0 min 0,000 mm 0,0 UV-I 0 W/m² 10,9 °C 11,8 °C 0,0 km/h (0 Bft)
12.07.2019 04:17 11,9 °C 94 % 1012,7 hPa 0,0 mm 0,0 km/h (0 Bft) SO 140 ° 0 min 0,000 mm 0,0 UV-I 0 W/m² 11,0 °C 11,9 °C 0,0 km/h (0 Bft)
12.07.2019 04:18 11,8 °C 94 % 1012,7 hPa 0,0 mm 0,0 km/h (0 Bft) SO 140 ° 0 min 0,000 mm 0,0 UV-I 0 W/m² 10,9 °C 11,8 °C 0,0 km/h (0 Bft)
12.07.2019 04:19 11,8 °C 94 % 1012,7 hPa 0,0 mm 0,0 km/h (0 Bft) SO 140 ° 0 min 0,000 mm 0,0 UV-I 0 W/m² 10,9 °C 11,8 °C 0,0 km/h (0 Bft)
12.07.2019 04:20 11,9 °C 94 % 1012,7 hPa 0,0 mm 0,0 km/h (0 Bft) SO 140 ° 0 min 0,000 mm 0,0 UV-I 0 W/m² 11,0 °C 11,9 °C 0,0 km/h (0 Bft)
12.07.2019 04:21 11,8 °C 94 % 1012,7 hPa 0,0 mm 0,0 km/h (0 Bft) SO 140 ° 0 min 0,000 mm 0,0 UV-I 0 W/m² 10,9 °C 11,8 °C 0,0 km/h (0 Bft)
12.07.2019 04:22 11,8 °C 94 % 1012,7 hPa 0,0 mm 0,0 km/h (0 Bft) SO 140 ° 0 min 0,000 mm 0,0 UV-I 0 W/m² 10,9 °C 11,8 °C 0,0 km/h (0 Bft)
12.07.2019 04:23 11,8 °C 94 % 1012,7 hPa 0,0 mm 0,0 km/h (0 Bft) SO 140 ° 0 min 0,000 mm 0,0 UV-I 0 W/m² 10,9 °C 11,8 °C 0,0 km/h (0 Bft)
12.07.2019 04:24 11,8 °C 94 % 1012,7 hPa 0,0 mm 0,0 km/h (0 Bft) SO 140 ° 0 min 0,000 mm 0,0 UV-I 0 W/m² 10,9 °C 11,8 °C 0,0 km/h (0 Bft)
12.07.2019 04:25 11,8 °C 94 % 1012,7 hPa 0,0 mm 0,0 km/h (0 Bft) SO 140 ° 0 min 0,000 mm 0,0 UV-I 0 W/m² 10,9 °C 11,8 °C 0,0 km/h (0 Bft)
12.07.2019 04:26 11,9 °C 94 % 1012,7 hPa 0,0 mm 0,0 km/h (0 Bft) SO 140 ° 0 min 0,000 mm 0,0 UV-I 0 W/m² 11,0 °C 11,9 °C 0,0 km/h (0 Bft)
12.07.2019 04:27 11,9 °C 94 % 1012,7 hPa 0,0 mm 0,0 km/h (0 Bft) SO 140 ° 0 min 0,000 mm 0,0 UV-I 0 W/m² 11,0 °C 11,9 °C 0,0 km/h (0 Bft)
12.07.2019 04:28 11,9 °C 94 % 1012,8 hPa 0,0 mm 0,4 km/h (0 Bft) SO 140 ° 0 min 0,000 mm 0,0 UV-I 0 W/m² 11,0 °C 11,9 °C 1,6 km/h (1 Bft)
12.07.2019 04:29 11,9 °C 94 % 1012,8 hPa 0,0 mm 0,0 km/h (0 Bft) SO 140 ° 0 min 0,000 mm 0,0 UV-I 0 W/m² 11,0 °C 11,9 °C 0,0 km/h (0 Bft)
12.07.2019 04:30 11,9 °C 94 % 1012,7 hPa 0,0 mm 0,0 km/h (0 Bft) SO 140 ° 0 min 0,000 mm 0,0 UV-I 0 W/m² 11,0 °C 11,9 °C 0,0 km/h (0 Bft)
12.07.2019 04:31 11,9 °C 94 % 1012,7 hPa 0,0 mm 0,0 km/h (0 Bft) SO 140 ° 0 min 0,000 mm 0,0 UV-I 0 W/m² 11,0 °C 11,9 °C 0,0 km/h (0 Bft)
12.07.2019 04:32 11,9 °C 94 % 1012,7 hPa 0,0 mm 0,0 km/h (0 Bft) SO 140 ° 0 min 0,000 mm 0,0 UV-I 0 W/m² 11,0 °C 11,9 °C 0,0 km/h (0 Bft)
12.07.2019 04:33 11,9 °C 94 % 1012,7 hPa 0,0 mm 0,0 km/h (0 Bft) SO 140 ° 0 min 0,000 mm 0,0 UV-I 0 W/m² 11,0 °C 11,9 °C 0,0 km/h (0 Bft)
12.07.2019 04:34 11,8 °C 94 % 1012,7 hPa 0,0 mm 0,0 km/h (0 Bft) SO 140 ° 0 min 0,000 mm 0,0 UV-I 0 W/m² 10,9 °C 11,8 °C 0,0 km/h (0 Bft)
12.07.2019 04:35 11,8 °C 94 % 1012,7 hPa 0,0 mm 0,0 km/h (0 Bft) SO 140 ° 0 min 0,000 mm 0,0 UV-I 0 W/m² 10,9 °C 11,8 °C 0,0 km/h (0 Bft)
12.07.2019 04:36 11,8 °C 94 % 1012,6 hPa 0,0 mm 0,0 km/h (0 Bft) SO 140 ° 0 min 0,000 mm 0,0 UV-I 0 W/m² 10,9 °C 11,8 °C 0,0 km/h (0 Bft)
12.07.2019 04:37 11,8 °C 94 % 1012,6 hPa 0,0 mm 0,0 km/h (0 Bft) SO 137 ° 0 min 0,000 mm 0,0 UV-I 0 W/m² 10,9 °C 11,8 °C 0,0 km/h (0 Bft)
12.07.2019 04:38 11,8 °C 94 % 1012,6 hPa 0,0 mm 0,0 km/h (0 Bft) SO 140 ° 0 min 0,000 mm 0,0 UV-I 0 W/m² 10,9 °C 11,8 °C 0,0 km/h (0 Bft)
12.07.2019 04:39 11,8 °C 94 % 1012,6 hPa 0,0 mm 0,0 km/h (0 Bft) SO 140 ° 0 min 0,000 mm 0,0 UV-I 0 W/m² 10,9 °C 11,8 °C 0,0 km/h (0 Bft)
12.07.2019 04:40 11,8 °C 94 % 1012,6 hPa 0,0 mm 0,3 km/h (0 Bft) SO 140 ° 0 min 0,000 mm 0,0 UV-I 0 W/m² 10,9 °C 11,8 °C 1,6 km/h (1 Bft)
12.07.2019 04:41 11,8 °C 94 % 1012,6 hPa 0,0 mm 0,0 km/h (0 Bft) SO 140 ° 0 min 0,000 mm 0,0 UV-I 0 W/m² 10,9 °C 11,8 °C 0,0 km/h (0 Bft)
12.07.2019 04:42 11,8 °C 94 % 1012,7 hPa 0,0 mm 0,0 km/h (0 Bft) SO 140 ° 0 min 0,000 mm 0,0 UV-I 0 W/m² 10,9 °C 11,8 °C 0,0 km/h (0 Bft)
12.07.2019 04:43 11,8 °C 94 % 1012,7 hPa 0,0 mm 0,0 km/h (0 Bft) SO 140 ° 0 min 0,000 mm 0,0 UV-I 0 W/m² 10,9 °C 11,8 °C 0,0 km/h (0 Bft)
12.07.2019 04:44 11,8 °C 94 % 1012,7 hPa 0,0 mm 0,0 km/h (0 Bft) SO 140 ° 0 min 0,000 mm 0,0 UV-I 0 W/m² 10,9 °C 11,8 °C 0,0 km/h (0 Bft)
12.07.2019 04:45 11,8 °C 94 % 1012,6 hPa 0,0 mm 0,0 km/h (0 Bft) SO 140 ° 0 min 0,000 mm 0,0 UV-I 0 W/m² 10,9 °C 11,8 °C 0,0 km/h (0 Bft)
12.07.2019 04:46 11,8 °C 94 % 1012,7 hPa 0,0 mm 0,0 km/h (0 Bft) SO 140 ° 0 min 0,000 mm 0,0 UV-I 0 W/m² 10,9 °C 11,8 °C 0,0 km/h (0 Bft)
12.07.2019 04:47 11,8 °C 94 % 1012,6 hPa 0,0 mm 0,0 km/h (0 Bft) SO 140 ° 0 min 0,000 mm 0,0 UV-I 0 W/m² 10,9 °C 11,8 °C 0,0 km/h (0 Bft)
12.07.2019 04:48 11,8 °C 94 % 1012,6 hPa 0,0 mm 0,0 km/h (0 Bft) SO 140 ° 0 min 0,000 mm 0,0 UV-I 0 W/m² 10,9 °C 11,8 °C 0,0 km/h (0 Bft)
12.07.2019 04:49 11,8 °C 94 % 1012,6 hPa 0,0 mm 0,0 km/h (0 Bft) SO 140 ° 0 min 0,000 mm 0,0 UV-I 0 W/m² 10,9 °C 11,8 °C 0,0 km/h (0 Bft)
12.07.2019 04:50 11,8 °C 94 % 1012,6 hPa 0,0 mm 0,0 km/h (0 Bft) SO 140 ° 0 min 0,000 mm 0,0 UV-I 0 W/m² 10,9 °C 11,8 °C 0,0 km/h (0 Bft)
12.07.2019 04:51 11,8 °C 94 % 1012,6 hPa 0,0 mm 0,0 km/h (0 Bft) SO 140 ° 0 min 0,000 mm 0,0 UV-I 0 W/m² 10,9 °C 11,8 °C 0,0 km/h (0 Bft)
12.07.2019 04:52 11,8 °C 94 % 1012,6 hPa 0,0 mm 0,0 km/h (0 Bft) SO 140 ° 0 min 0,000 mm 0,0 UV-I 0 W/m² 10,9 °C 11,8 °C 0,0 km/h (0 Bft)
12.07.2019 04:53 11,7 °C 94 % 1012,6 hPa 0,0 mm 0,0 km/h (0 Bft) SO 140 ° 0 min 0,000 mm 0,0 UV-I 0 W/m² 10,8 °C 11,7 °C 0,0 km/h (0 Bft)
12.07.2019 04:54 11,8 °C 94 % 1012,6 hPa 0,0 mm 0,0 km/h (0 Bft) SO 140 ° 0 min 0,000 mm 0,0 UV-I 0 W/m² 10,9 °C 11,8 °C 0,0 km/h (0 Bft)
12.07.2019 04:55 11,7 °C 94 % 1012,6 hPa 0,0 mm 0,0 km/h (0 Bft) SO 140 ° 0 min 0,000 mm 0,0 UV-I 0 W/m² 10,8 °C 11,7 °C 0,0 km/h (0 Bft)
12.07.2019 04:56 11,7 °C 94 % 1012,6 hPa 0,0 mm 0,0 km/h (0 Bft) SO 140 ° 0 min 0,000 mm 0,0 UV-I 0 W/m² 10,8 °C 11,7 °C 0,0 km/h (0 Bft)
12.07.2019 04:57 11,7 °C 94 % 1012,6 hPa 0,0 mm 0,0 km/h (0 Bft) SO 140 ° 0 min 0,000 mm 0,0 UV-I 0 W/m² 10,8 °C 11,7 °C 0,0 km/h (0 Bft)
12.07.2019 04:58 11,7 °C 94 % 1012,6 hPa 0,0 mm 0,0 km/h (0 Bft) SO 140 ° 0 min 0,000 mm 0,0 UV-I 0 W/m² 10,8 °C 11,7 °C 0,0 km/h (0 Bft)
12.07.2019 04:59 11,7 °C 94 % 1012,6 hPa 0,0 mm 0,0 km/h (0 Bft) SO 140 ° 0 min 0,000 mm 0,0 UV-I 0 W/m² 10,8 °C 11,7 °C 0,0 km/h (0 Bft)
12.07.2019 05:00 11,7 °C 94 % 1012,6 hPa 0,0 mm 0,0 km/h (0 Bft) SO 140 ° 0 min 0,000 mm 0,0 UV-I 0 W/m² 10,8 °C 11,7 °C 0,0 km/h (0 Bft)
12.07.2019 05:01 11,7 °C 94 % 1012,6 hPa 0,0 mm 0,0 km/h (0 Bft) SO 140 ° 0 min 0,000 mm 0,0 UV-I 0 W/m² 10,8 °C 11,7 °C 0,0 km/h (0 Bft)
12.07.2019 05:02 11,7 °C 94 % 1012,6 hPa 0,0 mm 0,0 km/h (0 Bft) SO 140 ° 0 min 0,000 mm 0,0 UV-I 0 W/m² 10,8 °C 11,7 °C 0,0 km/h (0 Bft)
12.07.2019 05:03 11,7 °C 94 % 1012,6 hPa 0,0 mm 0,0 km/h (0 Bft) SO 140 ° 0 min 0,000 mm 0,0 UV-I 0 W/m² 10,8 °C 11,7 °C 0,0 km/h (0 Bft)
12.07.2019 05:04 11,7 °C 94 % 1012,6 hPa 0,0 mm 0,0 km/h (0 Bft) SO 140 ° 0 min 0,000 mm 0,0 UV-I 0 W/m² 10,8 °C 11,7 °C 0,0 km/h (0 Bft)
12.07.2019 05:05 11,7 °C 94 % 1012,6 hPa 0,0 mm 0,0 km/h (0 Bft) SO 140 ° 0 min 0,000 mm 0,0 UV-I 0 W/m² 10,8 °C 11,7 °C 0,0 km/h (0 Bft)
12.07.2019 05:06 11,7 °C 94 % 1012,6 hPa 0,0 mm 0,0 km/h (0 Bft) SO 140 ° 0 min 0,000 mm 0,0 UV-I 0 W/m² 10,8 °C 11,7 °C 0,0 km/h (0 Bft)
12.07.2019 05:07 11,7 °C 94 % 1012,6 hPa 0,0 mm 0,0 km/h (0 Bft) SO 140 ° 0 min 0,000 mm 0,0 UV-I 0 W/m² 10,8 °C 11,7 °C 0,0 km/h (0 Bft)
12.07.2019 05:08 11,7 °C 94 % 1012,6 hPa 0,0 mm 0,0 km/h (0 Bft) SO 140 ° 0 min 0,000 mm 0,0 UV-I 0 W/m² 10,8 °C 11,7 °C 0,0 km/h (0 Bft)
12.07.2019 05:09 11,7 °C 94 % 1012,6 hPa 0,0 mm 0,0 km/h (0 Bft) SO 140 ° 0 min 0,000 mm 0,0 UV-I 0 W/m² 10,8 °C 11,7 °C 0,0 km/h (0 Bft)
12.07.2019 05:10 11,7 °C 94 % 1012,6 hPa 0,0 mm 0,0 km/h (0 Bft) SO 140 ° 0 min 0,000 mm 0,0 UV-I 0 W/m² 10,8 °C 11,7 °C 0,0 km/h (0 Bft)
12.07.2019 05:11 11,7 °C 94 % 1012,6 hPa 0,0 mm 0,0 km/h (0 Bft) SO 140 ° 0 min 0,000 mm 0,0 UV-I 0 W/m² 10,8 °C 11,7 °C 0,0 km/h (0 Bft)
12.07.2019 05:12 11,7 °C 94 % 1012,6 hPa 0,0 mm 0,0 km/h (0 Bft) SO 140 ° 0 min 0,000 mm 0,0 UV-I 0 W/m² 10,8 °C 11,7 °C 0,0 km/h (0 Bft)
12.07.2019 05:13 11,7 °C 94 % 1012,6 hPa 0,0 mm 0,0 km/h (0 Bft) SO 140 ° 0 min 0,000 mm 0,0 UV-I 0 W/m² 10,8 °C 11,7 °C 0,0 km/h (0 Bft)
12.07.2019 05:14 11,7 °C 94 % 1012,6 hPa 0,0 mm 0,0 km/h (0 Bft) SO 140 ° 0 min 0,000 mm 0,0 UV-I 0 W/m² 10,8 °C 11,7 °C 0,0 km/h (0 Bft)
12.07.2019 05:15 11,8 °C 94 % 1012,6 hPa 0,0 mm 0,0 km/h (0 Bft) SO 140 ° 0 min 0,000 mm 0,0 UV-I 0 W/m² 10,9 °C 11,8 °C 0,0 km/h (0 Bft)
12.07.2019 05:16 11,8 °C 94 % 1012,6 hPa 0,0 mm 0,0 km/h (0 Bft) SO 145 ° 0 min 0,000 mm 0,0 UV-I 0 W/m² 10,9 °C 11,8 °C 0,0 km/h (0 Bft)
12.07.2019 05:17 11,8 °C 94 % 1012,6 hPa 0,0 mm 0,0 km/h (0 Bft) SO 145 ° 0 min 0,000 mm 0,0 UV-I 0 W/m² 10,9 °C 11,8 °C 0,0 km/h (0 Bft)
12.07.2019 05:18 11,8 °C 94 % 1012,7 hPa 0,0 mm 0,0 km/h (0 Bft) SO 145 ° 0 min 0,000 mm 0,0 UV-I 0 W/m² 10,9 °C 11,8 °C 0,0 km/h (0 Bft)
12.07.2019 05:19 11,8 °C 94 % 1012,6 hPa 0,0 mm 0,0 km/h (0 Bft) SO 145 ° 0 min 0,000 mm 0,0 UV-I 0 W/m² 10,9 °C 11,8 °C 0,0 km/h (0 Bft)
12.07.2019 05:20 11,8 °C 94 % 1012,6 hPa 0,0 mm 0,0 km/h (0 Bft) SO 145 ° 0 min 0,000 mm 0,0 UV-I 0 W/m² 10,9 °C 11,8 °C 0,0 km/h (0 Bft)
12.07.2019 05:21 11,8 °C 94 % 1012,6 hPa 0,0 mm 0,0 km/h (0 Bft) SO 145 ° 0 min 0,000 mm 0,0 UV-I 0 W/m² 10,9 °C 11,8 °C 0,0 km/h (0 Bft)
12.07.2019 05:22 11,8 °C 94 % 1012,7 hPa 0,0 mm 0,0 km/h (0 Bft) SO 145 ° 0 min 0,000 mm 0,0 UV-I 0 W/m² 10,9 °C 11,8 °C 0,0 km/h (0 Bft)
12.07.2019 05:23 11,8 °C 94 % 1012,7 hPa 0,0 mm 0,0 km/h (0 Bft) SO 145 ° 0 min 0,000 mm 0,0 UV-I 0 W/m² 10,9 °C 11,8 °C 0,0 km/h (0 Bft)
12.07.2019 05:24 11,8 °C 94 % 1012,7 hPa 0,0 mm 0,0 km/h (0 Bft) SO 145 ° 0 min 0,000 mm 0,0 UV-I 0 W/m² 10,9 °C 11,8 °C 0,0 km/h (0 Bft)
12.07.2019 05:25 11,8 °C 94 % 1012,7 hPa 0,0 mm 0,0 km/h (0 Bft) SO 145 ° 0 min 0,000 mm 0,0 UV-I 0 W/m² 10,9 °C 11,8 °C 0,0 km/h (0 Bft)
12.07.2019 05:26 11,8 °C 94 % 1012,6 hPa 0,0 mm 0,0 km/h (0 Bft) SO 145 ° 0 min 0,000 mm 0,0 UV-I 0 W/m² 10,9 °C 11,8 °C 0,0 km/h (0 Bft)
12.07.2019 05:27 11,8 °C 94 % 1012,6 hPa 0,0 mm 0,0 km/h (0 Bft) SO 145 ° 0 min 0,000 mm 0,0 UV-I 0 W/m² 10,9 °C 11,8 °C 0,0 km/h (0 Bft)
12.07.2019 05:28 11,8 °C 94 % 1012,6 hPa 0,0 mm 0,0 km/h (0 Bft) SO 145 ° 0 min 0,000 mm 0,0 UV-I 0 W/m² 10,9 °C 11,8 °C 0,0 km/h (0 Bft)
12.07.2019 05:29 11,8 °C 94 % 1012,6 hPa 0,0 mm 0,0 km/h (0 Bft) SO 145 ° 0 min 0,000 mm 0,0 UV-I 0 W/m² 10,9 °C 11,8 °C 0,0 km/h (0 Bft)
12.07.2019 05:30 11,8 °C 94 % 1012,6 hPa 0,0 mm 0,0 km/h (0 Bft) SO 145 ° 0 min 0,000 mm 0,0 UV-I 0 W/m² 10,9 °C 11,8 °C 0,0 km/h (0 Bft)
12.07.2019 05:31 11,8 °C 94 % 1012,7 hPa 0,0 mm 0,0 km/h (0 Bft) SO 145 ° 0 min 0,000 mm 0,0 UV-I 0 W/m² 10,9 °C 11,8 °C 0,0 km/h (0 Bft)
12.07.2019 05:32 11,8 °C 94 % 1012,7 hPa 0,0 mm 0,0 km/h (0 Bft) SO 145 ° 0 min 0,000 mm 0,0 UV-I 0 W/m² 10,9 °C 11,8 °C 0,0 km/h (0 Bft)
12.07.2019 05:33 11,8 °C 94 % 1012,7 hPa 0,0 mm 0,0 km/h (0 Bft) SO 145 ° 0 min 0,000 mm 0,0 UV-I 0 W/m² 10,9 °C 11,8 °C 0,0 km/h (0 Bft)
12.07.2019 05:34 11,8 °C 94 % 1012,7 hPa 0,0 mm 0,0 km/h (0 Bft) SO 145 ° 0 min 0,000 mm 0,0 UV-I 0 W/m² 10,9 °C 11,8 °C 0,0 km/h (0 Bft)
12.07.2019 05:35 11,8 °C 94 % 1012,7 hPa 0,0 mm 0,0 km/h (0 Bft) SO 145 ° 0 min 0,000 mm 0,0 UV-I 0 W/m² 10,9 °C 11,8 °C 0,0 km/h (0 Bft)
12.07.2019 05:36 11,8 °C 94 % 1012,7 hPa 0,0 mm 0,0 km/h (0 Bft) SO 145 ° 0 min 0,000 mm 0,0 UV-I 0 W/m² 10,9 °C 11,8 °C 0,0 km/h (0 Bft)
12.07.2019 05:37 11,8 °C 94 % 1012,6 hPa 0,0 mm 0,0 km/h (0 Bft) SO 145 ° 0 min 0,000 mm 0,0 UV-I 0 W/m² 10,9 °C 11,8 °C 0,0 km/h (0 Bft)
12.07.2019 05:38 11,9 °C 94 % 1012,6 hPa 0,0 mm 0,0 km/h (0 Bft) SO 145 ° 0 min 0,000 mm 0,0 UV-I 0 W/m² 11,0 °C 11,9 °C 0,0 km/h (0 Bft)
12.07.2019 05:39 11,9 °C 94 % 1012,6 hPa 0,0 mm 0,0 km/h (0 Bft) SO 145 ° 0 min 0,000 mm 0,0 UV-I 0 W/m² 11,0 °C 11,9 °C 0,0 km/h (0 Bft)
12.07.2019 05:40 11,9 °C 94 % 1012,6 hPa 0,0 mm 0,0 km/h (0 Bft) SO 145 ° 0 min 0,000 mm 0,0 UV-I 0 W/m² 11,0 °C 11,9 °C 0,0 km/h (0 Bft)
12.07.2019 05:41 11,9 °C 94 % 1012,6 hPa 0,0 mm 0,0 km/h (0 Bft) SO 145 ° 0 min 0,000 mm 0,0 UV-I 0 W/m² 11,0 °C 11,9 °C 0,0 km/h (0 Bft)
12.07.2019 05:42 11,9 °C 94 % 1012,6 hPa 0,0 mm 0,0 km/h (0 Bft) SO 145 ° 0 min 0,000 mm 0,0 UV-I 0 W/m² 11,0 °C 11,9 °C 0,0 km/h (0 Bft)
12.07.2019 05:43 11,9 °C 94 % 1012,6 hPa 0,0 mm 0,0 km/h (0 Bft) SO 145 ° 0 min 0,000 mm 0,0 UV-I 0 W/m² 11,0 °C 11,9 °C 0,0 km/h (0 Bft)
12.07.2019 05:44 11,9 °C 94 % 1012,6 hPa 0,0 mm 0,0 km/h (0 Bft) SO 145 ° 0 min 0,000 mm 0,0 UV-I 0 W/m² 11,0 °C 11,9 °C 0,0 km/h (0 Bft)
12.07.2019 05:45 11,9 °C 94 % 1012,6 hPa 0,0 mm 0,0 km/h (0 Bft) SO 145 ° 0 min 0,000 mm 0,0 UV-I 0 W/m² 11,0 °C 11,9 °C 0,0 km/h (0 Bft)
12.07.2019 05:46 11,8 °C 94 % 1012,6 hPa 0,0 mm 0,0 km/h (0 Bft) SO 145 ° 0 min 0,000 mm 0,0 UV-I 0 W/m² 10,9 °C 11,8 °C 0,0 km/h (0 Bft)
12.07.2019 05:47 11,9 °C 94 % 1012,6 hPa 0,0 mm 0,0 km/h (0 Bft) SO 145 ° 0 min 0,000 mm 0,0 UV-I 0 W/m² 11,0 °C 11,9 °C 0,0 km/h (0 Bft)
12.07.2019 05:48 11,9 °C 94 % 1012,6 hPa 0,0 mm 0,0 km/h (0 Bft) SO 145 ° 0 min 0,000 mm 0,0 UV-I 0 W/m² 11,0 °C 11,9 °C 0,0 km/h (0 Bft)
12.07.2019 05:49 11,9 °C 94 % 1012,6 hPa 0,0 mm 0,0 km/h (0 Bft) SO 145 ° 0 min 0,000 mm 0,0 UV-I 0 W/m² 11,0 °C 11,9 °C 0,0 km/h (0 Bft)
12.07.2019 05:50 11,8 °C 94 % 1012,6 hPa 0,0 mm 0,0 km/h (0 Bft) SO 145 ° 0 min 0,000 mm 0,0 UV-I 0 W/m² 10,9 °C 11,8 °C 0,0 km/h (0 Bft)
12.07.2019 05:51 11,8 °C 94 % 1012,6 hPa 0,0 mm 0,0 km/h (0 Bft) SO 145 ° 0 min 0,000 mm 0,0 UV-I 0 W/m² 10,9 °C 11,8 °C 0,0 km/h (0 Bft)
12.07.2019 05:52 11,8 °C 94 % 1012,6 hPa 0,0 mm 0,0 km/h (0 Bft) SO 145 ° 0 min 0,000 mm 0,0 UV-I 0 W/m² 10,9 °C 11,8 °C 0,0 km/h (0 Bft)
12.07.2019 05:53 11,9 °C 94 % 1012,7 hPa 0,0 mm 0,0 km/h (0 Bft) SO 145 ° 0 min 0,000 mm 0,0 UV-I 0 W/m² 11,0 °C 11,9 °C 0,0 km/h (0 Bft)
12.07.2019 05:54 11,8 °C 94 % 1012,7 hPa 0,0 mm 0,0 km/h (0 Bft) SO 145 ° 0 min 0,000 mm 0,0 UV-I 0 W/m² 10,9 °C 11,8 °C 0,0 km/h (0 Bft)
12.07.2019 05:55 11,9 °C 94 % 1012,7 hPa 0,0 mm 0,0 km/h (0 Bft) SO 145 ° 0 min 0,000 mm 0,0 UV-I 0 W/m² 11,0 °C 11,9 °C 0,0 km/h (0 Bft)
12.07.2019 05:56 11,9 °C 94 % 1012,7 hPa 0,0 mm 0,0 km/h (0 Bft) SO 145 ° 0 min 0,000 mm 0,0 UV-I 0 W/m² 11,0 °C 11,9 °C 0,0 km/h (0 Bft)
12.07.2019 05:57 11,9 °C 94 % 1012,6 hPa 0,0 mm 0,0 km/h (0 Bft) SO 145 ° 0 min 0,000 mm 0,0 UV-I 0 W/m² 11,0 °C 11,9 °C 0,0 km/h (0 Bft)
12.07.2019 05:58 11,9 °C 94 % 1012,7 hPa 0,0 mm 0,0 km/h (0 Bft) SO 145 ° 0 min 0,000 mm 0,0 UV-I 0 W/m² 11,0 °C 11,9 °C 0,0 km/h (0 Bft)
12.07.2019 05:59 11,8 °C 94 % 1012,7 hPa 0,0 mm 0,0 km/h (0 Bft) SO 145 ° 0 min 0,000 mm 0,0 UV-I 0 W/m² 10,9 °C 11,8 °C 0,0 km/h (0 Bft)
12.07.2019 06:00 11,9 °C 94 % 1012,7 hPa 0,0 mm 0,0 km/h (0 Bft) SO 145 ° 0 min 0,000 mm 0,0 UV-I 0 W/m² 11,0 °C 11,9 °C 0,0 km/h (0 Bft)
12.07.2019 06:01 11,9 °C 94 % 1012,7 hPa 0,0 mm 0,0 km/h (0 Bft) SO 145 ° 0 min 0,000 mm 0,0 UV-I 0 W/m² 11,0 °C 11,9 °C 0,0 km/h (0 Bft)
12.07.2019 06:02 11,9 °C 94 % 1012,7 hPa 0,0 mm 0,0 km/h (0 Bft) SO 145 ° 0 min 0,000 mm 0,0 UV-I 0 W/m² 11,0 °C 11,9 °C 0,0 km/h (0 Bft)
12.07.2019 06:03 11,9 °C 94 % 1012,7 hPa 0,0 mm 0,0 km/h (0 Bft) SO 145 ° 0 min 0,000 mm 0,0 UV-I 0 W/m² 11,0 °C 11,9 °C 0,0 km/h (0 Bft)
12.07.2019 06:04 11,9 °C 94 % 1012,7 hPa 0,0 mm 0,0 km/h (0 Bft) SO 145 ° 0 min 0,000 mm 0,0 UV-I 5 W/m² 11,0 °C 11,9 °C 0,0 km/h (0 Bft)
12.07.2019 06:05 12,0 °C 94 % 1012,7 hPa 0,0 mm 0,0 km/h (0 Bft) SO 145 ° 0 min 0,000 mm 0,0 UV-I 5 W/m² 11,1 °C 12,0 °C 0,0 km/h (0 Bft)
12.07.2019 06:06 12,0 °C 94 % 1012,7 hPa 0,0 mm 0,0 km/h (0 Bft) SO 145 ° 0 min 0,000 mm 0,0 UV-I 5 W/m² 11,1 °C 12,0 °C 0,0 km/h (0 Bft)
12.07.2019 06:07 11,9 °C 94 % 1012,7 hPa 0,0 mm 0,0 km/h (0 Bft) SO 145 ° 0 min 0,000 mm 0,0 UV-I 5 W/m² 11,0 °C 11,9 °C 0,0 km/h (0 Bft)
12.07.2019 06:08 11,9 °C 94 % 1012,7 hPa 0,0 mm 0,0 km/h (0 Bft) SO 145 ° 0 min 0,000 mm 0,0 UV-I 5 W/m² 11,0 °C 11,9 °C 0,0 km/h (0 Bft)
12.07.2019 06:09 11,9 °C 94 % 1012,7 hPa 0,0 mm 0,0 km/h (0 Bft) SO 145 ° 0 min 0,000 mm 0,0 UV-I 7 W/m² 11,0 °C 11,9 °C 0,0 km/h (0 Bft)
12.07.2019 06:10 12,0 °C 94 % 1012,7 hPa 0,0 mm 0,0 km/h (0 Bft) SO 145 ° 0 min 0,000 mm 0,0 UV-I 7 W/m² 11,1 °C 12,0 °C 0,0 km/h (0 Bft)
12.07.2019 06:11 12,1 °C 94 % 1012,7 hPa 0,0 mm 0,0 km/h (0 Bft) SO 145 ° 0 min 0,000 mm 0,0 UV-I 9 W/m² 11,2 °C 12,1 °C 0,0 km/h (0 Bft)
12.07.2019 06:12 12,1 °C 94 % 1012,7 hPa 0,0 mm 0,0 km/h (0 Bft) SO 145 ° 0 min 0,000 mm 0,0 UV-I 9 W/m² 11,2 °C 12,1 °C 0,0 km/h (0 Bft)
12.07.2019 06:13 12,1 °C 94 % 1012,7 hPa 0,0 mm 0,0 km/h (0 Bft) SO 145 ° 0 min 0,000 mm 0,0 UV-I 9 W/m² 11,2 °C 12,1 °C 0,0 km/h (0 Bft)
12.07.2019 06:14 12,0 °C 94 % 1012,7 hPa 0,0 mm 0,0 km/h (0 Bft) SO 145 ° 0 min 0,000 mm 0,0 UV-I 11 W/m² 11,1 °C 12,0 °C 0,0 km/h (0 Bft)
12.07.2019 06:15 11,9 °C 94 % 1012,7 hPa 0,0 mm 0,0 km/h (0 Bft) SO 145 ° 0 min 0,000 mm 0,0 UV-I 11 W/m² 11,0 °C 11,9 °C 0,0 km/h (0 Bft)
12.07.2019 06:16 11,9 °C 94 % 1012,7 hPa 0,0 mm 0,0 km/h (0 Bft) SO 145 ° 0 min 0,000 mm 0,0 UV-I 11 W/m² 11,0 °C 11,9 °C 0,0 km/h (0 Bft)
12.07.2019 06:17 11,9 °C 94 % 1012,8 hPa 0,0 mm 0,0 km/h (0 Bft) SO 145 ° 0 min 0,000 mm 0,0 UV-I 11 W/m² 11,0 °C 11,9 °C 0,0 km/h (0 Bft)
12.07.2019 06:18 11,9 °C 94 % 1012,8 hPa 0,0 mm 0,0 km/h (0 Bft) SO 145 ° 0 min 0,000 mm 0,0 UV-I 11 W/m² 11,0 °C 11,9 °C 0,0 km/h (0 Bft)
12.07.2019 06:19 11,9 °C 94 % 1012,8 hPa 0,0 mm 0,0 km/h (0 Bft) SO 145 ° 0 min 0,000 mm 0,0 UV-I 11 W/m² 11,0 °C 11,9 °C 0,0 km/h (0 Bft)
12.07.2019 06:20 11,9 °C 94 % 1012,7 hPa 0,0 mm 0,0 km/h (0 Bft) SO 145 ° 0 min 0,000 mm 0,0 UV-I 11 W/m² 11,0 °C 11,9 °C 0,0 km/h (0 Bft)
12.07.2019 06:21 11,9 °C 94 % 1012,7 hPa 0,0 mm 0,0 km/h (0 Bft) SO 145 ° 0 min 0,000 mm 0,0 UV-I 11 W/m² 11,0 °C 11,9 °C 0,0 km/h (0 Bft)
12.07.2019 06:22 11,9 °C 94 % 1012,8 hPa 0,0 mm 0,0 km/h (0 Bft) SO 145 ° 0 min 0,000 mm 0,0 UV-I 11 W/m² 11,0 °C 11,9 °C 0,0 km/h (0 Bft)
12.07.2019 06:23 11,9 °C 94 % 1012,7 hPa 0,0 mm 0,0 km/h (0 Bft) SO 145 ° 0 min 0,000 mm 0,0 UV-I 12 W/m² 11,0 °C 11,9 °C 0,0 km/h (0 Bft)
12.07.2019 06:24 11,9 °C 94 % 1012,7 hPa 0,0 mm 0,0 km/h (0 Bft) SO 145 ° 0 min 0,000 mm 0,0 UV-I 12 W/m² 11,0 °C 11,9 °C 0,0 km/h (0 Bft)
12.07.2019 06:25 11,9 °C 94 % 1012,7 hPa 0,0 mm 0,0 km/h (0 Bft) SO 145 ° 0 min 0,000 mm 0,0 UV-I 11 W/m² 11,0 °C 11,9 °C 0,0 km/h (0 Bft)
12.07.2019 06:26 11,9 °C 94 % 1012,8 hPa 0,0 mm 0,0 km/h (0 Bft) SO 145 ° 0 min 0,000 mm 0,0 UV-I 11 W/m² 11,0 °C 11,9 °C 0,0 km/h (0 Bft)
12.07.2019 06:27 11,9 °C 94 % 1012,7 hPa 0,0 mm 0,0 km/h (0 Bft) SO 145 ° 0 min 0,000 mm 0,0 UV-I 11 W/m² 11,0 °C 11,9 °C 0,0 km/h (0 Bft)
12.07.2019 06:28 11,9 °C 94 % 1012,7 hPa 0,0 mm 0,0 km/h (0 Bft) SO 145 ° 0 min 0,000 mm 0,0 UV-I 11 W/m² 11,0 °C 11,9 °C 0,0 km/h (0 Bft)
12.07.2019 06:29 11,9 °C 94 % 1012,7 hPa 0,0 mm 0,0 km/h (0 Bft) SO 145 ° 0 min 0,000 mm 0,0 UV-I 11 W/m² 11,0 °C 11,9 °C 0,0 km/h (0 Bft)
12.07.2019 06:30 11,9 °C 94 % 1012,7 hPa 0,0 mm 0,0 km/h (0 Bft) SO 145 ° 0 min 0,000 mm 0,0 UV-I 11 W/m² 11,0 °C 11,9 °C 0,0 km/h (0 Bft)
12.07.2019 06:31 11,9 °C 94 % 1012,7 hPa 0,0 mm 0,0 km/h (0 Bft) SO 145 ° 0 min 0,000 mm 0,0 UV-I 12 W/m² 11,0 °C 11,9 °C 0,0 km/h (0 Bft)
12.07.2019 06:32 11,9 °C 94 % 1012,7 hPa 0,0 mm 0,0 km/h (0 Bft) SO 145 ° 0 min 0,000 mm 0,0 UV-I 12 W/m² 11,0 °C 11,9 °C 0,0 km/h (0 Bft)
12.07.2019 06:33 11,9 °C 94 % 1012,8 hPa 0,0 mm 0,0 km/h (0 Bft) SO 145 ° 0 min 0,000 mm 0,0 UV-I 12 W/m² 11,0 °C 11,9 °C 0,0 km/h (0 Bft)
12.07.2019 06:34 11,9 °C 94 % 1012,7 hPa 0,0 mm 0,0 km/h (0 Bft) SO 145 ° 0 min 0,000 mm 0,0 UV-I 12 W/m² 11,0 °C 11,9 °C 0,0 km/h (0 Bft)
12.07.2019 06:35 11,9 °C 94 % 1012,7 hPa 0,0 mm 0,0 km/h (0 Bft) SO 145 ° 0 min 0,000 mm 0,0 UV-I 14 W/m² 11,0 °C 11,9 °C 0,0 km/h (0 Bft)
12.07.2019 06:36 11,9 °C 94 % 1012,8 hPa 0,0 mm 0,0 km/h (0 Bft) SO 145 ° 0 min 0,000 mm 0,0 UV-I 16 W/m² 11,0 °C 11,9 °C 0,0 km/h (0 Bft)
12.07.2019 06:37 11,9 °C 94 % 1012,7 hPa 0,0 mm 0,0 km/h (0 Bft) SO 145 ° 0 min 0,000 mm 0,0 UV-I 18 W/m² 11,0 °C 11,9 °C 0,0 km/h (0 Bft)
12.07.2019 06:38 11,9 °C 94 % 1012,7 hPa 0,0 mm 0,0 km/h (0 Bft) SO 145 ° 0 min 0,000 mm 0,0 UV-I 19 W/m² 11,0 °C 11,9 °C 0,0 km/h (0 Bft)
12.07.2019 06:39 11,9 °C 94 % 1012,7 hPa 0,0 mm 0,0 km/h (0 Bft) SO 145 ° 0 min 0,000 mm 0,0 UV-I 19 W/m² 11,0 °C 11,9 °C 0,0 km/h (0 Bft)
12.07.2019 06:40 11,9 °C 94 % 1012,7 hPa 0,0 mm 0,0 km/h (0 Bft) SO 145 ° 0 min 0,000 mm 0,0 UV-I 19 W/m² 11,0 °C 11,9 °C 0,0 km/h (0 Bft)
12.07.2019 06:41 11,9 °C 94 % 1012,8 hPa 0,0 mm 0,0 km/h (0 Bft) SO 145 ° 0 min 0,000 mm 0,0 UV-I 16 W/m² 11,0 °C 11,9 °C 0,0 km/h (0 Bft)
12.07.2019 06:42 12,0 °C 94 % 1012,7 hPa 0,0 mm 0,0 km/h (0 Bft) SO 145 ° 0 min 0,000 mm 0,0 UV-I 14 W/m² 11,1 °C 12,0 °C 0,0 km/h (0 Bft)
12.07.2019 06:43 12,0 °C 94 % 1012,7 hPa 0,0 mm 0,0 km/h (0 Bft) SO 145 ° 0 min 0,000 mm 0,0 UV-I 14 W/m² 11,1 °C 12,0 °C 0,0 km/h (0 Bft)
12.07.2019 06:44 12,0 °C 94 % 1012,8 hPa 0,0 mm 0,0 km/h (0 Bft) SO 145 ° 0 min 0,000 mm 0,0 UV-I 12 W/m² 11,1 °C 12,0 °C 0,0 km/h (0 Bft)
12.07.2019 06:45 12,0 °C 94 % 1012,7 hPa 0,0 mm 0,0 km/h (0 Bft) SO 145 ° 0 min 0,000 mm 0,0 UV-I 12 W/m² 11,1 °C 12,0 °C 0,0 km/h (0 Bft)
12.07.2019 06:46 12,0 °C 94 % 1012,8 hPa 0,0 mm 0,0 km/h (0 Bft) SO 145 ° 0 min 0,000 mm 0,0 UV-I 12 W/m² 11,1 °C 12,0 °C 0,0 km/h (0 Bft)
12.07.2019 06:47 12,1 °C 94 % 1012,7 hPa 0,0 mm 0,0 km/h (0 Bft) SO 145 ° 0 min 0,000 mm 0,0 UV-I 14 W/m² 11,2 °C 12,1 °C 0,0 km/h (0 Bft)
12.07.2019 06:48 12,0 °C 94 % 1012,8 hPa 0,0 mm 0,0 km/h (0 Bft) SO 145 ° 0 min 0,000 mm 0,0 UV-I 14 W/m² 11,1 °C 12,0 °C 0,0 km/h (0 Bft)
12.07.2019 06:49 12,0 °C 94 % 1012,7 hPa 0,0 mm 0,0 km/h (0 Bft) SO 145 ° 0 min 0,000 mm 0,0 UV-I 12 W/m² 11,1 °C 12,0 °C 0,0 km/h (0 Bft)
12.07.2019 06:50 12,0 °C 94 % 1012,8 hPa 0,0 mm 0,0 km/h (0 Bft) SO 145 ° 0 min 0,000 mm 0,0 UV-I 12 W/m² 11,1 °C 12,0 °C 0,0 km/h (0 Bft)
12.07.2019 06:51 12,0 °C 94 % 1012,8 hPa 0,0 mm 0,0 km/h (0 Bft) SO 145 ° 0 min 0,000 mm 0,0 UV-I 11 W/m² 11,1 °C 12,0 °C 0,0 km/h (0 Bft)
12.07.2019 06:52 12,1 °C 94 % 1012,8 hPa 0,0 mm 0,0 km/h (0 Bft) SO 145 ° 0 min 0,000 mm 0,0 UV-I 12 W/m² 11,2 °C 12,1 °C 0,0 km/h (0 Bft)
12.07.2019 06:53 12,1 °C 94 % 1012,8 hPa 0,0 mm 0,0 km/h (0 Bft) SO 145 ° 0 min 0,000 mm 0,0 UV-I 12 W/m² 11,2 °C 12,1 °C 0,0 km/h (0 Bft)
12.07.2019 06:54 12,1 °C 94 % 1012,8 hPa 0,0 mm 0,0 km/h (0 Bft) SO 145 ° 0 min 0,000 mm 0,0 UV-I 12 W/m² 11,2 °C 12,1 °C 0,0 km/h (0 Bft)
12.07.2019 06:55 12,1 °C 94 % 1012,8 hPa 0,0 mm 0,0 km/h (0 Bft) SO 145 ° 0 min 0,000 mm 0,0 UV-I 12 W/m² 11,2 °C 12,1 °C 0,0 km/h (0 Bft)
12.07.2019 06:56 12,1 °C 94 % 1012,8 hPa 0,0 mm 0,0 km/h (0 Bft) SO 145 ° 0 min 0,000 mm 0,0 UV-I 14 W/m² 11,2 °C 12,1 °C 0,0 km/h (0 Bft)
12.07.2019 06:57 12,1 °C 94 % 1012,8 hPa 0,0 mm 0,0 km/h (0 Bft) SO 145 ° 0 min 0,000 mm 0,0 UV-I 14 W/m² 11,2 °C 12,1 °C 0,0 km/h (0 Bft)
12.07.2019 06:58 12,1 °C 94 % 1012,7 hPa 0,0 mm 0,0 km/h (0 Bft) SO 145 ° 0 min 0,000 mm 0,0 UV-I 18 W/m² 11,2 °C 12,1 °C 0,0 km/h (0 Bft)
12.07.2019 06:59 12,1 °C 94 % 1012,8 hPa 0,0 mm 0,0 km/h (0 Bft) SO 145 ° 0 min 0,000 mm 0,0 UV-I 19 W/m² 11,2 °C 12,1 °C 0,0 km/h (0 Bft)
12.07.2019 07:00 12,1 °C 94 % 1012,8 hPa 0,0 mm 0,0 km/h (0 Bft) SO 145 ° 0 min 0,000 mm 0,0 UV-I 21 W/m² 11,2 °C 12,1 °C 0,0 km/h (0 Bft)
12.07.2019 07:01 12,1 °C 94 % 1012,8 hPa 0,0 mm 0,0 km/h (0 Bft) SO 145 ° 0 min 0,000 mm 0,0 UV-I 23 W/m² 11,2 °C 12,1 °C 0,0 km/h (0 Bft)
12.07.2019 07:02 12,1 °C 94 % 1012,7 hPa 0,0 mm 0,0 km/h (0 Bft) SO 145 ° 0 min 0,000 mm 0,0 UV-I 25 W/m² 11,2 °C 12,1 °C 0,0 km/h (0 Bft)
12.07.2019 07:03 12,2 °C 94 % 1012,7 hPa 0,0 mm 0,0 km/h (0 Bft) SO 145 ° 0 min 0,000 mm 0,0 UV-I 26 W/m² 11,3 °C 12,2 °C 0,0 km/h (0 Bft)
12.07.2019 07:04 12,2 °C 94 % 1012,8 hPa 0,0 mm 0,0 km/h (0 Bft) SO 145 ° 0 min 0,000 mm 0,0 UV-I 28 W/m² 11,3 °C 12,2 °C 0,0 km/h (0 Bft)
12.07.2019 07:05 12,2 °C 94 % 1012,7 hPa 0,0 mm 0,0 km/h (0 Bft) SO 145 ° 0 min 0,000 mm 0,0 UV-I 30 W/m² 11,3 °C 12,2 °C 0,0 km/h (0 Bft)
12.07.2019 07:06 12,2 °C 94 % 1012,8 hPa 0,0 mm 0,0 km/h (0 Bft) SO 145 ° 0 min 0,000 mm 0,0 UV-I 30 W/m² 11,3 °C 12,2 °C 0,0 km/h (0 Bft)
12.07.2019 07:07 12,2 °C 94 % 1012,8 hPa 0,0 mm 0,0 km/h (0 Bft) SO 145 ° 0 min 0,000 mm 0,0 UV-I 30 W/m² 11,3 °C 12,2 °C 0,0 km/h (0 Bft)
12.07.2019 07:08 12,2 °C 94 % 1012,8 hPa 0,0 mm 2,0 km/h (1 Bft) SO 144 ° 0 min 0,000 mm 0,0 UV-I 28 W/m² 11,3 °C 12,2 °C 4,8 km/h (1 Bft)
12.07.2019 07:09 12,2 °C 94 % 1012,8 hPa 0,0 mm 0,4 km/h (0 Bft) SO 144 ° 0 min 0,000 mm 0,0 UV-I 28 W/m² 11,3 °C 12,2 °C 3,2 km/h (1 Bft)
12.07.2019 07:10 12,2 °C 94 % 1012,8 hPa 0,0 mm 0,0 km/h (0 Bft) SO 144 ° 0 min 0,000 mm 0,0 UV-I 26 W/m² 11,3 °C 12,2 °C 0,0 km/h (0 Bft)
12.07.2019 07:11 12,2 °C 94 % 1012,8 hPa 0,0 mm 0,0 km/h (0 Bft) SO 144 ° 0 min 0,000 mm 0,0 UV-I 26 W/m² 11,3 °C 12,2 °C 0,0 km/h (0 Bft)
12.07.2019 07:12 12,3 °C 94 % 1012,8 hPa 0,0 mm 0,0 km/h (0 Bft) SO 144 ° 0 min 0,000 mm 0,0 UV-I 26 W/m² 11,4 °C 12,3 °C 0,0 km/h (0 Bft)
12.07.2019 07:13 12,3 °C 94 % 1012,8 hPa 0,0 mm 0,9 km/h (0 Bft) W-SW 251 ° 0 min 0,000 mm 0,0 UV-I 26 W/m² 11,4 °C 12,3 °C 3,2 km/h (1 Bft)
12.07.2019 07:14 12,3 °C 94 % 1012,9 hPa 0,0 mm 2,8 km/h (1 Bft) W-SW 252 ° 0 min 0,000 mm 0,0 UV-I 26 W/m² 11,4 °C 12,3 °C 4,8 km/h (1 Bft)
12.07.2019 07:15 12,4 °C 94 % 1012,9 hPa 0,0 mm 1,7 km/h (1 Bft) W 269 ° 0 min 0,000 mm 0,0 UV-I 25 W/m² 11,5 °C 12,4 °C 4,8 km/h (1 Bft)
12.07.2019 07:16 12,4 °C 93 % 1013,0 hPa 0,0 mm 1,5 km/h (1 Bft) W 269 ° 0 min 0,000 mm 0,0 UV-I 21 W/m² 11,3 °C 12,4 °C 3,2 km/h (1 Bft)
12.07.2019 07:17 12,5 °C 93 % 1013,0 hPa 0,0 mm 0,0 km/h (0 Bft) W 269 ° 0 min 0,000 mm 0,0 UV-I 21 W/m² 11,4 °C 12,5 °C 0,0 km/h (0 Bft)
12.07.2019 07:18 12,6 °C 93 % 1013,0 hPa 0,0 mm 0,0 km/h (0 Bft) W 269 ° 0 min 0,000 mm 0,0 UV-I 21 W/m² 11,5 °C 12,6 °C 0,0 km/h (0 Bft)
12.07.2019 07:19 12,6 °C 93 % 1013,0 hPa 0,0 mm 1,0 km/h (0 Bft) S-SW 200 ° 0 min 0,000 mm 0,0 UV-I 21 W/m² 11,5 °C 12,6 °C 3,2 km/h (1 Bft)
12.07.2019 07:20 12,6 °C 93 % 1013,0 hPa 0,0 mm 0,1 km/h (0 Bft) S-SW 197 ° 0 min 0,000 mm 0,0 UV-I 19 W/m² 11,5 °C 12,6 °C 1,6 km/h (1 Bft)
12.07.2019 07:21 12,6 °C 93 % 1013,0 hPa 0,0 mm 0,4 km/h (0 Bft) S-SW 197 ° 0 min 0,000 mm 0,0 UV-I 19 W/m² 11,5 °C 12,6 °C 1,6 km/h (1 Bft)
12.07.2019 07:22 12,6 °C 93 % 1013,1 hPa 0,0 mm 0,0 km/h (0 Bft) S-SW 197 ° 0 min 0,000 mm 0,0 UV-I 21 W/m² 11,5 °C 12,6 °C 0,0 km/h (0 Bft)
12.07.2019 07:23 12,6 °C 93 % 1013,1 hPa 0,0 mm 0,0 km/h (0 Bft) S-SW 197 ° 0 min 0,000 mm 0,0 UV-I 21 W/m² 11,5 °C 12,6 °C 0,0 km/h (0 Bft)
12.07.2019 07:24 12,6 °C 92 % 1013,1 hPa 0,2 mm 0,4 km/h (0 Bft) S-SW 198 ° 0 min 0,000 mm 0,0 UV-I 21 W/m² 11,3 °C 12,6 °C 1,6 km/h (1 Bft)
12.07.2019 07:25 12,6 °C 92 % 1013,1 hPa 0,0 mm 0,6 km/h (0 Bft) S-SW 198 ° 0 min 0,000 mm 0,0 UV-I 21 W/m² 11,3 °C 12,6 °C 1,6 km/h (1 Bft)
12.07.2019 07:26 12,7 °C 92 % 1013,1 hPa 0,0 mm 0,0 km/h (0 Bft) S-SW 198 ° 0 min 0,000 mm 0,0 UV-I 21 W/m² 11,4 °C 12,7 °C 0,0 km/h (0 Bft)
12.07.2019 07:27 12,7 °C 92 % 1013,1 hPa 0,0 mm 0,0 km/h (0 Bft) S-SW 198 ° 0 min 0,000 mm 0,0 UV-I 23 W/m² 11,4 °C 12,7 °C 0,0 km/h (0 Bft)
12.07.2019 07:28 12,6 °C 92 % 1013,1 hPa 0,0 mm 0,0 km/h (0 Bft) S-SW 198 ° 0 min 0,000 mm 0,0 UV-I 23 W/m² 11,3 °C 12,6 °C 0,0 km/h (0 Bft)
12.07.2019 07:29 12,6 °C 93 % 1013,1 hPa 0,0 mm 0,0 km/h (0 Bft) S-SW 198 ° 0 min 0,000 mm 0,0 UV-I 23 W/m² 11,5 °C 12,6 °C 0,0 km/h (0 Bft)
12.07.2019 07:30 12,6 °C 93 % 1013,1 hPa 0,0 mm 0,0 km/h (0 Bft) S-SW 198 ° 0 min 0,000 mm 0,0 UV-I 23 W/m² 11,5 °C 12,6 °C 0,0 km/h (0 Bft)
12.07.2019 07:31 12,5 °C 93 % 1013,0 hPa 0,2 mm 1,0 km/h (0 Bft) S-SO 147 ° 0 min 0,000 mm 0,0 UV-I 23 W/m² 11,4 °C 12,5 °C 3,2 km/h (1 Bft)
12.07.2019 07:32 12,4 °C 93 % 1013,0 hPa 0,0 mm 1,0 km/h (0 Bft) S-SO 147 ° 0 min 0,000 mm 0,0 UV-I 23 W/m² 11,3 °C 12,4 °C 1,6 km/h (1 Bft)
12.07.2019 07:33 12,4 °C 93 % 1013,0 hPa 0,0 mm 1,4 km/h (1 Bft) S-SO 147 ° 0 min 0,000 mm 0,0 UV-I 21 W/m² 11,3 °C 12,4 °C 3,2 km/h (1 Bft)
12.07.2019 07:34 12,4 °C 93 % 1013,0 hPa 0,0 mm 2,6 km/h (1 Bft) S 182 ° 0 min 0,000 mm 0,0 UV-I 21 W/m² 11,3 °C 12,4 °C 4,8 km/h (1 Bft)
12.07.2019 07:35 12,4 °C 93 % 1013,1 hPa 0,0 mm 2,5 km/h (1 Bft) S 188 ° 0 min 0,000 mm 0,0 UV-I 21 W/m² 11,3 °C 12,4 °C 6,4 km/h (2 Bft)
12.07.2019 07:36 12,4 °C 93 % 1013,1 hPa 0,0 mm 0,6 km/h (0 Bft) S 187 ° 0 min 0,000 mm 0,0 UV-I 21 W/m² 11,3 °C 12,4 °C 3,2 km/h (1 Bft)
12.07.2019 07:37 12,3 °C 93 % 1013,0 hPa 0,0 mm 0,0 km/h (0 Bft) S 187 ° 0 min 0,000 mm 0,0 UV-I 21 W/m² 11,2 °C 12,3 °C 0,0 km/h (0 Bft)
12.07.2019 07:38 12,3 °C 93 % 1013,0 hPa 0,2 mm 0,0 km/h (0 Bft) S 187 ° 0 min 0,000 mm 0,0 UV-I 21 W/m² 11,2 °C 12,3 °C 0,0 km/h (0 Bft)
12.07.2019 07:39 12,3 °C 93 % 1013,0 hPa 0,0 mm 0,3 km/h (0 Bft) S 187 ° 0 min 0,000 mm 0,0 UV-I 23 W/m² 11,2 °C 12,3 °C 3,2 km/h (1 Bft)
12.07.2019 07:40 12,3 °C 93 % 1013,0 hPa 0,0 mm 3,6 km/h (1 Bft) S-SO 159 ° 0 min 0,000 mm 0,0 UV-I 26 W/m² 11,2 °C 12,3 °C 6,4 km/h (2 Bft)
12.07.2019 07:41 12,3 °C 93 % 1013,0 hPa 0,2 mm 2,0 km/h (1 Bft) O-SO 120 ° 0 min 0,000 mm 0,0 UV-I 28 W/m² 11,2 °C 12,3 °C 3,2 km/h (1 Bft)
12.07.2019 07:42 12,3 °C 93 % 1012,9 hPa 0,0 mm 3,8 km/h (1 Bft) O-SO 120 ° 0 min 0,000 mm 0,0 UV-I 30 W/m² 11,2 °C 12,3 °C 4,8 km/h (1 Bft)
12.07.2019 07:43 12,3 °C 93 % 1012,9 hPa 0,0 mm 2,7 km/h (1 Bft) O-SO 120 ° 0 min 0,000 mm 0,0 UV-I 32 W/m² 11,2 °C 12,3 °C 4,8 km/h (1 Bft)
12.07.2019 07:44 12,3 °C 93 % 1012,9 hPa 0,0 mm 1,8 km/h (1 Bft) O-SO 120 ° 0 min 0,000 mm 0,0 UV-I 33 W/m² 11,2 °C 12,3 °C 3,2 km/h (1 Bft)
12.07.2019 07:45 12,2 °C 93 % 1012,9 hPa 0,0 mm 1,8 km/h (1 Bft) O-SO 120 ° 0 min 0,000 mm 0,0 UV-I 35 W/m² 11,1 °C 12,2 °C 3,2 km/h (1 Bft)
12.07.2019 07:46 12,2 °C 94 % 1012,9 hPa 0,0 mm 0,0 km/h (0 Bft) O-SO 120 ° 0 min 0,000 mm 0,0 UV-I 35 W/m² 11,3 °C 12,2 °C 0,0 km/h (0 Bft)
12.07.2019 07:47 12,3 °C 94 % 1013,0 hPa 0,0 mm 2,1 km/h (1 Bft) W-SW 251 ° 0 min 0,000 mm 0,0 UV-I 35 W/m² 11,4 °C 12,3 °C 6,4 km/h (2 Bft)
12.07.2019 07:48 12,3 °C 94 % 1012,9 hPa 0,0 mm 1,1 km/h (1 Bft) W-SW 250 ° 0 min 0,000 mm 0,0 UV-I 35 W/m² 11,4 °C 12,3 °C 3,2 km/h (1 Bft)
12.07.2019 07:49 12,3 °C 94 % 1013,0 hPa 0,0 mm 0,3 km/h (0 Bft) W-SW 250 ° 0 min 0,000 mm 0,0 UV-I 33 W/m² 11,4 °C 12,3 °C 1,6 km/h (1 Bft)
12.07.2019 07:50 12,3 °C 94 % 1012,9 hPa 0,0 mm 2,2 km/h (1 Bft) W-SW 250 ° 0 min 0,000 mm 0,0 UV-I 33 W/m² 11,4 °C 12,3 °C 3,2 km/h (1 Bft)
12.07.2019 07:51 12,3 °C 94 % 1012,9 hPa 0,0 mm 1,7 km/h (1 Bft) W-SW 250 ° 0 min 0,000 mm 0,0 UV-I 35 W/m² 11,4 °C 12,3 °C 3,2 km/h (1 Bft)
12.07.2019 07:52 12,3 °C 94 % 1012,9 hPa 0,0 mm 2,3 km/h (1 Bft) W-SW 250 ° 0 min 0,000 mm 0,0 UV-I 37 W/m² 11,4 °C 12,3 °C 3,2 km/h (1 Bft)
12.07.2019 07:53 12,3 °C 94 % 1012,9 hPa 0,0 mm 0,0 km/h (0 Bft) W-SW 250 ° 0 min 0,000 mm 0,0 UV-I 39 W/m² 11,4 °C 12,3 °C 0,0 km/h (0 Bft)
12.07.2019 07:54 12,3 °C 94 % 1012,9 hPa 0,0 mm 0,0 km/h (0 Bft) W-SW 250 ° 0 min 0,000 mm 0,0 UV-I 42 W/m² 11,4 °C 12,3 °C 0,0 km/h (0 Bft)
12.07.2019 07:55 12,3 °C 94 % 1012,9 hPa 0,0 mm 0,0 km/h (0 Bft) W-SW 250 ° 0 min 0,000 mm 0,0 UV-I 46 W/m² 11,4 °C 12,3 °C 0,0 km/h (0 Bft)
12.07.2019 07:56 12,3 °C 94 % 1012,9 hPa 0,0 mm 0,0 km/h (0 Bft) W-SW 250 ° 0 min 0,000 mm 0,0 UV-I 46 W/m² 11,4 °C 12,3 °C 0,0 km/h (0 Bft)
12.07.2019 07:57 12,3 °C 94 % 1013,0 hPa 0,2 mm 0,0 km/h (0 Bft) W-SW 250 ° 0 min 0,000 mm 0,0 UV-I 44 W/m² 11,4 °C 12,3 °C 0,0 km/h (0 Bft)
12.07.2019 07:58 12,4 °C 94 % 1013,0 hPa 0,0 mm 0,0 km/h (0 Bft) W-SW 250 ° 0 min 0,000 mm 0,0 UV-I 39 W/m² 11,5 °C 12,4 °C 0,0 km/h (0 Bft)
12.07.2019 07:59 12,4 °C 94 % 1013,0 hPa 0,0 mm 0,0 km/h (0 Bft) W-SW 250 ° 0 min 0,000 mm 0,0 UV-I 33 W/m² 11,5 °C 12,4 °C 0,0 km/h (0 Bft)
12.07.2019 08:00 12,4 °C 94 % 1013,0 hPa 0,0 mm 0,0 km/h (0 Bft) W-SW 250 ° 0 min 0,000 mm 0,0 UV-I 30 W/m² 11,5 °C 12,4 °C 0,0 km/h (0 Bft)
12.07.2019 08:01 12,4 °C 94 % 1013,0 hPa 0,0 mm 0,0 km/h (0 Bft) W-SW 250 ° 0 min 0,025 mm 0,0 UV-I 26 W/m² 11,5 °C 12,4 °C 0,0 km/h (0 Bft)
12.07.2019 08:02 12,3 °C 94 % 1013,1 hPa 0,0 mm 0,6 km/h (0 Bft) W-SW 250 ° 0 min 0,000 mm 0,0 UV-I 25 W/m² 11,4 °C 12,3 °C 3,2 km/h (1 Bft)
12.07.2019 08:03 12,3 °C 94 % 1013,1 hPa 0,0 mm 0,2 km/h (0 Bft) W-SW 250 ° 0 min 0,000 mm 0,0 UV-I 23 W/m² 11,4 °C 12,3 °C 1,6 km/h (1 Bft)
12.07.2019 08:04 12,3 °C 94 % 1013,1 hPa 0,0 mm 0,0 km/h (0 Bft) W-SW 250 ° 0 min 0,000 mm 0,0 UV-I 25 W/m² 11,4 °C 12,3 °C 0,0 km/h (0 Bft)
12.07.2019 08:05 12,3 °C 94 % 1013,1 hPa 0,0 mm 0,0 km/h (0 Bft) W-SW 250 ° 0 min 0,000 mm 0,0 UV-I 26 W/m² 11,4 °C 12,3 °C 0,0 km/h (0 Bft)
12.07.2019 08:06 12,3 °C 94 % 1013,0 hPa 0,0 mm 0,3 km/h (0 Bft) W-SW 250 ° 0 min 0,000 mm 0,0 UV-I 26 W/m² 11,4 °C 12,3 °C 1,6 km/h (1 Bft)
12.07.2019 08:07 12,3 °C 94 % 1013,1 hPa 0,2 mm 5,2 km/h (1 Bft) S-SW 211 ° 0 min 0,000 mm 0,0 UV-I 26 W/m² 11,4 °C 12,3 °C 12,9 km/h (3 Bft)
12.07.2019 08:08 12,3 °C 94 % 1013,1 hPa 0,0 mm 12,4 km/h (3 Bft) S 181 ° 0 min 0,000 mm 0,0 UV-I 28 W/m² 11,4 °C 12,3 °C 16,1 km/h (3 Bft)
12.07.2019 08:09 12,3 °C 94 % 1013,1 hPa 0,2 mm 5,3 km/h (1 Bft) W-NW 286 ° 0 min 0,000 mm 0,0 UV-I 30 W/m² 11,4 °C 12,3 °C 12,9 km/h (3 Bft)
12.07.2019 08:10 12,3 °C 94 % 1013,0 hPa 0,0 mm 3,0 km/h (1 Bft) W 268 ° 0 min 0,000 mm 0,0 UV-I 32 W/m² 11,4 °C 12,3 °C 4,8 km/h (1 Bft)
12.07.2019 08:11 12,4 °C 94 % 1013,0 hPa 0,2 mm 0,3 km/h (0 Bft) W 268 ° 0 min 0,000 mm 0,0 UV-I 33 W/m² 11,5 °C 12,4 °C 1,6 km/h (1 Bft)
12.07.2019 08:12 12,4 °C 94 % 1013,0 hPa 0,0 mm 0,0 km/h (0 Bft) W 268 ° 0 min 0,000 mm 0,0 UV-I 37 W/m² 11,5 °C 12,4 °C 0,0 km/h (0 Bft)
12.07.2019 08:13 12,4 °C 94 % 1013,0 hPa 0,0 mm 7,0 km/h (2 Bft) SO 146 ° 0 min 0,000 mm 0,0 UV-I 42 W/m² 11,5 °C 12,4 °C 11,3 km/h (2 Bft)
12.07.2019 08:14 12,4 °C 94 % 1012,9 hPa 0,2 mm 3,2 km/h (1 Bft) S-SO 156 ° 0 min 0,000 mm 0,0 UV-I 53 W/m² 11,5 °C 12,4 °C 8,0 km/h (2 Bft)
12.07.2019 08:15 12,4 °C 94 % 1012,9 hPa 0,0 mm 1,3 km/h (1 Bft) S-SO 156 ° 0 min 0,000 mm 0,0 UV-I 53 W/m² 11,5 °C 12,4 °C 3,2 km/h (1 Bft)
12.07.2019 08:16 12,4 °C 94 % 1012,8 hPa 0,2 mm 1,1 km/h (1 Bft) S-SO 156 ° 0 min 0,000 mm 0,5 UV-I 63 W/m² 11,5 °C 12,4 °C 3,2 km/h (1 Bft)
12.07.2019 08:17 12,4 °C 94 % 1012,8 hPa 0,0 mm 0,0 km/h (0 Bft) S-SO 156 ° 0 min 0,000 mm 0,6 UV-I 70 W/m² 11,5 °C 12,4 °C 0,0 km/h (0 Bft)
12.07.2019 08:18 12,4 °C 94 % 1012,8 hPa 0,0 mm 0,0 km/h (0 Bft) S-SO 156 ° 0 min 0,000 mm 0,6 UV-I 77 W/m² 11,5 °C 12,4 °C 0,0 km/h (0 Bft)
12.07.2019 08:19 12,4 °C 94 % 1012,8 hPa 0,0 mm 0,5 km/h (0 Bft) O-SO 120 ° 0 min 0,000 mm 0,6 UV-I 83 W/m² 11,5 °C 12,4 °C 1,6 km/h (1 Bft)
12.07.2019 08:20 12,4 °C 94 % 1012,8 hPa 0,2 mm 0,3 km/h (0 Bft) O-SO 120 ° 0 min 0,000 mm 0,6 UV-I 83 W/m² 11,5 °C 12,4 °C 1,6 km/h (1 Bft)
12.07.2019 08:21 12,4 °C 94 % 1012,9 hPa 0,0 mm 0,3 km/h (0 Bft) O-SO 120 ° 0 min 0,000 mm 0,5 UV-I 79 W/m² 11,5 °C 12,4 °C 1,6 km/h (1 Bft)
12.07.2019 08:22 12,4 °C 94 % 1012,9 hPa 0,0 mm 0,1 km/h (0 Bft) O-SO 120 ° 0 min 0,000 mm 0,5 UV-I 72 W/m² 11,5 °C 12,4 °C 1,6 km/h (1 Bft)
12.07.2019 08:23 12,5 °C 94 % 1012,9 hPa 0,0 mm 0,0 km/h (0 Bft) O-SO 120 ° 0 min 0,000 mm 0,0 UV-I 67 W/m² 11,6 °C 12,5 °C 0,0 km/h (0 Bft)
12.07.2019 08:24 12,6 °C 94 % 1012,9 hPa 0,0 mm 0,0 km/h (0 Bft) O-SO 120 ° 0 min 0,000 mm 0,0 UV-I 62 W/m² 11,7 °C 12,6 °C 0,0 km/h (0 Bft)
12.07.2019 08:25 12,6 °C 94 % 1012,9 hPa 0,0 mm 0,0 km/h (0 Bft) O-SO 120 ° 0 min 0,000 mm 0,0 UV-I 60 W/m² 11,7 °C 12,6 °C 0,0 km/h (0 Bft)
12.07.2019 08:26 12,6 °C 94 % 1012,9 hPa 0,0 mm 0,0 km/h (0 Bft) O-SO 120 ° 0 min 0,000 mm 0,0 UV-I 54 W/m² 11,7 °C 12,6 °C 0,0 km/h (0 Bft)
12.07.2019 08:27 12,6 °C 94 % 1012,9 hPa 0,0 mm 0,1 km/h (0 Bft) O-SO 121 ° 0 min 0,000 mm 0,0 UV-I 54 W/m² 11,7 °C 12,6 °C 1,6 km/h (1 Bft)
12.07.2019 08:28 12,6 °C 94 % 1012,9 hPa 0,0 mm 1,0 km/h (0 Bft) NW 321 ° 0 min 0,000 mm 0,0 UV-I 56 W/m² 11,7 °C 12,6 °C 3,2 km/h (1 Bft)
12.07.2019 08:29 12,6 °C 94 % 1013,0 hPa 0,0 mm 0,0 km/h (0 Bft) NW 321 ° 0 min 0,000 mm 0,0 UV-I 60 W/m² 11,7 °C 12,6 °C 0,0 km/h (0 Bft)
12.07.2019 08:30 12,6 °C 94 % 1013,0 hPa 0,0 mm 0,1 km/h (0 Bft) NW 321 ° 0 min 0,000 mm 0,0 UV-I 63 W/m² 11,7 °C 12,6 °C 1,6 km/h (1 Bft)
12.07.2019 08:31 12,6 °C 94 % 1012,9 hPa 0,0 mm 0,0 km/h (0 Bft) NW 321 ° 0 min 0,000 mm 0,5 UV-I 69 W/m² 11,7 °C 12,6 °C 0,0 km/h (0 Bft)
12.07.2019 08:32 12,6 °C 94 % 1012,9 hPa 0,0 mm 0,0 km/h (0 Bft) NW 321 ° 0 min 0,000 mm 0,5 UV-I 81 W/m² 11,7 °C 12,6 °C 0,0 km/h (0 Bft)
12.07.2019 08:33 12,5 °C 94 % 1012,9 hPa 0,0 mm 0,0 km/h (0 Bft) NW 321 ° 0 min 0,000 mm 0,5 UV-I 81 W/m² 11,6 °C 12,5 °C 0,0 km/h (0 Bft)
12.07.2019 08:34 12,5 °C 94 % 1012,9 hPa 0,0 mm 0,0 km/h (0 Bft) NW 321 ° 0 min 0,000 mm 0,5 UV-I 86 W/m² 11,6 °C 12,5 °C 0,0 km/h (0 Bft)
12.07.2019 08:35 12,4 °C 94 % 1012,8 hPa 0,0 mm 0,0 km/h (0 Bft) NW 321 ° 0 min 0,000 mm 0,5 UV-I 84 W/m² 11,5 °C 12,4 °C 0,0 km/h (0 Bft)
12.07.2019 08:36 12,5 °C 94 % 1012,9 hPa 0,0 mm 0,0 km/h (0 Bft) NW 321 ° 0 min 0,000 mm 0,5 UV-I 79 W/m² 11,6 °C 12,5 °C 0,0 km/h (0 Bft)
12.07.2019 08:37 12,6 °C 94 % 1012,9 hPa 0,0 mm 0,0 km/h (0 Bft) NW 321 ° 0 min 0,000 mm 0,5 UV-I 70 W/m² 11,7 °C 12,6 °C 0,0 km/h (0 Bft)
12.07.2019 08:38 12,6 °C 94 % 1012,8 hPa 0,0 mm 0,0 km/h (0 Bft) NW 321 ° 0 min 0,000 mm 0,0 UV-I 56 W/m² 11,7 °C 12,6 °C 0,0 km/h (0 Bft)
12.07.2019 08:39 12,6 °C 94 % 1012,8 hPa 0,0 mm 0,3 km/h (0 Bft) NW 321 ° 0 min 0,000 mm 0,0 UV-I 54 W/m² 11,7 °C 12,6 °C 3,2 km/h (1 Bft)
12.07.2019 08:40 12,6 °C 94 % 1012,8 hPa 0,0 mm 0,1 km/h (0 Bft) S-SW 213 ° 0 min 0,000 mm 0,0 UV-I 60 W/m² 11,7 °C 12,6 °C 1,6 km/h (1 Bft)
12.07.2019 08:41 12,6 °C 94 % 1012,9 hPa 0,0 mm 0,0 km/h (0 Bft) S 188 ° 0 min 0,000 mm 0,5 UV-I 67 W/m² 11,7 °C 12,6 °C 0,0 km/h (0 Bft)
12.07.2019 08:42 12,6 °C 94 % 1012,8 hPa 0,0 mm 0,0 km/h (0 Bft) S 186 ° 0 min 0,000 mm 0,5 UV-I 76 W/m² 11,7 °C 12,6 °C 0,0 km/h (0 Bft)
12.07.2019 08:43 12,6 °C 94 % 1012,8 hPa 0,0 mm 1,7 km/h (1 Bft) S-SO 159 ° 0 min 0,000 mm 0,6 UV-I 83 W/m² 11,7 °C 12,6 °C 6,4 km/h (2 Bft)
12.07.2019 08:44 12,6 °C 94 % 1012,8 hPa 0,0 mm 0,0 km/h (0 Bft) S-SO 155 ° 0 min 0,000 mm 0,6 UV-I 100 W/m² 11,7 °C 12,6 °C 0,0 km/h (0 Bft)
12.07.2019 08:45 12,6 °C 94 % 1012,8 hPa 0,0 mm 0,5 km/h (0 Bft) O-NO 75 ° 0 min 0,000 mm 0,7 UV-I 107 W/m² 11,7 °C 12,6 °C 3,2 km/h (1 Bft)
12.07.2019 08:46 12,6 °C 94 % 1012,8 hPa 0,0 mm 0,0 km/h (0 Bft) O-NO 75 ° 0 min 0,000 mm 0,8 UV-I 113 W/m² 11,7 °C 12,6 °C 0,0 km/h (0 Bft)
12.07.2019 08:47 12,6 °C 94 % 1012,7 hPa 0,0 mm 0,0 km/h (0 Bft) O-NO 75 ° 0 min 0,000 mm 0,8 UV-I 113 W/m² 11,7 °C 12,6 °C 0,0 km/h (0 Bft)
12.07.2019 08:48 12,7 °C 94 % 1012,7 hPa 0,0 mm 0,0 km/h (0 Bft) O-NO 75 ° 0 min 0,000 mm 0,7 UV-I 109 W/m² 11,8 °C 12,7 °C 0,0 km/h (0 Bft)
12.07.2019 08:49 12,8 °C 95 % 1012,7 hPa 0,0 mm 0,0 km/h (0 Bft) O-NO 78 ° 0 min 0,000 mm 0,7 UV-I 102 W/m² 12,0 °C 12,8 °C 0,0 km/h (0 Bft)
12.07.2019 08:50 12,8 °C 95 % 1012,7 hPa 0,0 mm 0,0 km/h (0 Bft) O-NO 78 ° 0 min 0,000 mm 0,6 UV-I 88 W/m² 12,0 °C 12,8 °C 0,0 km/h (0 Bft)
12.07.2019 08:51 12,7 °C 94 % 1012,7 hPa 0,0 mm 0,7 km/h (0 Bft) NW 318 ° 0 min 0,000 mm 0,6 UV-I 88 W/m² 11,8 °C 12,7 °C 4,8 km/h (1 Bft)
12.07.2019 08:52 12,8 °C 94 % 1012,8 hPa 0,0 mm 1,2 km/h (1 Bft) NW 322 ° 0 min 0,000 mm 0,6 UV-I 88 W/m² 11,9 °C 12,8 °C 4,8 km/h (1 Bft)
12.07.2019 08:53 12,8 °C 95 % 1012,8 hPa 0,0 mm 1,1 km/h (1 Bft) NW 322 ° 0 min 0,000 mm 0,6 UV-I 88 W/m² 12,0 °C 12,8 °C 3,2 km/h (1 Bft)
12.07.2019 08:54 12,8 °C 94 % 1012,8 hPa 0,0 mm 0,1 km/h (0 Bft) NW 322 ° 0 min 0,000 mm 0,6 UV-I 84 W/m² 11,9 °C 12,8 °C 1,6 km/h (1 Bft)
12.07.2019 08:55 12,8 °C 94 % 1012,8 hPa 0,0 mm 0,0 km/h (0 Bft) NW 322 ° 0 min 0,000 mm 0,6 UV-I 76 W/m² 11,9 °C 12,8 °C 0,0 km/h (0 Bft)
12.07.2019 08:56 12,8 °C 94 % 1012,8 hPa 0,0 mm 0,0 km/h (0 Bft) NW 322 ° 0 min 0,000 mm 0,5 UV-I 72 W/m² 11,9 °C 12,8 °C 0,0 km/h (0 Bft)
12.07.2019 08:57 12,7 °C 94 % 1012,8 hPa 0,0 mm 0,0 km/h (0 Bft) NW 322 ° 0 min 0,000 mm 0,5 UV-I 69 W/m² 11,8 °C 12,7 °C 0,0 km/h (0 Bft)
12.07.2019 08:58 12,7 °C 94 % 1012,8 hPa 0,0 mm 0,0 km/h (0 Bft) NW 322 ° 0 min 0,000 mm 0,0 UV-I 63 W/m² 11,8 °C 12,7 °C 0,0 km/h (0 Bft)
12.07.2019 08:59 12,7 °C 94 % 1012,8 hPa 0,0 mm 0,0 km/h (0 Bft) NW 322 ° 0 min 0,000 mm 0,0 UV-I 58 W/m² 11,8 °C 12,7 °C 0,0 km/h (0 Bft)
12.07.2019 09:00 12,6 °C 94 % 1012,8 hPa 0,2 mm 0,0 km/h (0 Bft) NW 322 ° 0 min 0,000 mm 0,0 UV-I 51 W/m² 11,7 °C 12,6 °C 0,0 km/h (0 Bft)
12.07.2019 09:01 12,7 °C 94 % 1012,8 hPa 0,0 mm 0,0 km/h (0 Bft) NW 323 ° 0 min 0,026 mm 0,0 UV-I 37 W/m² 11,8 °C 12,7 °C 0,0 km/h (0 Bft)
12.07.2019 09:02 12,7 °C 94 % 1012,8 hPa 0,0 mm 0,0 km/h (0 Bft) NW 323 ° 0 min 0,000 mm 0,0 UV-I 32 W/m² 11,8 °C 12,7 °C 0,0 km/h (0 Bft)
12.07.2019 09:03 12,7 °C 94 % 1012,8 hPa 0,0 mm 0,0 km/h (0 Bft) NW 323 ° 0 min 0,000 mm 0,0 UV-I 30 W/m² 11,8 °C 12,7 °C 0,0 km/h (0 Bft)
12.07.2019 09:04 12,7 °C 94 % 1012,8 hPa 0,0 mm 0,1 km/h (0 Bft) SW 232 ° 0 min 0,000 mm 0,0 UV-I 28 W/m² 11,8 °C 12,7 °C 1,6 km/h (1 Bft)
12.07.2019 09:05 12,7 °C 94 % 1012,9 hPa 0,2 mm 0,8 km/h (0 Bft) N 5 ° 0 min 0,000 mm 0,0 UV-I 28 W/m² 11,8 °C 12,7 °C 3,2 km/h (1 Bft)
12.07.2019 09:06 12,7 °C 94 % 1012,9 hPa 0,0 mm 1,1 km/h (1 Bft) N-NW 342 ° 0 min 0,000 mm 0,0 UV-I 28 W/m² 11,8 °C 12,7 °C 3,2 km/h (1 Bft)
12.07.2019 09:07 12,7 °C 94 % 1013,0 hPa 0,0 mm 0,1 km/h (0 Bft) N 355 ° 0 min 0,000 mm 0,0 UV-I 28 W/m² 11,8 °C 12,7 °C 1,6 km/h (1 Bft)
12.07.2019 09:08 12,6 °C 94 % 1013,0 hPa 0,0 mm 0,8 km/h (0 Bft) W 274 ° 0 min 0,000 mm 0,0 UV-I 32 W/m² 11,7 °C 12,6 °C 4,8 km/h (1 Bft)
12.07.2019 09:09 12,6 °C 94 % 1013,0 hPa 0,0 mm 6,9 km/h (2 Bft) W-SW 246 ° 0 min 0,000 mm 0,0 UV-I 32 W/m² 11,7 °C 12,6 °C 9,7 km/h (2 Bft)
12.07.2019 09:10 12,6 °C 94 % 1013,2 hPa 0,0 mm 6,0 km/h (2 Bft) S-SW 199 ° 0 min 0,000 mm 0,0 UV-I 40 W/m² 11,7 °C 12,6 °C 9,7 km/h (2 Bft)
12.07.2019 09:11 12,6 °C 94 % 1013,0 hPa 0,0 mm 3,5 km/h (1 Bft) S-SO 155 ° 0 min 0,000 mm 0,0 UV-I 47 W/m² 11,7 °C 12,6 °C 6,4 km/h (2 Bft)
12.07.2019 09:12 12,6 °C 94 % 1013,1 hPa 0,0 mm 1,9 km/h (1 Bft) W-NW 284 ° 0 min 0,000 mm 0,0 UV-I 56 W/m² 11,7 °C 12,6 °C 9,7 km/h (2 Bft)
12.07.2019 09:13 12,6 °C 94 % 1013,0 hPa 0,0 mm 8,3 km/h (2 Bft) SW 230 ° 0 min 0,000 mm 0,0 UV-I 72 W/m² 11,7 °C 12,6 °C 12,9 km/h (3 Bft)
12.07.2019 09:14 12,7 °C 94 % 1013,2 hPa 0,0 mm 0,7 km/h (0 Bft) SW 230 ° 0 min 0,000 mm 0,5 UV-I 77 W/m² 11,8 °C 12,7 °C 3,2 km/h (1 Bft)
12.07.2019 09:15 12,7 °C 94 % 1013,2 hPa 0,0 mm 1,6 km/h (1 Bft) SW 216 ° 0 min 0,000 mm 0,6 UV-I 84 W/m² 11,8 °C 12,7 °C 3,2 km/h (1 Bft)
12.07.2019 09:16 12,7 °C 94 % 1013,3 hPa 0,0 mm 10,1 km/h (2 Bft) W-SW 250 ° 0 min 0,000 mm 0,6 UV-I 90 W/m² 11,8 °C 12,7 °C 16,1 km/h (3 Bft)
12.07.2019 09:17 12,8 °C 94 % 1013,5 hPa 0,2 mm 9,8 km/h (2 Bft) W-SW 250 ° 0 min 0,000 mm 0,6 UV-I 91 W/m² 11,9 °C 12,8 °C 17,7 km/h (3 Bft)
12.07.2019 09:18 12,8 °C 94 % 1013,5 hPa 0,0 mm 4,0 km/h (1 Bft) S-SW 196 ° 0 min 0,000 mm 0,7 UV-I 91 W/m² 11,9 °C 12,8 °C 9,7 km/h (2 Bft)
12.07.2019 09:19 12,8 °C 94 % 1013,4 hPa 0,0 mm 7,1 km/h (2 Bft) SW 221 ° 0 min 0,000 mm 0,6 UV-I 79 W/m² 11,9 °C 12,8 °C 14,5 km/h (3 Bft)
12.07.2019 09:20 12,8 °C 94 % 1013,5 hPa 0,0 mm 4,0 km/h (1 Bft) W 278 ° 0 min 0,000 mm 0,6 UV-I 74 W/m² 11,9 °C 12,8 °C 6,4 km/h (2 Bft)
12.07.2019 09:21 12,9 °C 94 % 1013,5 hPa 0,2 mm 4,0 km/h (1 Bft) W-SW 256 ° 0 min 0,000 mm 0,5 UV-I 69 W/m² 12,0 °C 12,9 °C 6,4 km/h (2 Bft)
12.07.2019 09:22 12,9 °C 94 % 1013,5 hPa 0,0 mm 1,1 km/h (1 Bft) W-SW 256 ° 0 min 0,000 mm 0,5 UV-I 67 W/m² 12,0 °C 12,9 °C 3,2 km/h (1 Bft)
12.07.2019 09:23 13,0 °C 94 % 1013,5 hPa 0,0 mm 0,0 km/h (0 Bft) W-SW 256 ° 0 min 0,000 mm 0,5 UV-I 65 W/m² 12,1 °C 13,0 °C 0,0 km/h (0 Bft)
12.07.2019 09:24 13,1 °C 94 % 1013,5 hPa 0,0 mm 3,2 km/h (1 Bft) S-SW 196 ° 0 min 0,000 mm 0,5 UV-I 70 W/m² 12,2 °C 13,1 °C 6,4 km/h (2 Bft)
12.07.2019 09:25 13,1 °C 94 % 1013,4 hPa 0,0 mm 1,1 km/h (1 Bft) S 173 ° 0 min 0,000 mm 0,5 UV-I 76 W/m² 12,2 °C 13,1 °C 3,2 km/h (1 Bft)
12.07.2019 09:26 13,1 °C 94 % 1013,4 hPa 0,0 mm 0,4 km/h (0 Bft) S 173 ° 0 min 0,000 mm 0,6 UV-I 81 W/m² 12,2 °C 13,1 °C 1,6 km/h (1 Bft)
12.07.2019 09:27 13,1 °C 93 % 1013,5 hPa 0,0 mm 0,0 km/h (0 Bft) S 173 ° 0 min 0,000 mm 0,6 UV-I 81 W/m² 12,0 °C 13,1 °C 0,0 km/h (0 Bft)
12.07.2019 09:28 13,1 °C 93 % 1013,5 hPa 0,0 mm 0,8 km/h (0 Bft) W-SW 252 ° 0 min 0,000 mm 0,6 UV-I 88 W/m² 12,0 °C 13,1 °C 6,4 km/h (2 Bft)
12.07.2019 09:29 13,1 °C 94 % 1013,4 hPa 0,0 mm 1,9 km/h (1 Bft) W-SW 249 ° 0 min 0,000 mm 0,6 UV-I 90 W/m² 12,2 °C 13,1 °C 6,4 km/h (2 Bft)
12.07.2019 09:30 13,1 °C 94 % 1013,5 hPa 0,0 mm 0,9 km/h (0 Bft) W-SW 252 ° 0 min 0,000 mm 0,7 UV-I 93 W/m² 12,2 °C 13,1 °C 3,2 km/h (1 Bft)
12.07.2019 09:31 13,2 °C 93 % 1013,5 hPa 0,2 mm 3,1 km/h (1 Bft) W 269 ° 0 min 0,000 mm 0,7 UV-I 93 W/m² 12,1 °C 13,2 °C 4,8 km/h (1 Bft)
12.07.2019 09:32 13,2 °C 93 % 1013,5 hPa 0,0 mm 1,7 km/h (1 Bft) W 268 ° 0 min 0,000 mm 0,7 UV-I 93 W/m² 12,1 °C 13,2 °C 3,2 km/h (1 Bft)
12.07.2019 09:33 13,2 °C 93 % 1013,5 hPa 0,0 mm 0,3 km/h (0 Bft) W 268 ° 0 min 0,000 mm 0,7 UV-I 93 W/m² 12,1 °C 13,2 °C 1,6 km/h (1 Bft)
12.07.2019 09:34 13,3 °C 93 % 1013,4 hPa 0,0 mm 0,0 km/h (0 Bft) SW 225 ° 0 min 0,000 mm 0,7 UV-I 93 W/m² 12,2 °C 13,3 °C 0,0 km/h (0 Bft)
12.07.2019 09:35 13,3 °C 93 % 1013,4 hPa 0,0 mm 0,0 km/h (0 Bft) SW 227 ° 0 min 0,000 mm 0,7 UV-I 95 W/m² 12,2 °C 13,3 °C 0,0 km/h (0 Bft)
12.07.2019 09:36 13,3 °C 93 % 1013,4 hPa 0,0 mm 0,1 km/h (0 Bft) SW 227 ° 0 min 0,000 mm 0,7 UV-I 95 W/m² 12,2 °C 13,3 °C 1,6 km/h (1 Bft)
12.07.2019 09:37 13,3 °C 93 % 1013,4 hPa 0,0 mm 0,0 km/h (0 Bft) SW 227 ° 0 min 0,000 mm 0,7 UV-I 93 W/m² 12,2 °C 13,3 °C 0,0 km/h (0 Bft)
12.07.2019 09:38 13,3 °C 93 % 1013,3 hPa 0,0 mm 0,1 km/h (0 Bft) SW 227 ° 0 min 0,000 mm 0,6 UV-I 90 W/m² 12,2 °C 13,3 °C 1,6 km/h (1 Bft)
12.07.2019 09:39 13,4 °C 93 % 1013,3 hPa 0,0 mm 0,5 km/h (0 Bft) SW 227 ° 0 min 0,000 mm 0,6 UV-I 86 W/m² 12,3 °C 13,4 °C 3,2 km/h (1 Bft)
12.07.2019 09:40 13,3 °C 93 % 1013,3 hPa 0,0 mm 0,3 km/h (0 Bft) SW 227 ° 0 min 0,000 mm 0,6 UV-I 81 W/m² 12,2 °C 13,3 °C 1,6 km/h (1 Bft)
12.07.2019 09:41 13,4 °C 93 % 1013,3 hPa 0,0 mm 5,6 km/h (1 Bft) SW 227 ° 0 min 0,000 mm 0,6 UV-I 77 W/m² 12,3 °C 13,4 °C 12,9 km/h (3 Bft)
12.07.2019 09:42 13,4 °C 93 % 1013,2 hPa 0,0 mm 4,3 km/h (1 Bft) S-SW 210 ° 0 min 0,000 mm 0,5 UV-I 74 W/m² 12,3 °C 13,4 °C 8,0 km/h (2 Bft)
12.07.2019 09:43 13,4 °C 93 % 1013,2 hPa 0,0 mm 1,9 km/h (1 Bft) SW 222 ° 0 min 0,000 mm 0,5 UV-I 74 W/m² 12,3 °C 13,4 °C 3,2 km/h (1 Bft)
12.07.2019 09:44 13,4 °C 93 % 1013,2 hPa 0,0 mm 1,7 km/h (1 Bft) W-SW 254 ° 0 min 0,000 mm 0,6 UV-I 74 W/m² 12,3 °C 13,4 °C 4,8 km/h (1 Bft)
12.07.2019 09:45 13,4 °C 93 % 1013,2 hPa 0,2 mm 5,2 km/h (1 Bft) W-NW 285 ° 0 min 0,000 mm 0,6 UV-I 74 W/m² 12,3 °C 13,4 °C 11,3 km/h (2 Bft)
12.07.2019 09:46 13,4 °C 93 % 1013,2 hPa 0,0 mm 1,0 km/h (0 Bft) W-NW 285 ° 0 min 0,000 mm 0,6 UV-I 77 W/m² 12,3 °C 13,4 °C 3,2 km/h (1 Bft)
12.07.2019 09:47 13,4 °C 93 % 1013,1 hPa 0,0 mm 0,5 km/h (0 Bft) SW 221 ° 0 min 0,000 mm 0,6 UV-I 79 W/m² 12,3 °C 13,4 °C 3,2 km/h (1 Bft)
12.07.2019 09:48 13,4 °C 93 % 1013,1 hPa 0,0 mm 2,6 km/h (1 Bft) S 188 ° 0 min 0,000 mm 0,6 UV-I 86 W/m² 12,3 °C 13,4 °C 9,7 km/h (2 Bft)
12.07.2019 09:49 13,4 °C 92 % 1013,0 hPa 0,0 mm 3,3 km/h (1 Bft) W 263 ° 0 min 0,000 mm 0,7 UV-I 90 W/m² 12,1 °C 13,4 °C 6,4 km/h (2 Bft)
12.07.2019 09:50 13,4 °C 92 % 1013,0 hPa 0,0 mm 1,7 km/h (1 Bft) S-SW 200 ° 0 min 0,000 mm 0,7 UV-I 91 W/m² 12,1 °C 13,4 °C 3,2 km/h (1 Bft)
12.07.2019 09:51 13,3 °C 92 % 1013,0 hPa 0,0 mm 2,9 km/h (1 Bft) S 189 ° 0 min 0,000 mm 0,7 UV-I 91 W/m² 12,0 °C 13,3 °C 6,4 km/h (2 Bft)
12.07.2019 09:52 13,3 °C 92 % 1013,0 hPa 0,0 mm 1,2 km/h (1 Bft) SW 217 ° 0 min 0,000 mm 0,7 UV-I 93 W/m² 12,0 °C 13,3 °C 4,8 km/h (1 Bft)
12.07.2019 09:53 13,3 °C 92 % 1013,0 hPa 0,0 mm 1,4 km/h (1 Bft) W 265 ° 0 min 0,000 mm 0,7 UV-I 95 W/m² 12,0 °C 13,3 °C 4,8 km/h (1 Bft)
12.07.2019 09:54 13,3 °C 92 % 1012,9 hPa 0,0 mm 1,0 km/h (0 Bft) W-SW 251 ° 0 min 0,000 mm 0,8 UV-I 97 W/m² 12,0 °C 13,3 °C 3,2 km/h (1 Bft)
12.07.2019 09:55 13,3 °C 92 % 1012,9 hPa 0,0 mm 0,3 km/h (0 Bft) W-SW 252 ° 0 min 0,000 mm 0,8 UV-I 98 W/m² 12,0 °C 13,3 °C 1,6 km/h (1 Bft)
12.07.2019 09:56 13,3 °C 92 % 1013,0 hPa 0,0 mm 4,6 km/h (1 Bft) NW 306 ° 0 min 0,000 mm 0,8 UV-I 100 W/m² 12,0 °C 13,3 °C 9,7 km/h (2 Bft)
12.07.2019 09:57 13,3 °C 92 % 1012,9 hPa 0,0 mm 4,4 km/h (1 Bft) S-SW 200 ° 0 min 0,000 mm 0,8 UV-I 102 W/m² 12,0 °C 13,3 °C 9,7 km/h (2 Bft)
12.07.2019 09:58 13,3 °C 92 % 1012,9 hPa 0,0 mm 3,6 km/h (1 Bft) W-SW 255 ° 0 min 0,000 mm 0,9 UV-I 107 W/m² 12,0 °C 13,3 °C 6,4 km/h (2 Bft)
12.07.2019 09:59 13,3 °C 92 % 1013,0 hPa 0,0 mm 2,9 km/h (1 Bft) S-SW 196 ° 0 min 0,000 mm 0,9 UV-I 113 W/m² 12,0 °C 13,3 °C 4,8 km/h (1 Bft)
12.07.2019 10:00 13,3 °C 92 % 1012,9 hPa 0,0 mm 1,3 km/h (1 Bft) S-SW 202 ° 0 min 0,000 mm 0,9 UV-I 121 W/m² 12,0 °C 13,3 °C 4,8 km/h (1 Bft)
12.07.2019 10:01 13,3 °C 92 % 1013,0 hPa 0,0 mm 0,7 km/h (0 Bft) SW 223 ° 0 min 0,051 mm 1,0 UV-I 127 W/m² 12,0 °C 13,3 °C 3,2 km/h (1 Bft)
12.07.2019 10:02 13,3 °C 92 % 1012,9 hPa 0,0 mm 0,7 km/h (0 Bft) W-SW 248 ° 0 min 0,000 mm 1,1 UV-I 132 W/m² 12,0 °C 13,3 °C 3,2 km/h (1 Bft)
12.07.2019 10:03 13,3 °C 93 % 1012,9 hPa 0,0 mm 0,9 km/h (0 Bft) W 263 ° 0 min 0,000 mm 1,1 UV-I 139 W/m² 12,2 °C 13,3 °C 3,2 km/h (1 Bft)
12.07.2019 10:04 13,3 °C 93 % 1012,9 hPa 0,0 mm 0,5 km/h (0 Bft) W 263 ° 0 min 0,000 mm 1,2 UV-I 148 W/m² 12,2 °C 13,3 °C 1,6 km/h (1 Bft)
12.07.2019 10:05 13,3 °C 93 % 1012,9 hPa 0,0 mm 0,0 km/h (0 Bft) W 263 ° 0 min 0,000 mm 1,3 UV-I 156 W/m² 12,2 °C 13,3 °C 0,0 km/h (0 Bft)
12.07.2019 10:06 13,3 °C 93 % 1012,9 hPa 0,0 mm 0,2 km/h (0 Bft) W 263 ° 0 min 0,000 mm 1,3 UV-I 167 W/m² 12,2 °C 13,3 °C 1,6 km/h (1 Bft)
12.07.2019 10:07 13,3 °C 93 % 1012,9 hPa 0,0 mm 0,1 km/h (0 Bft) W 263 ° 0 min 0,000 mm 1,3 UV-I 171 W/m² 12,2 °C 13,3 °C 1,6 km/h (1 Bft)
12.07.2019 10:08 13,2 °C 93 % 1012,9 hPa 0,0 mm 0,3 km/h (0 Bft) W 263 ° 0 min 0,000 mm 1,3 UV-I 172 W/m² 12,1 °C 13,2 °C 1,6 km/h (1 Bft)
12.07.2019 10:09 13,3 °C 94 % 1012,9 hPa 0,2 mm 0,0 km/h (0 Bft) W 263 ° 0 min 0,000 mm 1,3 UV-I 172 W/m² 12,4 °C 13,3 °C 0,0 km/h (0 Bft)
12.07.2019 10:10 13,3 °C 93 % 1012,9 hPa 0,0 mm 0,0 km/h (0 Bft) W 263 ° 0 min 0,000 mm 1,3 UV-I 172 W/m² 12,2 °C 13,3 °C 0,0 km/h (0 Bft)
12.07.2019 10:11 13,3 °C 93 % 1012,9 hPa 0,0 mm 0,1 km/h (0 Bft) W 263 ° 0 min 0,000 mm 1,3 UV-I 176 W/m² 12,2 °C 13,3 °C 1,6 km/h (1 Bft)
12.07.2019 10:12 13,4 °C 93 % 1012,8 hPa 0,0 mm 0,0 km/h (0 Bft) W 263 ° 0 min 0,000 mm 1,3 UV-I 176 W/m² 12,3 °C 13,4 °C 0,0 km/h (0 Bft)
12.07.2019 10:13 13,4 °C 94 % 1012,9 hPa 0,0 mm 0,0 km/h (0 Bft) W 263 ° 0 min 0,000 mm 1,3 UV-I 174 W/m² 12,5 °C 13,4 °C 0,0 km/h (0 Bft)
12.07.2019 10:14 13,4 °C 94 % 1012,9 hPa 0,0 mm 2,2 km/h (1 Bft) W 263 ° 0 min 0,000 mm 1,3 UV-I 174 W/m² 12,5 °C 13,4 °C 3,2 km/h (1 Bft)
12.07.2019 10:15 13,6 °C 93 % 1012,9 hPa 0,0 mm 1,0 km/h (0 Bft) W 263 ° 0 min 0,000 mm 1,4 UV-I 176 W/m² 12,5 °C 13,6 °C 3,2 km/h (1 Bft)
12.07.2019 10:16 13,7 °C 93 % 1012,9 hPa 0,0 mm 0,0 km/h (0 Bft) W 263 ° 0 min 0,000 mm 1,4 UV-I 181 W/m² 12,6 °C 13,7 °C 0,0 km/h (0 Bft)
12.07.2019 10:17 13,7 °C 93 % 1012,9 hPa 0,0 mm 0,0 km/h (0 Bft) W 263 ° 0 min 0,000 mm 1,5 UV-I 197 W/m² 12,6 °C 13,7 °C 0,0 km/h (0 Bft)
12.07.2019 10:18 13,7 °C 93 % 1012,9 hPa 0,0 mm 0,0 km/h (0 Bft) W 263 ° 0 min 0,000 mm 1,6 UV-I 202 W/m² 12,6 °C 13,7 °C 0,0 km/h (0 Bft)
12.07.2019 10:19 13,8 °C 93 % 1012,9 hPa 0,0 mm 0,0 km/h (0 Bft) W 263 ° 0 min 0,000 mm 1,7 UV-I 209 W/m² 12,7 °C 13,8 °C 0,0 km/h (0 Bft)
12.07.2019 10:20 13,8 °C 93 % 1012,9 hPa 0,0 mm 0,0 km/h (0 Bft) W 263 ° 0 min 0,000 mm 1,7 UV-I 214 W/m² 12,7 °C 13,8 °C 0,0 km/h (0 Bft)
12.07.2019 10:21 13,9 °C 94 % 1012,9 hPa 0,0 mm 0,0 km/h (0 Bft) W 263 ° 0 min 0,000 mm 1,8 UV-I 214 W/m² 12,9 °C 13,9 °C 0,0 km/h (0 Bft)
12.07.2019 10:22 14,0 °C 94 % 1012,9 hPa 0,0 mm 0,0 km/h (0 Bft) W 263 ° 0 min 0,000 mm 1,8 UV-I 227 W/m² 13,0 °C 14,0 °C 0,0 km/h (0 Bft)
12.07.2019 10:23 14,1 °C 94 % 1012,9 hPa 0,0 mm 0,0 km/h (0 Bft) W 263 ° 0 min 0,000 mm 1,8 UV-I 223 W/m² 13,1 °C 14,1 °C 0,0 km/h (0 Bft)
12.07.2019 10:24 14,1 °C 94 % 1013,0 hPa 0,0 mm 0,0 km/h (0 Bft) W 263 ° 0 min 0,000 mm 1,8 UV-I 221 W/m² 13,1 °C 14,1 °C 0,0 km/h (0 Bft)
12.07.2019 10:25 14,1 °C 93 % 1012,9 hPa 0,0 mm 0,0 km/h (0 Bft) W 263 ° 0 min 0,000 mm 1,7 UV-I 218 W/m² 13,0 °C 14,1 °C 0,0 km/h (0 Bft)
12.07.2019 10:26 14,1 °C 93 % 1013,0 hPa 0,0 mm 0,0 km/h (0 Bft) W 263 ° 0 min 0,000 mm 1,7 UV-I 216 W/m² 13,0 °C 14,1 °C 0,0 km/h (0 Bft)
12.07.2019 10:27 14,1 °C 93 % 1013,0 hPa 0,0 mm 0,0 km/h (0 Bft) W 263 ° 0 min 0,000 mm 1,7 UV-I 214 W/m² 13,0 °C 14,1 °C 0,0 km/h (0 Bft)
12.07.2019 10:28 14,1 °C 93 % 1013,0 hPa 0,0 mm 0,0 km/h (0 Bft) W 263 ° 0 min 0,000 mm 1,7 UV-I 211 W/m² 13,0 °C 14,1 °C 0,0 km/h (0 Bft)
12.07.2019 10:29 14,2 °C 93 % 1013,0 hPa 0,0 mm 0,0 km/h (0 Bft) W 263 ° 0 min 0,000 mm 1,7 UV-I 211 W/m² 13,1 °C 14,2 °C 0,0 km/h (0 Bft)
12.07.2019 10:30 14,3 °C 93 % 1013,0 hPa 0,0 mm 0,0 km/h (0 Bft) W 263 ° 0 min 0,000 mm 1,7 UV-I 214 W/m² 13,2 °C 14,3 °C 0,0 km/h (0 Bft)
12.07.2019 10:31 14,3 °C 93 % 1013,0 hPa 0,0 mm 0,0 km/h (0 Bft) W 263 ° 0 min 0,000 mm 1,8 UV-I 214 W/m² 13,2 °C 14,3 °C 0,0 km/h (0 Bft)
12.07.2019 10:32 14,3 °C 93 % 1013,0 hPa 0,0 mm 0,0 km/h (0 Bft) W 263 ° 0 min 0,000 mm 1,8 UV-I 225 W/m² 13,2 °C 14,3 °C 0,0 km/h (0 Bft)
12.07.2019 10:33 14,3 °C 93 % 1013,0 hPa 0,0 mm 0,0 km/h (0 Bft) W 263 ° 0 min 0,000 mm 1,9 UV-I 234 W/m² 13,2 °C 14,3 °C 0,0 km/h (0 Bft)
12.07.2019 10:34 14,3 °C 93 % 1013,0 hPa 0,0 mm 0,7 km/h (0 Bft) W 263 ° 0 min 0,000 mm 2,0 UV-I 244 W/m² 13,2 °C 14,3 °C 3,2 km/h (1 Bft)
12.07.2019 10:35 14,3 °C 93 % 1013,0 hPa 0,0 mm 0,3 km/h (0 Bft) W 263 ° 0 min 0,000 mm 2,0 UV-I 262 W/m² 13,2 °C 14,3 °C 3,2 km/h (1 Bft)
12.07.2019 10:36 14,3 °C 93 % 1013,0 hPa 0,0 mm 0,5 km/h (0 Bft) W-SW 242 ° 0 min 0,000 mm 2,0 UV-I 267 W/m² 13,2 °C 14,3 °C 1,6 km/h (1 Bft)
12.07.2019 10:37 14,3 °C 93 % 1013,0 hPa 0,0 mm 0,1 km/h (0 Bft) W-SW 242 ° 0 min 0,000 mm 2,0 UV-I 274 W/m² 13,2 °C 14,3 °C 1,6 km/h (1 Bft)
12.07.2019 10:38 14,3 °C 93 % 1013,0 hPa 0,0 mm 0,0 km/h (0 Bft) W-SW 242 ° 0 min 0,000 mm 1,9 UV-I 257 W/m² 13,2 °C 14,3 °C 0,0 km/h (0 Bft)
12.07.2019 10:39 14,3 °C 93 % 1013,0 hPa 0,0 mm 0,0 km/h (0 Bft) W-SW 242 ° 0 min 0,000 mm 1,9 UV-I 251 W/m² 13,2 °C 14,3 °C 0,0 km/h (0 Bft)
12.07.2019 10:40 14,3 °C 93 % 1013,0 hPa 0,0 mm 0,0 km/h (0 Bft) W-SW 240 ° 0 min 0,000 mm 1,9 UV-I 248 W/m² 13,2 °C 14,3 °C 0,0 km/h (0 Bft)
12.07.2019 10:41 14,4 °C 93 % 1013,0 hPa 0,0 mm 0,0 km/h (0 Bft) W-SW 241 ° 0 min 0,000 mm 1,9 UV-I 264 W/m² 13,3 °C 14,4 °C 0,0 km/h (0 Bft)
12.07.2019 10:42 14,6 °C 93 % 1013,0 hPa 0,0 mm 0,0 km/h (0 Bft) W-SW 241 ° 0 min 0,000 mm 2,0 UV-I 276 W/m² 13,5 °C 14,6 °C 0,0 km/h (0 Bft)
12.07.2019 10:43 14,7 °C 93 % 1012,9 hPa 0,0 mm 0,0 km/h (0 Bft) W-SW 241 ° 0 min 0,000 mm 2,2 UV-I 281 W/m² 13,6 °C 14,7 °C 0,0 km/h (0 Bft)
12.07.2019 10:44 14,7 °C 93 % 1013,0 hPa 0,0 mm 0,0 km/h (0 Bft) W-SW 241 ° 0 min 0,000 mm 2,1 UV-I 278 W/m² 13,6 °C 14,7 °C 0,0 km/h (0 Bft)
12.07.2019 10:45 14,8 °C 93 % 1013,0 hPa 0,0 mm 0,8 km/h (0 Bft) W-SW 241 ° 0 min 0,000 mm 2,1 UV-I 265 W/m² 13,7 °C 14,8 °C 3,2 km/h (1 Bft)
12.07.2019 10:46 14,8 °C 92 % 1013,0 hPa 0,0 mm 0,2 km/h (0 Bft) W-SW 241 ° 0 min 0,000 mm 2,0 UV-I 250 W/m² 13,5 °C 14,8 °C 3,2 km/h (1 Bft)
12.07.2019 10:47 14,8 °C 92 % 1013,0 hPa 0,0 mm 0,1 km/h (0 Bft) S-SO 161 ° 0 min 0,000 mm 1,9 UV-I 225 W/m² 13,5 °C 14,8 °C 1,6 km/h (1 Bft)
12.07.2019 10:48 14,8 °C 92 % 1013,0 hPa 0,0 mm 0,5 km/h (0 Bft) S-SO 162 ° 0 min 0,000 mm 1,7 UV-I 218 W/m² 13,5 °C 14,8 °C 1,6 km/h (1 Bft)
12.07.2019 10:49 14,8 °C 91 % 1012,9 hPa 0,0 mm 0,0 km/h (0 Bft) S-SO 162 ° 0 min 0,000 mm 1,7 UV-I 214 W/m² 13,3 °C 14,8 °C 0,0 km/h (0 Bft)
12.07.2019 10:50 14,8 °C 91 % 1013,0 hPa 0,0 mm 0,0 km/h (0 Bft) S-SO 162 ° 0 min 0,000 mm 1,7 UV-I 213 W/m² 13,3 °C 14,8 °C 0,0 km/h (0 Bft)
12.07.2019 10:51 14,8 °C 90 % 1013,0 hPa 0,0 mm 0,0 km/h (0 Bft) S-SO 162 ° 0 min 0,000 mm 1,7 UV-I 214 W/m² 13,2 °C 14,8 °C 0,0 km/h (0 Bft)
12.07.2019 10:52 14,8 °C 89 % 1013,0 hPa 0,0 mm 0,0 km/h (0 Bft) S-SO 162 ° 0 min 0,000 mm 1,7 UV-I 225 W/m² 13,0 °C 14,8 °C 0,0 km/h (0 Bft)
12.07.2019 10:53 14,8 °C 89 % 1012,9 hPa 0,0 mm 0,0 km/h (0 Bft) S-SO 162 ° 0 min 0,000 mm 1,8 UV-I 234 W/m² 13,0 °C 14,8 °C 0,0 km/h (0 Bft)
12.07.2019 10:54 14,8 °C 91 % 1013,0 hPa 0,0 mm 0,0 km/h (0 Bft) S-SO 162 ° 0 min 0,000 mm 1,9 UV-I 244 W/m² 13,3 °C 14,8 °C 0,0 km/h (0 Bft)
12.07.2019 10:55 14,8 °C 91 % 1013,0 hPa 0,0 mm 0,0 km/h (0 Bft) S-SO 162 ° 0 min 0,000 mm 2,0 UV-I 253 W/m² 13,3 °C 14,8 °C 0,0 km/h (0 Bft)
12.07.2019 10:56 14,8 °C 91 % 1013,0 hPa 0,0 mm 0,0 km/h (0 Bft) S-SO 162 ° 0 min 0,000 mm 2,0 UV-I 258 W/m² 13,3 °C 14,8 °C 0,0 km/h (0 Bft)
12.07.2019 10:57 14,8 °C 91 % 1013,0 hPa 0,0 mm 0,0 km/h (0 Bft) S-SO 162 ° 0 min 0,000 mm 2,0 UV-I 258 W/m² 13,3 °C 14,8 °C 0,0 km/h (0 Bft)
12.07.2019 10:58 14,7 °C 91 % 1013,0 hPa 0,0 mm 0,0 km/h (0 Bft) S-SO 162 ° 0 min 0,000 mm 1,9 UV-I 236 W/m² 13,2 °C 14,7 °C 0,0 km/h (0 Bft)
12.07.2019 10:59 14,7 °C 91 % 1013,0 hPa 0,0 mm 0,0 km/h (0 Bft) S-SO 162 ° 0 min 0,000 mm 1,8 UV-I 221 W/m² 13,2 °C 14,7 °C 0,0 km/h (0 Bft)
12.07.2019 11:00 14,7 °C 92 % 1012,9 hPa 0,0 mm 0,0 km/h (0 Bft) S-SO 162 ° 0 min 0,000 mm 1,6 UV-I 209 W/m² 13,4 °C 14,7 °C 0,0 km/h (0 Bft)
12.07.2019 11:01 14,6 °C 92 % 1012,9 hPa 0,0 mm 0,0 km/h (0 Bft) S-SO 162 ° 0 min 0,101 mm 1,6 UV-I 202 W/m² 13,3 °C 14,6 °C 0,0 km/h (0 Bft)
12.07.2019 11:02 14,6 °C 92 % 1012,9 hPa 0,0 mm 0,0 km/h (0 Bft) S-SO 162 ° 0 min 0,000 mm 1,5 UV-I 195 W/m² 13,3 °C 14,6 °C 0,0 km/h (0 Bft)
12.07.2019 11:03 14,7 °C 92 % 1013,0 hPa 0,0 mm 0,2 km/h (0 Bft) S-SO 162 ° 0 min 0,000 mm 1,5 UV-I 188 W/m² 13,4 °C 14,7 °C 1,6 km/h (1 Bft)
12.07.2019 11:04 14,6 °C 92 % 1012,9 hPa 0,0 mm 0,0 km/h (0 Bft) S-SO 162 ° 0 min 0,000 mm 1,4 UV-I 179 W/m² 13,3 °C 14,6 °C 0,0 km/h (0 Bft)
12.07.2019 11:05 14,6 °C 92 % 1012,9 hPa 0,0 mm 0,0 km/h (0 Bft) S-SO 162 ° 0 min 0,000 mm 1,4 UV-I 178 W/m² 13,3 °C 14,6 °C 0,0 km/h (0 Bft)
12.07.2019 11:06 14,7 °C 92 % 1013,0 hPa 0,0 mm 0,0 km/h (0 Bft) S-SO 162 ° 0 min 0,000 mm 1,4 UV-I 179 W/m² 13,4 °C 14,7 °C 0,0 km/h (0 Bft)
12.07.2019 11:07 14,7 °C 93 % 1012,9 hPa 0,0 mm 0,0 km/h (0 Bft) S-SO 162 ° 0 min 0,000 mm 1,5 UV-I 186 W/m² 13,6 °C 14,7 °C 0,0 km/h (0 Bft)
12.07.2019 11:08 14,7 °C 92 % 1012,9 hPa 0,0 mm 0,1 km/h (0 Bft) S-SO 162 ° 0 min 0,000 mm 1,6 UV-I 195 W/m² 13,4 °C 14,7 °C 1,6 km/h (1 Bft)
12.07.2019 11:09 14,6 °C 92 % 1012,9 hPa 0,0 mm 0,3 km/h (0 Bft) S-SO 162 ° 0 min 0,000 mm 1,7 UV-I 202 W/m² 13,3 °C 14,6 °C 1,6 km/h (1 Bft)
12.07.2019 11:10 14,6 °C 92 % 1012,8 hPa 0,0 mm 0,0 km/h (0 Bft) S-SO 162 ° 0 min 0,000 mm 1,7 UV-I 211 W/m² 13,3 °C 14,6 °C 0,0 km/h (0 Bft)
12.07.2019 11:11 14,6 °C 92 % 1012,9 hPa 0,0 mm 0,0 km/h (0 Bft) S-SO 162 ° 0 min 0,000 mm 1,8 UV-I 214 W/m² 13,3 °C 14,6 °C 0,0 km/h (0 Bft)
12.07.2019 11:12 14,4 °C 92 % 1012,8 hPa 0,0 mm 0,0 km/h (0 Bft) S-SO 162 ° 0 min 0,000 mm 1,8 UV-I 216 W/m² 13,1 °C 14,4 °C 0,0 km/h (0 Bft)
12.07.2019 11:13 14,6 °C 92 % 1012,8 hPa 0,0 mm 0,0 km/h (0 Bft) S-SO 162 ° 0 min 0,000 mm 1,8 UV-I 213 W/m² 13,3 °C 14,6 °C 0,0 km/h (0 Bft)
12.07.2019 11:14 14,7 °C 93 % 1012,8 hPa 0,0 mm 0,0 km/h (0 Bft) S-SO 162 ° 0 min 0,000 mm 1,7 UV-I 207 W/m² 13,6 °C 14,7 °C 0,0 km/h (0 Bft)
12.07.2019 11:15 14,8 °C 93 % 1012,8 hPa 0,0 mm 0,0 km/h (0 Bft) S-SO 162 ° 0 min 0,000 mm 1,6 UV-I 197 W/m² 13,7 °C 14,8 °C 0,0 km/h (0 Bft)
12.07.2019 11:16 14,8 °C 93 % 1012,9 hPa 0,0 mm 0,0 km/h (0 Bft) S-SO 162 ° 0 min 0,000 mm 1,6 UV-I 176 W/m² 13,7 °C 14,8 °C 0,0 km/h (0 Bft)
12.07.2019 11:17 14,8 °C 93 % 1012,9 hPa 0,0 mm 0,0 km/h (0 Bft) S-SO 162 ° 0 min 0,000 mm 1,4 UV-I 163 W/m² 13,7 °C 14,8 °C 0,0 km/h (0 Bft)
12.07.2019 11:18 14,8 °C 93 % 1013,0 hPa 0,0 mm 0,0 km/h (0 Bft) S-SO 162 ° 0 min 0,000 mm 1,3 UV-I 153 W/m² 13,7 °C 14,8 °C 0,0 km/h (0 Bft)
12.07.2019 11:19 14,8 °C 93 % 1013,0 hPa 0,0 mm 0,0 km/h (0 Bft) S-SO 162 ° 0 min 0,000 mm 1,3 UV-I 146 W/m² 13,7 °C 14,8 °C 0,0 km/h (0 Bft)
12.07.2019 11:20 14,8 °C 93 % 1012,9 hPa 0,0 mm 0,0 km/h (0 Bft) S-SO 162 ° 0 min 0,000 mm 1,3 UV-I 144 W/m² 13,7 °C 14,8 °C 0,0 km/h (0 Bft)
12.07.2019 11:21 14,8 °C 93 % 1012,9 hPa 0,0 mm 0,0 km/h (0 Bft) S-SO 162 ° 0 min 0,000 mm 1,3 UV-I 148 W/m² 13,7 °C 14,8 °C 0,0 km/h (0 Bft)
12.07.2019 11:22 14,8 °C 93 % 1012,9 hPa 0,0 mm 0,0 km/h (0 Bft) S-SO 162 ° 0 min 0,000 mm 1,4 UV-I 169 W/m² 13,7 °C 14,8 °C 0,0 km/h (0 Bft)
12.07.2019 11:23 14,8 °C 93 % 1012,9 hPa 0,0 mm 0,0 km/h (0 Bft) S-SO 162 ° 0 min 0,000 mm 1,6 UV-I 192 W/m² 13,7 °C 14,8 °C 0,0 km/h (0 Bft)
12.07.2019 11:24 14,8 °C 93 % 1012,9 hPa 0,0 mm 0,5 km/h (0 Bft) S-SO 162 ° 0 min 0,000 mm 1,9 UV-I 223 W/m² 13,7 °C 14,8 °C 3,2 km/h (1 Bft)
12.07.2019 11:25 14,8 °C 93 % 1012,9 hPa 0,0 mm 0,0 km/h (0 Bft) S-SO 162 ° 0 min 0,000 mm 2,1 UV-I 264 W/m² 13,7 °C 14,8 °C 0,0 km/h (0 Bft)
12.07.2019 11:26 14,8 °C 92 % 1012,9 hPa 0,0 mm 0,0 km/h (0 Bft) S-SO 162 ° 0 min 0,000 mm 2,4 UV-I 320 W/m² 13,5 °C 14,8 °C 0,0 km/h (0 Bft)
12.07.2019 11:27 15,1 °C 93 % 1012,9 hPa 0,0 mm 0,0 km/h (0 Bft) S-SO 162 ° 0 min 0,000 mm 2,5 UV-I 343 W/m² 14,0 °C 15,1 °C 0,0 km/h (0 Bft)
12.07.2019 11:28 15,1 °C 93 % 1012,9 hPa 0,0 mm 0,0 km/h (0 Bft) S-SO 162 ° 0 min 0,000 mm 2,5 UV-I 345 W/m² 14,0 °C 15,1 °C 0,0 km/h (0 Bft)
12.07.2019 11:29 15,1 °C 92 % 1012,9 hPa 0,0 mm 0,0 km/h (0 Bft) S-SO 162 ° 0 min 0,000 mm 2,5 UV-I 341 W/m² 13,8 °C 15,1 °C 0,0 km/h (0 Bft)
12.07.2019 11:30 15,1 °C 92 % 1012,9 hPa 0,0 mm 0,0 km/h (0 Bft) S-SO 162 ° 0 min 0,000 mm 2,4 UV-I 329 W/m² 13,8 °C 15,1 °C 0,0 km/h (0 Bft)
12.07.2019 11:31 15,1 °C 92 % 1013,0 hPa 0,0 mm 0,0 km/h (0 Bft) SW 219 ° 0 min 0,000 mm 2,3 UV-I 308 W/m² 13,8 °C 15,1 °C 0,0 km/h (0 Bft)
12.07.2019 11:32 15,1 °C 92 % 1012,9 hPa 0,0 mm 0,0 km/h (0 Bft) SW 219 ° 0 min 0,000 mm 2,2 UV-I 288 W/m² 13,8 °C 15,1 °C 0,0 km/h (0 Bft)
12.07.2019 11:33 15,2 °C 92 % 1013,0 hPa 0,0 mm 0,0 km/h (0 Bft) SW 219 ° 0 min 0,000 mm 2,1 UV-I 272 W/m² 13,9 °C 15,2 °C 0,0 km/h (0 Bft)
12.07.2019 11:34 15,3 °C 92 % 1013,0 hPa 0,0 mm 0,0 km/h (0 Bft) SW 219 ° 0 min 0,000 mm 2,1 UV-I 272 W/m² 14,0 °C 15,3 °C 0,0 km/h (0 Bft)
12.07.2019 11:35 15,3 °C 92 % 1012,9 hPa 0,0 mm 0,0 km/h (0 Bft) SW 219 ° 0 min 0,000 mm 2,2 UV-I 274 W/m² 14,0 °C 15,3 °C 0,0 km/h (0 Bft)
12.07.2019 11:36 15,2 °C 92 % 1012,9 hPa 0,0 mm 0,0 km/h (0 Bft) SW 219 ° 0 min 0,000 mm 2,2 UV-I 281 W/m² 13,9 °C 15,2 °C 0,0 km/h (0 Bft)
12.07.2019 11:37 15,2 °C 92 % 1012,9 hPa 0,0 mm 0,0 km/h (0 Bft) SW 217 ° 0 min 0,000 mm 2,3 UV-I 290 W/m² 13,9 °C 15,2 °C 0,0 km/h (0 Bft)
12.07.2019 11:38 15,2 °C 93 % 1012,9 hPa 0,0 mm 0,9 km/h (0 Bft) SW 217 ° 0 min 0,000 mm 2,3 UV-I 297 W/m² 14,1 °C 15,2 °C 3,2 km/h (1 Bft)
12.07.2019 11:39 15,2 °C 92 % 1012,9 hPa 0,0 mm 0,0 km/h (0 Bft) SW 217 ° 0 min 0,000 mm 2,3 UV-I 294 W/m² 13,9 °C 15,2 °C 0,0 km/h (0 Bft)
12.07.2019 11:40 15,2 °C 91 % 1012,9 hPa 0,0 mm 0,0 km/h (0 Bft) SW 217 ° 0 min 0,000 mm 2,2 UV-I 281 W/m² 13,7 °C 15,2 °C 0,0 km/h (0 Bft)
12.07.2019 11:41 15,2 °C 91 % 1012,9 hPa 0,0 mm 0,0 km/h (0 Bft) SW 217 ° 0 min 0,000 mm 2,1 UV-I 269 W/m² 13,7 °C 15,2 °C 0,0 km/h (0 Bft)
12.07.2019 11:42 15,4 °C 92 % 1013,0 hPa 0,0 mm 0,0 km/h (0 Bft) SW 217 ° 0 min 0,000 mm 2,0 UV-I 255 W/m² 14,1 °C 15,4 °C 0,0 km/h (0 Bft)
12.07.2019 11:43 15,6 °C 91 % 1013,0 hPa 0,0 mm 0,3 km/h (0 Bft) SW 217 ° 0 min 0,000 mm 1,9 UV-I 250 W/m² 14,1 °C 15,6 °C 1,6 km/h (1 Bft)
12.07.2019 11:44 15,6 °C 91 % 1012,9 hPa 0,0 mm 0,9 km/h (0 Bft) SW 217 ° 0 min 0,000 mm 1,9 UV-I 246 W/m² 14,1 °C 15,6 °C 1,6 km/h (1 Bft)
12.07.2019 11:45 15,7 °C 89 % 1013,0 hPa 0,0 mm 0,3 km/h (0 Bft) SW 217 ° 0 min 0,000 mm 1,9 UV-I 236 W/m² 13,9 °C 15,7 °C 1,6 km/h (1 Bft)
12.07.2019 11:46 15,7 °C 88 % 1012,9 hPa 0,0 mm 0,0 km/h (0 Bft) SW 217 ° 0 min 0,000 mm 1,8 UV-I 232 W/m² 13,7 °C 15,7 °C 0,0 km/h (0 Bft)
12.07.2019 11:47 15,7 °C 88 % 1012,9 hPa 0,0 mm 0,0 km/h (0 Bft) SW 217 ° 0 min 0,000 mm 1,8 UV-I 225 W/m² 13,7 °C 15,7 °C 0,0 km/h (0 Bft)
12.07.2019 11:48 15,7 °C 89 % 1012,9 hPa 0,0 mm 0,0 km/h (0 Bft) SW 217 ° 0 min 0,000 mm 1,7 UV-I 218 W/m² 13,9 °C 15,7 °C 0,0 km/h (0 Bft)
12.07.2019 11:49 15,7 °C 90 % 1012,9 hPa 0,0 mm 0,0 km/h (0 Bft) SW 217 ° 0 min 0,000 mm 1,6 UV-I 206 W/m² 14,1 °C 15,7 °C 0,0 km/h (0 Bft)
12.07.2019 11:50 15,7 °C 90 % 1012,8 hPa 0,0 mm 0,0 km/h (0 Bft) SW 217 ° 0 min 0,000 mm 1,5 UV-I 193 W/m² 14,1 °C 15,7 °C 0,0 km/h (0 Bft)
12.07.2019 11:51 15,7 °C 90 % 1012,9 hPa 0,0 mm 0,9 km/h (0 Bft) W-SW 242 ° 0 min 0,000 mm 1,4 UV-I 165 W/m² 14,1 °C 15,7 °C 4,8 km/h (1 Bft)
12.07.2019 11:52 15,7 °C 90 % 1012,9 hPa 0,0 mm 0,6 km/h (0 Bft) W-SW 242 ° 0 min 0,000 mm 1,2 UV-I 155 W/m² 14,1 °C 15,7 °C 3,2 km/h (1 Bft)
12.07.2019 11:53 15,7 °C 89 % 1012,9 hPa 0,0 mm 0,0 km/h (0 Bft) W-SW 242 ° 0 min 0,000 mm 1,2 UV-I 151 W/m² 13,9 °C 15,7 °C 0,0 km/h (0 Bft)
12.07.2019 11:54 15,7 °C 89 % 1012,9 hPa 0,0 mm 0,1 km/h (0 Bft) W-SW 242 ° 0 min 0,000 mm 1,2 UV-I 151 W/m² 13,9 °C 15,7 °C 3,2 km/h (1 Bft)
12.07.2019 11:55 15,7 °C 89 % 1013,0 hPa 0,0 mm 3,9 km/h (1 Bft) W-SW 242 ° 0 min 0,000 mm 1,2 UV-I 151 W/m² 13,9 °C 15,7 °C 4,8 km/h (1 Bft)
12.07.2019 11:56 15,7 °C 89 % 1013,0 hPa 0,0 mm 2,7 km/h (1 Bft) W-SW 242 ° 0 min 0,000 mm 1,3 UV-I 158 W/m² 13,9 °C 15,7 °C 4,8 km/h (1 Bft)
12.07.2019 11:57 15,7 °C 89 % 1013,0 hPa 0,0 mm 0,2 km/h (0 Bft) W-SW 242 ° 0 min 0,000 mm 1,3 UV-I 163 W/m² 13,9 °C 15,7 °C 1,6 km/h (1 Bft)
12.07.2019 11:58 15,7 °C 89 % 1013,0 hPa 0,0 mm 0,5 km/h (0 Bft) W-SW 242 ° 0 min 0,000 mm 1,3 UV-I 163 W/m² 13,9 °C 15,7 °C 3,2 km/h (1 Bft)
12.07.2019 11:59 15,6 °C 89 % 1013,0 hPa 0,0 mm 2,4 km/h (1 Bft) W-SW 242 ° 0 min 0,000 mm 1,3 UV-I 163 W/m² 13,8 °C 15,6 °C 4,8 km/h (1 Bft)
12.07.2019 12:00 15,6 °C 89 % 1013,0 hPa 0,0 mm 6,3 km/h (2 Bft) W 277 ° 0 min 0,000 mm 1,3 UV-I 163 W/m² 13,8 °C 15,6 °C 12,9 km/h (3 Bft)
12.07.2019 12:01 15,6 °C 88 % 1013,0 hPa 0,0 mm 5,6 km/h (1 Bft) W-SW 242 ° 0 min 0,127 mm 1,3 UV-I 162 W/m² 13,6 °C 15,6 °C 8,0 km/h (2 Bft)
12.07.2019 12:02 15,6 °C 89 % 1013,1 hPa 0,0 mm 3,6 km/h (1 Bft) SW 227 ° 0 min 0,000 mm 1,3 UV-I 160 W/m² 13,8 °C 15,6 °C 6,4 km/h (2 Bft)
12.07.2019 12:03 15,6 °C 89 % 1013,0 hPa 0,0 mm 3,6 km/h (1 Bft) W 267 ° 0 min 0,000 mm 1,3 UV-I 153 W/m² 13,8 °C 15,6 °C 4,8 km/h (1 Bft)
12.07.2019 12:04 15,6 °C 89 % 1013,0 hPa 0,0 mm 2,1 km/h (1 Bft) W 265 ° 0 min 0,000 mm 1,2 UV-I 153 W/m² 13,8 °C 15,6 °C 3,2 km/h (1 Bft)
12.07.2019 12:05 15,6 °C 89 % 1013,0 hPa 0,0 mm 2,7 km/h (1 Bft) W 265 ° 0 min 0,000 mm 1,1 UV-I 144 W/m² 13,8 °C 15,6 °C 3,2 km/h (1 Bft)
12.07.2019 12:06 15,6 °C 89 % 1013,1 hPa 0,0 mm 3,8 km/h (1 Bft) W-NW 284 ° 0 min 0,000 mm 1,1 UV-I 141 W/m² 13,8 °C 15,6 °C 6,4 km/h (2 Bft)
12.07.2019 12:07 15,6 °C 89 % 1013,1 hPa 0,0 mm 4,3 km/h (1 Bft) W-NW 289 ° 0 min 0,000 mm 1,1 UV-I 141 W/m² 13,8 °C 15,6 °C 8,0 km/h (2 Bft)
12.07.2019 12:08 15,6 °C 89 % 1013,1 hPa 0,0 mm 6,9 km/h (2 Bft) W-NW 290 ° 0 min 0,000 mm 1,1 UV-I 144 W/m² 13,8 °C 15,6 °C 11,3 km/h (2 Bft)
12.07.2019 12:09 15,5 °C 89 % 1013,1 hPa 0,0 mm 2,7 km/h (1 Bft) W 270 ° 0 min 0,000 mm 1,2 UV-I 155 W/m² 13,7 °C 15,5 °C 4,8 km/h (1 Bft)
12.07.2019 12:10 15,5 °C 89 % 1013,2 hPa 0,0 mm 2,5 km/h (1 Bft) W 281 ° 0 min 0,000 mm 1,3 UV-I 160 W/m² 13,7 °C 15,5 °C 9,7 km/h (2 Bft)
12.07.2019 12:11 15,5 °C 89 % 1013,2 hPa 0,0 mm 7,8 km/h (2 Bft) W-SW 254 ° 0 min 0,000 mm 1,3 UV-I 165 W/m² 13,7 °C 15,5 °C 14,5 km/h (3 Bft)
12.07.2019 12:12 15,4 °C 88 % 1013,2 hPa 0,0 mm 8,5 km/h (2 Bft) W 269 ° 0 min 0,000 mm 1,3 UV-I 171 W/m² 13,4 °C 15,4 °C 11,3 km/h (2 Bft)
12.07.2019 12:13 15,4 °C 89 % 1013,3 hPa 0,0 mm 6,8 km/h (2 Bft) W-SW 258 ° 0 min 0,000 mm 1,4 UV-I 176 W/m² 13,6 °C 15,4 °C 11,3 km/h (2 Bft)
12.07.2019 12:14 15,4 °C 89 % 1013,3 hPa 0,0 mm 5,7 km/h (1 Bft) SW 225 ° 0 min 0,000 mm 1,5 UV-I 183 W/m² 13,6 °C 15,4 °C 9,7 km/h (2 Bft)
12.07.2019 12:15 15,4 °C 89 % 1013,3 hPa 0,0 mm 4,8 km/h (1 Bft) SW 227 ° 0 min 0,000 mm 1,5 UV-I 199 W/m² 13,6 °C 15,4 °C 11,3 km/h (2 Bft)
12.07.2019 12:16 15,4 °C 89 % 1013,3 hPa 0,0 mm 7,6 km/h (2 Bft) NW 306 ° 0 min 0,000 mm 1,7 UV-I 209 W/m² 13,6 °C 15,4 °C 11,3 km/h (2 Bft)
12.07.2019 12:17 15,4 °C 90 % 1013,3 hPa 0,0 mm 10,5 km/h (2 Bft) W-SW 246 ° 0 min 0,000 mm 1,8 UV-I 221 W/m² 13,8 °C 15,4 °C 12,9 km/h (3 Bft)
12.07.2019 12:18 15,4 °C 89 % 1013,3 hPa 0,0 mm 7,7 km/h (2 Bft) W-SW 250 ° 0 min 0,000 mm 1,9 UV-I 232 W/m² 13,6 °C 15,4 °C 11,3 km/h (2 Bft)
12.07.2019 12:19 15,4 °C 89 % 1013,4 hPa 0,0 mm 7,0 km/h (2 Bft) W 266 ° 0 min 0,000 mm 1,9 UV-I 243 W/m² 13,6 °C 15,4 °C 11,3 km/h (2 Bft)
12.07.2019 12:20 15,4 °C 90 % 1013,4 hPa 0,0 mm 3,8 km/h (1 Bft) W 272 ° 0 min 0,000 mm 2,0 UV-I 248 W/m² 13,8 °C 15,4 °C 4,8 km/h (1 Bft)
12.07.2019 12:21 15,6 °C 90 % 1013,4 hPa 0,0 mm 4,1 km/h (1 Bft) W 272 ° 0 min 0,000 mm 1,9 UV-I 248 W/m² 14,0 °C 15,6 °C 6,4 km/h (2 Bft)
12.07.2019 12:22 15,6 °C 90 % 1013,4 hPa 0,0 mm 8,5 km/h (2 Bft) W 264 ° 0 min 0,000 mm 1,8 UV-I 227 W/m² 14,0 °C 15,6 °C 11,3 km/h (2 Bft)
12.07.2019 12:23 15,6 °C 90 % 1013,4 hPa 0,0 mm 5,3 km/h (1 Bft) W 270 ° 0 min 0,000 mm 1,6 UV-I 211 W/m² 14,0 °C 15,6 °C 9,7 km/h (2 Bft)
12.07.2019 12:24 15,6 °C 90 % 1013,4 hPa 0,0 mm 3,4 km/h (1 Bft) W 259 ° 0 min 0,000 mm 1,5 UV-I 197 W/m² 14,0 °C 15,6 °C 4,8 km/h (1 Bft)
12.07.2019 12:25 15,6 °C 90 % 1013,4 hPa 0,0 mm 6,5 km/h (2 Bft) W-SW 258 ° 0 min 0,000 mm 1,4 UV-I 183 W/m² 14,0 °C 15,6 °C 11,3 km/h (2 Bft)
12.07.2019 12:26 15,6 °C 90 % 1013,4 hPa 0,0 mm 5,5 km/h (1 Bft) W 263 ° 0 min 0,000 mm 1,4 UV-I 174 W/m² 14,0 °C 15,6 °C 9,7 km/h (2 Bft)
12.07.2019 12:27 15,6 °C 90 % 1013,5 hPa 0,0 mm 5,8 km/h (2 Bft) W-SW 244 ° 0 min 0,000 mm 1,4 UV-I 172 W/m² 14,0 °C 15,6 °C 11,3 km/h (2 Bft)
12.07.2019 12:28 15,6 °C 89 % 1013,5 hPa 0,0 mm 4,3 km/h (1 Bft) W-SW 254 ° 0 min 0,000 mm 1,4 UV-I 178 W/m² 13,8 °C 15,6 °C 6,4 km/h (2 Bft)
12.07.2019 12:29 15,4 °C 89 % 1013,5 hPa 0,0 mm 6,1 km/h (2 Bft) W-NW 298 ° 0 min 0,000 mm 1,5 UV-I 183 W/m² 13,6 °C 15,4 °C 9,7 km/h (2 Bft)
12.07.2019 12:30 15,4 °C 89 % 1013,5 hPa 0,0 mm 9,1 km/h (2 Bft) W 271 ° 0 min 0,000 mm 1,5 UV-I 188 W/m² 13,6 °C 15,4 °C 14,5 km/h (3 Bft)
12.07.2019 12:31 15,4 °C 89 % 1013,4 hPa 0,0 mm 6,6 km/h (2 Bft) W 277 ° 0 min 0,000 mm 1,5 UV-I 193 W/m² 13,6 °C 15,4 °C 11,3 km/h (2 Bft)
12.07.2019 12:32 15,4 °C 89 % 1013,5 hPa 0,0 mm 11,1 km/h (2 Bft) W-NW 286 ° 0 min 0,000 mm 1,6 UV-I 197 W/m² 13,6 °C 15,4 °C 16,1 km/h (3 Bft)
12.07.2019 12:33 15,4 °C 89 % 1013,4 hPa 0,0 mm 10,5 km/h (2 Bft) W-SW 258 ° 0 min 0,000 mm 1,6 UV-I 197 W/m² 13,6 °C 15,4 °C 16,1 km/h (3 Bft)
12.07.2019 12:34 15,4 °C 89 % 1013,4 hPa 0,0 mm 7,9 km/h (2 Bft) NW 307 ° 0 min 0,000 mm 1,5 UV-I 192 W/m² 13,6 °C 15,4 °C 12,9 km/h (3 Bft)
12.07.2019 12:35 15,4 °C 89 % 1013,5 hPa 0,0 mm 3,3 km/h (1 Bft) W-NW 290 ° 0 min 0,000 mm 1,5 UV-I 185 W/m² 13,6 °C 15,4 °C 4,8 km/h (1 Bft)
12.07.2019 12:36 15,4 °C 89 % 1013,5 hPa 0,0 mm 5,6 km/h (1 Bft) W-NW 288 ° 0 min 0,000 mm 1,4 UV-I 176 W/m² 13,6 °C 15,4 °C 9,7 km/h (2 Bft)
12.07.2019 12:37 15,4 °C 90 % 1013,4 hPa 0,0 mm 4,8 km/h (1 Bft) W-SW 240 ° 0 min 0,000 mm 1,3 UV-I 165 W/m² 13,8 °C 15,4 °C 8,0 km/h (2 Bft)
12.07.2019 12:38 15,4 °C 90 % 1013,5 hPa 0,0 mm 3,8 km/h (1 Bft) W-SW 253 ° 0 min 0,000 mm 1,3 UV-I 148 W/m² 13,8 °C 15,4 °C 8,0 km/h (2 Bft)
12.07.2019 12:39 15,4 °C 90 % 1013,5 hPa 0,0 mm 5,0 km/h (1 Bft) W 262 ° 0 min 0,000 mm 1,1 UV-I 141 W/m² 13,8 °C 15,4 °C 9,7 km/h (2 Bft)
12.07.2019 12:40 15,4 °C 90 % 1013,5 hPa 0,0 mm 4,5 km/h (1 Bft) NW 317 ° 0 min 0,000 mm 1,1 UV-I 134 W/m² 13,8 °C 15,4 °C 9,7 km/h (2 Bft)
12.07.2019 12:41 15,4 °C 90 % 1013,5 hPa 0,0 mm 5,0 km/h (1 Bft) W 259 ° 0 min 0,000 mm 1,0 UV-I 127 W/m² 13,8 °C 15,4 °C 12,9 km/h (3 Bft)
12.07.2019 12:42 15,4 °C 90 % 1013,5 hPa 0,0 mm 7,6 km/h (2 Bft) W 271 ° 0 min 0,000 mm 1,0 UV-I 125 W/m² 13,8 °C 15,4 °C 11,3 km/h (2 Bft)
12.07.2019 12:43 15,4 °C 90 % 1013,5 hPa 0,0 mm 6,2 km/h (2 Bft) W 271 ° 0 min 0,000 mm 1,0 UV-I 121 W/m² 13,8 °C 15,4 °C 14,5 km/h (3 Bft)
12.07.2019 12:44 15,3 °C 89 % 1013,5 hPa 0,0 mm 9,4 km/h (2 Bft) W-NW 292 ° 0 min 0,000 mm 1,0 UV-I 121 W/m² 13,5 °C 15,3 °C 12,9 km/h (3 Bft)
12.07.2019 12:45 15,3 °C 89 % 1013,6 hPa 0,0 mm 3,7 km/h (1 Bft) W-SW 254 ° 0 min 0,000 mm 1,0 UV-I 125 W/m² 13,5 °C 15,3 °C 6,4 km/h (2 Bft)
12.07.2019 12:46 15,3 °C 89 % 1013,5 hPa 0,0 mm 5,5 km/h (1 Bft) SW 224 ° 0 min 0,000 mm 1,1 UV-I 128 W/m² 13,5 °C 15,3 °C 16,1 km/h (3 Bft)
12.07.2019 12:47 15,2 °C 89 % 1013,6 hPa 0,0 mm 8,3 km/h (2 Bft) W 263 ° 0 min 0,000 mm 1,1 UV-I 132 W/m² 13,4 °C 15,2 °C 14,5 km/h (3 Bft)
12.07.2019 12:48 15,2 °C 89 % 1013,7 hPa 0,0 mm 11,8 km/h (2 Bft) W 272 ° 0 min 0,000 mm 1,1 UV-I 135 W/m² 13,4 °C 15,2 °C 16,1 km/h (3 Bft)
12.07.2019 12:49 15,2 °C 89 % 1013,6 hPa 0,0 mm 11,2 km/h (2 Bft) W 270 ° 0 min 0,000 mm 1,1 UV-I 139 W/m² 13,4 °C 15,2 °C 16,1 km/h (3 Bft)
12.07.2019 12:50 15,1 °C 89 % 1013,6 hPa 0,0 mm 9,2 km/h (2 Bft) W-NW 300 ° 0 min 0,000 mm 1,2 UV-I 146 W/m² 13,3 °C 15,1 °C 12,9 km/h (3 Bft)
12.07.2019 12:51 15,1 °C 89 % 1013,6 hPa 0,0 mm 4,3 km/h (1 Bft) W-SW 239 ° 0 min 0,000 mm 1,2 UV-I 148 W/m² 13,3 °C 15,1 °C 6,4 km/h (2 Bft)
12.07.2019 12:52 15,1 °C 89 % 1013,6 hPa 0,0 mm 9,2 km/h (2 Bft) W-SW 250 ° 0 min 0,000 mm 1,2 UV-I 148 W/m² 13,3 °C 15,1 °C 12,9 km/h (3 Bft)
12.07.2019 12:53 15,1 °C 89 % 1013,7 hPa 0,0 mm 9,8 km/h (2 Bft) W-SW 248 ° 0 min 0,000 mm 1,2 UV-I 146 W/m² 13,3 °C 15,1 °C 12,9 km/h (3 Bft)
12.07.2019 12:54 15,1 °C 90 % 1013,7 hPa 0,0 mm 4,8 km/h (1 Bft) W 277 ° 0 min 0,000 mm 1,2 UV-I 144 W/m² 13,5 °C 15,1 °C 6,4 km/h (2 Bft)
12.07.2019 12:55 15,1 °C 90 % 1013,7 hPa 0,0 mm 3,8 km/h (1 Bft) W 261 ° 0 min 0,000 mm 1,2 UV-I 142 W/m² 13,5 °C 15,1 °C 4,8 km/h (1 Bft)
12.07.2019 12:56 15,0 °C 90 % 1013,7 hPa 0,0 mm 3,0 km/h (1 Bft) W-SW 246 ° 0 min 0,000 mm 1,2 UV-I 141 W/m² 13,4 °C 15,0 °C 4,8 km/h (1 Bft)
12.07.2019 12:57 15,1 °C 90 % 1013,7 hPa 0,0 mm 4,1 km/h (1 Bft) W-SW 257 ° 0 min 0,000 mm 1,2 UV-I 141 W/m² 13,5 °C 15,1 °C 4,8 km/h (1 Bft)
12.07.2019 12:58 15,1 °C 90 % 1013,7 hPa 0,0 mm 4,2 km/h (1 Bft) W 275 ° 0 min 0,000 mm 1,2 UV-I 142 W/m² 13,5 °C 15,1 °C 4,8 km/h (1 Bft)
12.07.2019 12:59 15,0 °C 90 % 1013,7 hPa 0,0 mm 3,5 km/h (1 Bft) W-SW 250 ° 0 min 0,000 mm 1,2 UV-I 142 W/m² 13,4 °C 15,0 °C 6,4 km/h (2 Bft)
12.07.2019 13:00 15,0 °C 90 % 1013,7 hPa 0,0 mm 2,8 km/h (1 Bft) W-NW 290 ° 0 min 0,000 mm 1,2 UV-I 144 W/m² 13,4 °C 15,0 °C 4,8 km/h (1 Bft)
12.07.2019 13:01 15,0 °C 90 % 1013,8 hPa 0,0 mm 4,7 km/h (1 Bft) W-SW 250 ° 0 min 0,102 mm 1,2 UV-I 142 W/m² 13,4 °C 15,0 °C 11,3 km/h (2 Bft)
12.07.2019 13:02 14,9 °C 90 % 1013,8 hPa 0,0 mm 3,9 km/h (1 Bft) W 276 ° 0 min 0,000 mm 1,2 UV-I 142 W/m² 13,3 °C 14,9 °C 6,4 km/h (2 Bft)
12.07.2019 13:03 14,9 °C 90 % 1013,8 hPa 0,0 mm 4,1 km/h (1 Bft) W 264 ° 0 min 0,000 mm 1,1 UV-I 135 W/m² 13,3 °C 14,9 °C 6,4 km/h (2 Bft)
12.07.2019 13:04 14,9 °C 90 % 1013,8 hPa 0,0 mm 3,9 km/h (1 Bft) W-NW 295 ° 0 min 0,000 mm 1,1 UV-I 132 W/m² 13,3 °C 14,9 °C 6,4 km/h (2 Bft)
12.07.2019 13:05 14,9 °C 90 % 1013,9 hPa 0,0 mm 4,6 km/h (1 Bft) W-SW 248 ° 0 min 0,000 mm 1,1 UV-I 127 W/m² 13,3 °C 14,9 °C 9,7 km/h (2 Bft)
12.07.2019 13:06 14,9 °C 90 % 1013,8 hPa 0,0 mm 2,4 km/h (1 Bft) W-SW 251 ° 0 min 0,000 mm 1,1 UV-I 123 W/m² 13,3 °C 14,9 °C 4,8 km/h (1 Bft)
12.07.2019 13:07 14,9 °C 90 % 1013,8 hPa 0,0 mm 0,8 km/h (0 Bft) W-SW 249 ° 0 min 0,000 mm 1,0 UV-I 114 W/m² 13,3 °C 14,9 °C 6,4 km/h (2 Bft)
12.07.2019 13:08 14,8 °C 90 % 1013,8 hPa 0,0 mm 4,2 km/h (1 Bft) W-NW 282 ° 0 min 0,000 mm 1,0 UV-I 113 W/m² 13,2 °C 14,8 °C 11,3 km/h (2 Bft)
12.07.2019 13:09 14,8 °C 90 % 1013,8 hPa 0,0 mm 0,8 km/h (0 Bft) W 279 ° 0 min 0,000 mm 0,9 UV-I 109 W/m² 13,2 °C 14,8 °C 3,2 km/h (1 Bft)
12.07.2019 13:10 14,8 °C 90 % 1013,8 hPa 0,0 mm 5,0 km/h (1 Bft) W-NW 298 ° 0 min 0,000 mm 0,9 UV-I 105 W/m² 13,2 °C 14,8 °C 12,9 km/h (3 Bft)
12.07.2019 13:11 14,7 °C 90 % 1013,9 hPa 0,0 mm 5,7 km/h (1 Bft) W 269 ° 0 min 0,000 mm 0,9 UV-I 104 W/m² 13,1 °C 14,7 °C 12,9 km/h (3 Bft)
12.07.2019 13:12 14,7 °C 90 % 1013,8 hPa 0,0 mm 4,4 km/h (1 Bft) W 277 ° 0 min 0,000 mm 0,9 UV-I 102 W/m² 13,1 °C 14,7 °C 11,3 km/h (2 Bft)
12.07.2019 13:13 14,7 °C 90 % 1013,8 hPa 0,0 mm 5,5 km/h (1 Bft) W 261 ° 0 min 0,000 mm 0,9 UV-I 98 W/m² 13,1 °C 14,7 °C 9,7 km/h (2 Bft)
12.07.2019 13:14 14,6 °C 90 % 1013,8 hPa 0,0 mm 5,7 km/h (1 Bft) SW 235 ° 0 min 0,000 mm 0,8 UV-I 97 W/m² 13,0 °C 14,6 °C 11,3 km/h (2 Bft)
12.07.2019 13:15 14,6 °C 90 % 1013,8 hPa 0,0 mm 3,0 km/h (1 Bft) W-NW 288 ° 0 min 0,000 mm 0,8 UV-I 95 W/m² 13,0 °C 14,6 °C 6,4 km/h (2 Bft)
12.07.2019 13:16 14,5 °C 90 % 1013,7 hPa 0,0 mm 6,4 km/h (2 Bft) W 267 ° 0 min 0,000 mm 0,8 UV-I 91 W/m² 12,9 °C 14,5 °C 11,3 km/h (2 Bft)
12.07.2019 13:17 14,4 °C 90 % 1013,7 hPa 0,0 mm 3,4 km/h (1 Bft) W 279 ° 0 min 0,000 mm 0,8 UV-I 90 W/m² 12,8 °C 14,4 °C 4,8 km/h (1 Bft)
12.07.2019 13:18 14,4 °C 90 % 1013,7 hPa 0,0 mm 1,4 km/h (1 Bft) W 275 ° 0 min 0,000 mm 0,8 UV-I 88 W/m² 12,8 °C 14,4 °C 4,8 km/h (1 Bft)
12.07.2019 13:19 14,4 °C 91 % 1013,7 hPa 0,0 mm 1,5 km/h (1 Bft) W 260 ° 0 min 0,000 mm 0,8 UV-I 84 W/m² 12,9 °C 14,4 °C 4,8 km/h (1 Bft)
12.07.2019 13:20 14,4 °C 91 % 1013,7 hPa 0,0 mm 0,6 km/h (0 Bft) S 185 ° 0 min 0,000 mm 0,7 UV-I 84 W/m² 12,9 °C 14,4 °C 3,2 km/h (1 Bft)
12.07.2019 13:21 14,3 °C 91 % 1013,7 hPa 0,0 mm 1,1 km/h (1 Bft) SW 232 ° 0 min 0,000 mm 0,7 UV-I 81 W/m² 12,8 °C 14,3 °C 4,8 km/h (1 Bft)
12.07.2019 13:22 14,3 °C 91 % 1013,7 hPa 0,0 mm 1,3 km/h (1 Bft) W-SW 250 ° 0 min 0,000 mm 0,7 UV-I 79 W/m² 12,8 °C 14,3 °C 4,8 km/h (1 Bft)
12.07.2019 13:23 14,2 °C 91 % 1013,6 hPa 0,0 mm 2,8 km/h (1 Bft) W-SW 248 ° 0 min 0,000 mm 0,7 UV-I 77 W/m² 12,8 °C 14,2 °C 4,8 km/h (1 Bft)
12.07.2019 13:24 14,2 °C 90 % 1013,7 hPa 0,0 mm 0,9 km/h (0 Bft) W-SW 248 ° 0 min 0,000 mm 0,7 UV-I 76 W/m² 12,6 °C 14,2 °C 3,2 km/h (1 Bft)
12.07.2019 13:25 14,2 °C 90 % 1013,7 hPa 0,0 mm 0,7 km/h (0 Bft) W-SW 248 ° 0 min 0,000 mm 0,7 UV-I 74 W/m² 12,6 °C 14,2 °C 4,8 km/h (1 Bft)
12.07.2019 13:26 14,2 °C 90 % 1013,7 hPa 0,0 mm 0,5 km/h (0 Bft) W-SW 248 ° 0 min 0,000 mm 0,7 UV-I 74 W/m² 12,6 °C 14,2 °C 3,2 km/h (1 Bft)
12.07.2019 13:27 14,2 °C 90 % 1013,7 hPa 0,0 mm 1,3 km/h (1 Bft) W-SW 249 ° 0 min 0,000 mm 0,7 UV-I 76 W/m² 12,6 °C 14,2 °C 3,2 km/h (1 Bft)
12.07.2019 13:28 14,2 °C 89 % 1013,7 hPa 0,0 mm 1,3 km/h (1 Bft) W-SW 248 ° 0 min 0,000 mm 0,7 UV-I 76 W/m² 12,4 °C 14,2 °C 3,2 km/h (1 Bft)
12.07.2019 13:29 14,2 °C 90 % 1013,7 hPa 0,0 mm 3,8 km/h (1 Bft) SW 234 ° 0 min 0,000 mm 0,7 UV-I 76 W/m² 12,6 °C 14,2 °C 8,0 km/h (2 Bft)
12.07.2019 13:30 14,2 °C 89 % 1013,7 hPa 0,0 mm 3,0 km/h (1 Bft) W-SW 238 ° 0 min 0,000 mm 0,7 UV-I 77 W/m² 12,4 °C 14,2 °C 8,0 km/h (2 Bft)
12.07.2019 13:31 14,2 °C 89 % 1013,8 hPa 0,0 mm 2,3 km/h (1 Bft) W-SW 238 ° 0 min 0,000 mm 0,7 UV-I 79 W/m² 12,4 °C 14,2 °C 3,2 km/h (1 Bft)
12.07.2019 13:32 14,1 °C 89 % 1013,8 hPa 0,2 mm 2,0 km/h (1 Bft) SW 225 ° 0 min 0,000 mm 0,7 UV-I 83 W/m² 12,3 °C 14,1 °C 4,8 km/h (1 Bft)
12.07.2019 13:33 14,1 °C 89 % 1013,8 hPa 0,0 mm 0,6 km/h (0 Bft) SW 225 ° 0 min 0,000 mm 0,8 UV-I 84 W/m² 12,3 °C 14,1 °C 3,2 km/h (1 Bft)
12.07.2019 13:34 14,1 °C 89 % 1013,8 hPa 0,0 mm 0,0 km/h (0 Bft) SW 225 ° 0 min 0,000 mm 0,8 UV-I 90 W/m² 12,3 °C 14,1 °C 0,0 km/h (0 Bft)
12.07.2019 13:35 14,1 °C 89 % 1013,8 hPa 0,0 mm 0,0 km/h (0 Bft) SW 225 ° 0 min 0,000 mm 0,8 UV-I 95 W/m² 12,3 °C 14,1 °C 0,0 km/h (0 Bft)
12.07.2019 13:36 14,1 °C 90 % 1013,9 hPa 0,0 mm 3,0 km/h (1 Bft) SW 235 ° 0 min 0,000 mm 0,9 UV-I 100 W/m² 12,5 °C 14,1 °C 4,8 km/h (1 Bft)
12.07.2019 13:37 14,1 °C 90 % 1013,9 hPa 0,0 mm 8,4 km/h (2 Bft) W-SW 242 ° 0 min 0,000 mm 0,9 UV-I 111 W/m² 12,5 °C 14,1 °C 12,9 km/h (3 Bft)
12.07.2019 13:38 14,1 °C 90 % 1013,9 hPa 0,0 mm 2,4 km/h (1 Bft) W-SW 244 ° 0 min 0,000 mm 1,0 UV-I 111 W/m² 12,5 °C 14,1 °C 4,8 km/h (1 Bft)
12.07.2019 13:39 14,1 °C 90 % 1014,0 hPa 0,0 mm 1,4 km/h (1 Bft) W-SW 244 ° 0 min 0,000 mm 1,0 UV-I 120 W/m² 12,5 °C 14,1 °C 3,2 km/h (1 Bft)
12.07.2019 13:40 14,0 °C 90 % 1014,0 hPa 0,2 mm 0,9 km/h (0 Bft) SW 225 ° 0 min 0,000 mm 1,0 UV-I 125 W/m² 12,4 °C 14,0 °C 3,2 km/h (1 Bft)
12.07.2019 13:41 14,0 °C 90 % 1014,0 hPa 0,0 mm 1,5 km/h (1 Bft) SW 226 ° 0 min 0,000 mm 1,1 UV-I 128 W/m² 12,4 °C 14,0 °C 3,2 km/h (1 Bft)
12.07.2019 13:42 14,0 °C 90 % 1014,2 hPa 0,0 mm 3,8 km/h (1 Bft) W-SW 241 ° 0 min 0,000 mm 1,1 UV-I 130 W/m² 12,4 °C 14,0 °C 9,7 km/h (2 Bft)
12.07.2019 13:43 14,0 °C 90 % 1014,2 hPa 0,0 mm 4,8 km/h (1 Bft) W 265 ° 0 min 0,000 mm 1,1 UV-I 127 W/m² 12,4 °C 14,0 °C 9,7 km/h (2 Bft)
12.07.2019 13:44 14,0 °C 90 % 1014,2 hPa 0,0 mm 4,1 km/h (1 Bft) W-SW 252 ° 0 min 0,000 mm 1,1 UV-I 123 W/m² 12,4 °C 14,0 °C 6,4 km/h (2 Bft)
12.07.2019 13:45 14,0 °C 90 % 1014,2 hPa 0,0 mm 0,3 km/h (0 Bft) W-SW 252 ° 0 min 0,000 mm 1,0 UV-I 121 W/m² 12,4 °C 14,0 °C 1,6 km/h (1 Bft)
12.07.2019 13:46 14,0 °C 90 % 1014,2 hPa 0,2 mm 0,0 km/h (0 Bft) W-SW 252 ° 0 min 0,000 mm 1,0 UV-I 120 W/m² 12,4 °C 14,0 °C 0,0 km/h (0 Bft)
12.07.2019 13:47 13,9 °C 90 % 1014,1 hPa 0,0 mm 2,7 km/h (1 Bft) S-SW 207 ° 0 min 0,000 mm 1,0 UV-I 120 W/m² 12,3 °C 13,9 °C 3,2 km/h (1 Bft)
12.07.2019 13:48 13,8 °C 90 % 1014,1 hPa 0,0 mm 0,1 km/h (0 Bft) S-SW 207 ° 0 min 0,000 mm 1,0 UV-I 120 W/m² 12,2 °C 13,8 °C 1,6 km/h (1 Bft)
12.07.2019 13:49 13,8 °C 90 % 1014,1 hPa 0,0 mm 4,0 km/h (1 Bft) W 269 ° 0 min 0,000 mm 1,0 UV-I 120 W/m² 12,2 °C 13,8 °C 12,9 km/h (3 Bft)
12.07.2019 13:50 13,8 °C 89 % 1014,1 hPa 0,0 mm 1,1 km/h (1 Bft) S 190 ° 0 min 0,000 mm 1,0 UV-I 120 W/m² 12,0 °C 13,8 °C 4,8 km/h (1 Bft)
12.07.2019 13:51 13,8 °C 90 % 1014,0 hPa 0,0 mm 0,7 km/h (0 Bft) S 189 ° 0 min 0,000 mm 1,0 UV-I 120 W/m² 12,2 °C 13,8 °C 1,6 km/h (1 Bft)
12.07.2019 13:52 13,7 °C 90 % 1014,0 hPa 0,0 mm 0,0 km/h (0 Bft) S 189 ° 0 min 0,000 mm 1,0 UV-I 120 W/m² 12,1 °C 13,7 °C 0,0 km/h (0 Bft)
12.07.2019 13:53 13,6 °C 90 % 1014,0 hPa 0,0 mm 0,0 km/h (0 Bft) S 189 ° 0 min 0,000 mm 1,1 UV-I 121 W/m² 12,0 °C 13,6 °C 0,0 km/h (0 Bft)
12.07.2019 13:54 13,6 °C 90 % 1014,0 hPa 0,0 mm 0,1 km/h (0 Bft) S 189 ° 0 min 0,000 mm 1,1 UV-I 127 W/m² 12,0 °C 13,6 °C 1,6 km/h (1 Bft)
12.07.2019 13:55 13,6 °C 90 % 1013,9 hPa 0,0 mm 0,0 km/h (0 Bft) S 189 ° 0 min 0,000 mm 1,2 UV-I 134 W/m² 12,0 °C 13,6 °C 0,0 km/h (0 Bft)
12.07.2019 13:56 13,6 °C 91 % 1013,9 hPa 0,0 mm 0,7 km/h (0 Bft) O-NO 76 ° 0 min 0,000 mm 1,2 UV-I 134 W/m² 12,2 °C 13,6 °C 4,8 km/h (1 Bft)
12.07.2019 13:57 13,5 °C 91 % 1013,9 hPa 0,2 mm 1,9 km/h (1 Bft) S-SW 205 ° 0 min 0,000 mm 1,3 UV-I 148 W/m² 12,1 °C 13,5 °C 4,8 km/h (1 Bft)
12.07.2019 13:58 13,4 °C 92 % 1013,8 hPa 0,0 mm 2,3 km/h (1 Bft) SW 229 ° 0 min 0,000 mm 1,3 UV-I 155 W/m² 12,1 °C 13,4 °C 4,8 km/h (1 Bft)
12.07.2019 13:59 13,4 °C 91 % 1013,8 hPa 0,0 mm 0,8 km/h (0 Bft) W-NW 285 ° 0 min 0,000 mm 1,4 UV-I 162 W/m² 12,0 °C 13,4 °C 3,2 km/h (1 Bft)
12.07.2019 14:00 13,4 °C 92 % 1013,7 hPa 0,0 mm 0,9 km/h (0 Bft) W 278 ° 0 min 0,000 mm 1,4 UV-I 165 W/m² 12,1 °C 13,4 °C 1,6 km/h (1 Bft)
12.07.2019 14:01 13,4 °C 92 % 1013,7 hPa 0,0 mm 0,0 km/h (0 Bft) W 278 ° 0 min 0,051 mm 1,4 UV-I 165 W/m² 12,1 °C 13,4 °C 0,0 km/h (0 Bft)
12.07.2019 14:02 13,4 °C 92 % 1013,7 hPa 0,0 mm 0,1 km/h (0 Bft) W 278 ° 0 min 0,000 mm 1,4 UV-I 165 W/m² 12,1 °C 13,4 °C 1,6 km/h (1 Bft)
12.07.2019 14:03 13,4 °C 92 % 1013,6 hPa 0,0 mm 0,0 km/h (0 Bft) W 278 ° 0 min 0,000 mm 1,4 UV-I 167 W/m² 12,1 °C 13,4 °C 0,0 km/h (0 Bft)
12.07.2019 14:04 13,3 °C 92 % 1013,7 hPa 0,0 mm 0,0 km/h (0 Bft) W 278 ° 0 min 0,000 mm 1,5 UV-I 169 W/m² 12,0 °C 13,3 °C 0,0 km/h (0 Bft)
12.07.2019 14:05 13,3 °C 92 % 1013,6 hPa 0,0 mm 0,0 km/h (0 Bft) W 278 ° 0 min 0,000 mm 1,5 UV-I 171 W/m² 12,0 °C 13,3 °C 0,0 km/h (0 Bft)
12.07.2019 14:06 13,3 °C 92 % 1013,6 hPa 0,0 mm 0,3 km/h (0 Bft) W 278 ° 0 min 0,000 mm 1,4 UV-I 165 W/m² 12,0 °C 13,3 °C 1,6 km/h (1 Bft)
12.07.2019 14:07 13,4 °C 92 % 1013,6 hPa 0,0 mm 5,0 km/h (1 Bft) W-SW 250 ° 0 min 0,000 mm 1,4 UV-I 165 W/m² 12,1 °C 13,4 °C 6,4 km/h (2 Bft)
12.07.2019 14:08 13,4 °C 92 % 1013,7 hPa 0,0 mm 2,7 km/h (1 Bft) W-SW 250 ° 0 min 0,000 mm 1,4 UV-I 165 W/m² 12,1 °C 13,4 °C 3,2 km/h (1 Bft)
12.07.2019 14:09 13,6 °C 92 % 1013,7 hPa 0,0 mm 3,1 km/h (1 Bft) W-SW 250 ° 0 min 0,000 mm 1,5 UV-I 171 W/m² 12,3 °C 13,6 °C 4,8 km/h (1 Bft)
12.07.2019 14:10 13,6 °C 92 % 1013,6 hPa 0,0 mm 3,0 km/h (1 Bft) W-SW 250 ° 0 min 0,000 mm 1,5 UV-I 176 W/m² 12,3 °C 13,6 °C 4,8 km/h (1 Bft)
12.07.2019 14:11 13,7 °C 91 % 1013,6 hPa 0,0 mm 0,7 km/h (0 Bft) W-SW 250 ° 0 min 0,000 mm 1,5 UV-I 178 W/m² 12,3 °C 13,7 °C 3,2 km/h (1 Bft)
12.07.2019 14:12 13,8 °C 91 % 1013,6 hPa 0,0 mm 1,4 km/h (1 Bft) W-SW 250 ° 0 min 0,000 mm 1,5 UV-I 172 W/m² 12,4 °C 13,8 °C 3,2 km/h (1 Bft)
12.07.2019 14:13 13,8 °C 91 % 1013,6 hPa 0,0 mm 0,2 km/h (0 Bft) W-SW 250 ° 0 min 0,000 mm 1,4 UV-I 167 W/m² 12,4 °C 13,8 °C 1,6 km/h (1 Bft)
12.07.2019 14:14 13,9 °C 91 % 1013,6 hPa 0,2 mm 2,3 km/h (1 Bft) W-SW 250 ° 0 min 0,000 mm 1,4 UV-I 167 W/m² 12,5 °C 13,9 °C 3,2 km/h (1 Bft)
12.07.2019 14:15 13,9 °C 91 % 1013,6 hPa 0,0 mm 3,5 km/h (1 Bft) W-SW 249 ° 0 min 0,000 mm 1,4 UV-I 162 W/m² 12,5 °C 13,9 °C 4,8 km/h (1 Bft)
12.07.2019 14:16 14,0 °C 91 % 1013,5 hPa 0,0 mm 0,5 km/h (0 Bft) W-SW 248 ° 0 min 0,000 mm 1,3 UV-I 158 W/m² 12,6 °C 14,0 °C 3,2 km/h (1 Bft)
12.07.2019 14:17 13,9 °C 91 % 1013,5 hPa 0,0 mm 0,0 km/h (0 Bft) W-SW 249 ° 0 min 0,000 mm 1,3 UV-I 146 W/m² 12,5 °C 13,9 °C 0,0 km/h (0 Bft)
12.07.2019 14:18 13,8 °C 91 % 1013,5 hPa 0,0 mm 0,0 km/h (0 Bft) W-SW 249 ° 0 min 0,000 mm 1,3 UV-I 142 W/m² 12,4 °C 13,8 °C 0,0 km/h (0 Bft)
12.07.2019 14:19 13,7 °C 91 % 1013,5 hPa 0,0 mm 0,0 km/h (0 Bft) W-SW 249 ° 0 min 0,000 mm 1,2 UV-I 139 W/m² 12,3 °C 13,7 °C 0,0 km/h (0 Bft)
12.07.2019 14:20 13,7 °C 92 % 1013,5 hPa 0,0 mm 0,0 km/h (0 Bft) W-SW 249 ° 0 min 0,000 mm 1,2 UV-I 135 W/m² 12,4 °C 13,7 °C 0,0 km/h (0 Bft)
12.07.2019 14:21 13,7 °C 92 % 1013,4 hPa 0,0 mm 0,0 km/h (0 Bft) W-SW 249 ° 0 min 0,000 mm 1,1 UV-I 132 W/m² 12,4 °C 13,7 °C 0,0 km/h (0 Bft)
12.07.2019 14:22 13,7 °C 92 % 1013,4 hPa 0,0 mm 1,1 km/h (1 Bft) W-SW 249 ° 0 min 0,000 mm 1,1 UV-I 132 W/m² 12,4 °C 13,7 °C 4,8 km/h (1 Bft)
12.07.2019 14:23 13,7 °C 92 % 1013,4 hPa 0,0 mm 3,2 km/h (1 Bft) W 266 ° 0 min 0,000 mm 1,1 UV-I 132 W/m² 12,4 °C 13,7 °C 6,4 km/h (2 Bft)
12.07.2019 14:24 13,7 °C 92 % 1013,3 hPa 0,0 mm 2,1 km/h (1 Bft) SO 144 ° 0 min 0,000 mm 1,1 UV-I 132 W/m² 12,4 °C 13,7 °C 3,2 km/h (1 Bft)
12.07.2019 14:25 13,8 °C 92 % 1013,2 hPa 0,0 mm 0,7 km/h (0 Bft) S 191 ° 0 min 0,000 mm 1,2 UV-I 135 W/m² 12,5 °C 13,8 °C 3,2 km/h (1 Bft)
12.07.2019 14:26 13,8 °C 92 % 1013,1 hPa 0,0 mm 1,5 km/h (1 Bft) W 276 ° 0 min 0,000 mm 1,2 UV-I 137 W/m² 12,5 °C 13,8 °C 3,2 km/h (1 Bft)
12.07.2019 14:27 13,7 °C 92 % 1013,1 hPa 0,0 mm 1,5 km/h (1 Bft) W 273 ° 0 min 0,000 mm 1,2 UV-I 141 W/m² 12,4 °C 13,7 °C 4,8 km/h (1 Bft)
12.07.2019 14:28 13,7 °C 92 % 1013,0 hPa 0,0 mm 3,1 km/h (1 Bft) S-SW 202 ° 0 min 0,000 mm 1,2 UV-I 146 W/m² 12,4 °C 13,7 °C 6,4 km/h (2 Bft)
12.07.2019 14:29 13,7 °C 92 % 1013,0 hPa 0,2 mm 3,8 km/h (1 Bft) SW 215 ° 0 min 0,000 mm 1,3 UV-I 156 W/m² 12,4 °C 13,7 °C 9,7 km/h (2 Bft)
12.07.2019 14:30 13,7 °C 92 % 1012,9 hPa 0,0 mm 3,6 km/h (1 Bft) W-SW 244 ° 0 min 0,000 mm 1,4 UV-I 160 W/m² 12,4 °C 13,7 °C 6,4 km/h (2 Bft)
12.07.2019 14:31 13,8 °C 92 % 1012,9 hPa 0,0 mm 0,4 km/h (0 Bft) W 281 ° 0 min 0,000 mm 1,4 UV-I 162 W/m² 12,5 °C 13,8 °C 3,2 km/h (1 Bft)
12.07.2019 14:32 13,7 °C 92 % 1012,9 hPa 0,0 mm 1,7 km/h (1 Bft) W-SW 245 ° 0 min 0,000 mm 1,4 UV-I 162 W/m² 12,4 °C 13,7 °C 4,8 km/h (1 Bft)
12.07.2019 14:33 13,7 °C 92 % 1012,9 hPa 0,0 mm 5,0 km/h (1 Bft) W-SW 247 ° 0 min 0,000 mm 1,4 UV-I 162 W/m² 12,4 °C 13,7 °C 6,4 km/h (2 Bft)
12.07.2019 14:34 13,7 °C 91 % 1013,0 hPa 0,0 mm 5,0 km/h (1 Bft) W-SW 250 ° 0 min 0,000 mm 1,4 UV-I 162 W/m² 12,3 °C 13,7 °C 9,7 km/h (2 Bft)
12.07.2019 14:35 13,7 °C 91 % 1013,0 hPa 0,0 mm 3,8 km/h (1 Bft) N 360 ° 0 min 0,000 mm 1,3 UV-I 153 W/m² 12,3 °C 13,7 °C 6,4 km/h (2 Bft)
12.07.2019 14:36 13,8 °C 92 % 1012,9 hPa 0,0 mm 4,2 km/h (1 Bft) W-SW 248 ° 0 min 0,000 mm 1,3 UV-I 149 W/m² 12,5 °C 13,8 °C 11,3 km/h (2 Bft)
12.07.2019 14:37 13,8 °C 92 % 1012,9 hPa 0,0 mm 5,1 km/h (1 Bft) W 271 ° 0 min 0,000 mm 1,3 UV-I 149 W/m² 12,5 °C 13,8 °C 8,0 km/h (2 Bft)
12.07.2019 14:38 13,8 °C 91 % 1012,9 hPa 0,0 mm 4,8 km/h (1 Bft) W 264 ° 0 min 0,000 mm 1,3 UV-I 151 W/m² 12,4 °C 13,8 °C 11,3 km/h (2 Bft)
12.07.2019 14:39 13,8 °C 91 % 1012,9 hPa 0,0 mm 4,3 km/h (1 Bft) SW 214 ° 0 min 0,000 mm 1,2 UV-I 148 W/m² 12,4 °C 13,8 °C 11,3 km/h (2 Bft)
12.07.2019 14:40 13,8 °C 91 % 1012,9 hPa 0,0 mm 2,2 km/h (1 Bft) W-NW 284 ° 0 min 0,000 mm 1,2 UV-I 142 W/m² 12,4 °C 13,8 °C 6,4 km/h (2 Bft)
12.07.2019 14:41 13,8 °C 91 % 1012,9 hPa 0,0 mm 0,7 km/h (0 Bft) S-SO 159 ° 0 min 0,000 mm 1,2 UV-I 139 W/m² 12,4 °C 13,8 °C 3,2 km/h (1 Bft)
12.07.2019 14:42 13,8 °C 91 % 1012,9 hPa 0,2 mm 2,8 km/h (1 Bft) W-SW 253 ° 0 min 0,000 mm 1,2 UV-I 142 W/m² 12,4 °C 13,8 °C 6,4 km/h (2 Bft)
12.07.2019 14:43 13,7 °C 91 % 1012,9 hPa 0,0 mm 5,1 km/h (1 Bft) W-SW 254 ° 0 min 0,000 mm 1,3 UV-I 151 W/m² 12,3 °C 13,7 °C 9,7 km/h (2 Bft)
12.07.2019 14:44 13,7 °C 90 % 1013,0 hPa 0,0 mm 4,8 km/h (1 Bft) W-NW 292 ° 0 min 0,000 mm 1,4 UV-I 162 W/m² 12,1 °C 13,7 °C 9,7 km/h (2 Bft)
12.07.2019 14:45 13,7 °C 90 % 1013,0 hPa 0,0 mm 7,1 km/h (2 Bft) W-SW 256 ° 0 min 0,000 mm 1,5 UV-I 169 W/m² 12,1 °C 13,7 °C 11,3 km/h (2 Bft)
12.07.2019 14:46 13,7 °C 90 % 1013,0 hPa 0,0 mm 1,7 km/h (1 Bft) W-SW 254 ° 0 min 0,000 mm 1,5 UV-I 174 W/m² 12,1 °C 13,7 °C 3,2 km/h (1 Bft)
12.07.2019 14:47 13,7 °C 89 % 1013,0 hPa 0,0 mm 0,0 km/h (0 Bft) W-SW 254 ° 0 min 0,000 mm 1,5 UV-I 176 W/m² 11,9 °C 13,7 °C 0,0 km/h (0 Bft)
12.07.2019 14:48 13,7 °C 90 % 1012,9 hPa 0,0 mm 4,2 km/h (1 Bft) W 260 ° 0 min 0,000 mm 1,5 UV-I 176 W/m² 12,1 °C 13,7 °C 6,4 km/h (2 Bft)
12.07.2019 14:49 13,7 °C 90 % 1012,8 hPa 0,0 mm 3,8 km/h (1 Bft) W 267 ° 0 min 0,000 mm 1,5 UV-I 174 W/m² 12,1 °C 13,7 °C 6,4 km/h (2 Bft)
12.07.2019 14:50 13,8 °C 90 % 1012,8 hPa 0,0 mm 4,0 km/h (1 Bft) W 261 ° 0 min 0,000 mm 1,5 UV-I 176 W/m² 12,2 °C 13,8 °C 4,8 km/h (1 Bft)
12.07.2019 14:51 13,8 °C 90 % 1012,9 hPa 0,0 mm 4,2 km/h (1 Bft) W-NW 284 ° 0 min 0,000 mm 1,5 UV-I 178 W/m² 12,2 °C 13,8 °C 6,4 km/h (2 Bft)
12.07.2019 14:52 13,8 °C 89 % 1012,9 hPa 0,0 mm 2,9 km/h (1 Bft) SW 224 ° 0 min 0,000 mm 1,5 UV-I 179 W/m² 12,0 °C 13,8 °C 4,8 km/h (1 Bft)
12.07.2019 14:53 13,8 °C 89 % 1012,9 hPa 0,0 mm 2,5 km/h (1 Bft) W 261 ° 0 min 0,000 mm 1,5 UV-I 186 W/m² 12,0 °C 13,8 °C 4,8 km/h (1 Bft)
12.07.2019 14:54 13,8 °C 90 % 1012,9 hPa 0,0 mm 5,2 km/h (1 Bft) W-SW 241 ° 0 min 0,000 mm 1,6 UV-I 192 W/m² 12,2 °C 13,8 °C 9,7 km/h (2 Bft)
12.07.2019 14:55 13,9 °C 90 % 1012,9 hPa 0,0 mm 1,9 km/h (1 Bft) W-SW 257 ° 0 min 0,000 mm 1,6 UV-I 199 W/m² 12,3 °C 13,9 °C 3,2 km/h (1 Bft)
12.07.2019 14:56 13,8 °C 89 % 1012,9 hPa 0,0 mm 3,3 km/h (1 Bft) W 267 ° 0 min 0,000 mm 1,6 UV-I 204 W/m² 12,0 °C 13,8 °C 4,8 km/h (1 Bft)
12.07.2019 14:57 13,9 °C 89 % 1012,9 hPa 0,0 mm 3,0 km/h (1 Bft) W 263 ° 0 min 0,000 mm 1,7 UV-I 216 W/m² 12,1 °C 13,9 °C 9,7 km/h (2 Bft)
12.07.2019 14:58 13,9 °C 89 % 1012,9 hPa 0,0 mm 4,4 km/h (1 Bft) W 271 ° 0 min 0,000 mm 1,8 UV-I 237 W/m² 12,1 °C 13,9 °C 6,4 km/h (2 Bft)
12.07.2019 14:59 14,1 °C 90 % 1012,9 hPa 0,0 mm 2,8 km/h (1 Bft) W 269 ° 0 min 0,000 mm 1,8 UV-I 214 W/m² 12,5 °C 14,1 °C 3,2 km/h (1 Bft)
12.07.2019 15:00 14,1 °C 90 % 1012,9 hPa 0,0 mm 1,4 km/h (1 Bft) S 191 ° 0 min 0,000 mm 1,7 UV-I 211 W/m² 12,5 °C 14,1 °C 3,2 km/h (1 Bft)
12.07.2019 15:01 14,2 °C 90 % 1012,8 hPa 0,0 mm 1,8 km/h (1 Bft) S-SW 193 ° 0 min 0,076 mm 1,7 UV-I 211 W/m² 12,6 °C 14,2 °C 3,2 km/h (1 Bft)
12.07.2019 15:02 14,2 °C 89 % 1012,9 hPa 0,0 mm 3,8 km/h (1 Bft) W 271 ° 0 min 0,000 mm 1,8 UV-I 220 W/m² 12,4 °C 14,2 °C 6,4 km/h (2 Bft)
12.07.2019 15:03 14,2 °C 89 % 1012,8 hPa 0,0 mm 5,6 km/h (1 Bft) W-NW 290 ° 0 min 0,000 mm 2,0 UV-I 241 W/m² 12,4 °C 14,2 °C 9,7 km/h (2 Bft)
12.07.2019 15:04 14,3 °C 88 % 1012,8 hPa 0,0 mm 4,1 km/h (1 Bft) W 269 ° 0 min 0,000 mm 2,2 UV-I 295 W/m² 12,3 °C 14,3 °C 6,4 km/h (2 Bft)
12.07.2019 15:05 14,4 °C 89 % 1012,8 hPa 0,0 mm 4,6 km/h (1 Bft) W-SW 253 ° 0 min 0,000 mm 2,5 UV-I 330 W/m² 12,6 °C 14,4 °C 6,4 km/h (2 Bft)
12.07.2019 15:06 14,5 °C 89 % 1012,8 hPa 0,0 mm 4,9 km/h (1 Bft) W 267 ° 0 min 0,000 mm 2,9 UV-I 353 W/m² 12,7 °C 14,5 °C 9,7 km/h (2 Bft)
12.07.2019 15:07 14,7 °C 89 % 1012,8 hPa 0,0 mm 3,4 km/h (1 Bft) W-NW 288 ° 0 min 0,000 mm 3,1 UV-I 385 W/m² 12,9 °C 14,7 °C 6,4 km/h (2 Bft)
12.07.2019 15:08 14,8 °C 88 % 1012,7 hPa 0,0 mm 4,6 km/h (1 Bft) W-NW 285 ° 0 min 0,000 mm 3,0 UV-I 364 W/m² 12,8 °C 14,8 °C 8,0 km/h (2 Bft)
12.07.2019 15:09 14,9 °C 88 % 1012,7 hPa 0,0 mm 1,7 km/h (1 Bft) NW 319 ° 0 min 0,000 mm 2,9 UV-I 345 W/m² 12,9 °C 14,9 °C 3,2 km/h (1 Bft)
12.07.2019 15:10 15,1 °C 87 % 1012,7 hPa 0,0 mm 4,0 km/h (1 Bft) W-NW 291 ° 0 min 0,000 mm 2,7 UV-I 316 W/m² 13,0 °C 15,1 °C 6,4 km/h (2 Bft)
12.07.2019 15:11 15,1 °C 87 % 1012,7 hPa 0,0 mm 2,2 km/h (1 Bft) W 279 ° 0 min 0,000 mm 2,6 UV-I 260 W/m² 13,0 °C 15,1 °C 4,8 km/h (1 Bft)
12.07.2019 15:12 15,2 °C 86 % 1012,7 hPa 0,0 mm 3,4 km/h (1 Bft) SW 221 ° 0 min 0,000 mm 2,2 UV-I 241 W/m² 12,9 °C 15,2 °C 6,4 km/h (2 Bft)
12.07.2019 15:13 15,2 °C 86 % 1012,7 hPa 0,0 mm 0,5 km/h (0 Bft) SW 218 ° 0 min 0,000 mm 2,2 UV-I 229 W/m² 12,9 °C 15,2 °C 3,2 km/h (1 Bft)
12.07.2019 15:14 15,2 °C 88 % 1012,8 hPa 0,0 mm 2,1 km/h (1 Bft) W 274 ° 0 min 0,000 mm 2,1 UV-I 221 W/m² 13,2 °C 15,2 °C 4,8 km/h (1 Bft)
12.07.2019 15:15 15,2 °C 85 % 1012,8 hPa 0,0 mm 2,6 km/h (1 Bft) S 190 ° 0 min 0,000 mm 2,1 UV-I 220 W/m² 12,7 °C 15,2 °C 4,8 km/h (1 Bft)
12.07.2019 15:16 15,2 °C 86 % 1012,8 hPa 0,0 mm 0,0 km/h (0 Bft) S 190 ° 0 min 0,000 mm 2,0 UV-I 221 W/m² 12,9 °C 15,2 °C 0,0 km/h (0 Bft)
12.07.2019 15:17 15,3 °C 86 % 1012,8 hPa 0,0 mm 0,0 km/h (0 Bft) S 190 ° 0 min 0,000 mm 2,1 UV-I 230 W/m² 13,0 °C 15,3 °C 0,0 km/h (0 Bft)
12.07.2019 15:18 15,3 °C 86 % 1012,7 hPa 0,0 mm 0,0 km/h (0 Bft) S 190 ° 0 min 0,000 mm 2,1 UV-I 237 W/m² 13,0 °C 15,3 °C 0,0 km/h (0 Bft)
12.07.2019 15:19 15,3 °C 85 % 1012,7 hPa 0,0 mm 2,3 km/h (1 Bft) W-NW 296 ° 0 min 0,000 mm 2,1 UV-I 237 W/m² 12,8 °C 15,3 °C 6,4 km/h (2 Bft)
12.07.2019 15:20 15,3 °C 83 % 1012,7 hPa 0,0 mm 3,0 km/h (1 Bft) W-NW 296 ° 0 min 0,000 mm 2,0 UV-I 232 W/m² 12,4 °C 15,3 °C 4,8 km/h (1 Bft)
12.07.2019 15:21 15,3 °C 84 % 1012,7 hPa 0,0 mm 3,2 km/h (1 Bft) W 267 ° 0 min 0,000 mm 1,9 UV-I 223 W/m² 12,6 °C 15,3 °C 6,4 km/h (2 Bft)
12.07.2019 15:22 15,3 °C 84 % 1012,8 hPa 0,0 mm 3,3 km/h (1 Bft) SW 228 ° 0 min 0,000 mm 1,8 UV-I 211 W/m² 12,6 °C 15,3 °C 4,8 km/h (1 Bft)
12.07.2019 15:23 15,3 °C 83 % 1012,8 hPa 0,0 mm 1,1 km/h (1 Bft) W-SW 257 ° 0 min 0,000 mm 1,5 UV-I 183 W/m² 12,4 °C 15,3 °C 4,8 km/h (1 Bft)
12.07.2019 15:24 15,3 °C 84 % 1012,8 hPa 0,0 mm 0,9 km/h (0 Bft) W 259 ° 0 min 0,000 mm 1,4 UV-I 165 W/m² 12,6 °C 15,3 °C 3,2 km/h (1 Bft)
12.07.2019 15:25 15,3 °C 84 % 1012,8 hPa 0,0 mm 1,0 km/h (0 Bft) W-SW 258 ° 0 min 0,000 mm 1,3 UV-I 148 W/m² 12,6 °C 15,3 °C 3,2 km/h (1 Bft)
12.07.2019 15:26 15,2 °C 86 % 1012,8 hPa 0,0 mm 0,0 km/h (0 Bft) W-SW 258 ° 0 min 0,000 mm 1,1 UV-I 130 W/m² 12,9 °C 15,2 °C 0,0 km/h (0 Bft)
12.07.2019 15:27 15,0 °C 87 % 1012,8 hPa 0,0 mm 2,0 km/h (1 Bft) W-SW 245 ° 0 min 0,000 mm 1,0 UV-I 116 W/m² 12,9 °C 15,0 °C 6,4 km/h (2 Bft)
12.07.2019 15:28 14,8 °C 87 % 1012,8 hPa 0,0 mm 7,6 km/h (2 Bft) W-SW 254 ° 0 min 0,000 mm 0,9 UV-I 105 W/m² 12,7 °C 14,8 °C 14,5 km/h (3 Bft)
12.07.2019 15:29 14,8 °C 85 % 1012,7 hPa 0,0 mm 4,0 km/h (1 Bft) W 264 ° 0 min 0,000 mm 0,9 UV-I 111 W/m² 12,3 °C 14,8 °C 4,8 km/h (1 Bft)
12.07.2019 15:30 14,8 °C 84 % 1012,7 hPa 0,0 mm 1,2 km/h (1 Bft) W 264 ° 0 min 0,000 mm 0,9 UV-I 116 W/m² 12,1 °C 14,8 °C 3,2 km/h (1 Bft)
12.07.2019 15:31 14,7 °C 83 % 1012,6 hPa 0,0 mm 2,5 km/h (1 Bft) S-SW 202 ° 0 min 0,000 mm 1,0 UV-I 123 W/m² 11,8 °C 14,7 °C 11,3 km/h (2 Bft)
12.07.2019 15:32 14,7 °C 82 % 1012,6 hPa 0,0 mm 8,4 km/h (2 Bft) S 191 ° 0 min 0,000 mm 1,0 UV-I 130 W/m² 11,7 °C 14,7 °C 12,9 km/h (3 Bft)
12.07.2019 15:33 14,7 °C 81 % 1012,6 hPa 0,0 mm 5,9 km/h (2 Bft) W-NW 296 ° 0 min 0,000 mm 1,1 UV-I 141 W/m² 11,5 °C 14,7 °C 12,9 km/h (3 Bft)
12.07.2019 15:34 14,7 °C 82 % 1012,5 hPa 0,0 mm 4,6 km/h (1 Bft) W 269 ° 0 min 0,000 mm 1,3 UV-I 174 W/m² 11,7 °C 14,7 °C 8,0 km/h (2 Bft)
12.07.2019 15:35 14,7 °C 83 % 1012,6 hPa 0,0 mm 6,9 km/h (2 Bft) W 275 ° 0 min 0,000 mm 1,5 UV-I 185 W/m² 11,8 °C 14,7 °C 11,3 km/h (2 Bft)
12.07.2019 15:36 14,7 °C 83 % 1012,6 hPa 0,0 mm 4,6 km/h (1 Bft) S-SW 195 ° 0 min 0,000 mm 1,4 UV-I 185 W/m² 11,8 °C 14,7 °C 6,4 km/h (2 Bft)
12.07.2019 15:37 14,7 °C 83 % 1012,6 hPa 0,0 mm 3,4 km/h (1 Bft) W 270 ° 0 min 0,000 mm 1,3 UV-I 172 W/m² 11,8 °C 14,7 °C 9,7 km/h (2 Bft)
12.07.2019 15:38 14,7 °C 82 % 1012,6 hPa 0,0 mm 6,0 km/h (2 Bft) SW 233 ° 0 min 0,000 mm 1,2 UV-I 155 W/m² 11,7 °C 14,7 °C 8,0 km/h (2 Bft)
12.07.2019 15:39 14,7 °C 82 % 1012,6 hPa 0,0 mm 3,4 km/h (1 Bft) S-SW 196 ° 0 min 0,000 mm 1,1 UV-I 141 W/m² 11,7 °C 14,7 °C 4,8 km/h (1 Bft)
12.07.2019 15:40 14,7 °C 83 % 1012,6 hPa 0,0 mm 2,1 km/h (1 Bft) S-SW 199 ° 0 min 0,000 mm 1,0 UV-I 141 W/m² 11,8 °C 14,7 °C 4,8 km/h (1 Bft)
12.07.2019 15:41 14,7 °C 82 % 1012,6 hPa 0,0 mm 4,3 km/h (1 Bft) S-SW 213 ° 0 min 0,000 mm 1,1 UV-I 146 W/m² 11,7 °C 14,7 °C 12,9 km/h (3 Bft)
12.07.2019 15:42 14,8 °C 81 % 1012,7 hPa 0,0 mm 0,6 km/h (0 Bft) S-SW 194 ° 0 min 0,000 mm 1,1 UV-I 153 W/m² 11,6 °C 14,8 °C 3,2 km/h (1 Bft)
12.07.2019 15:43 14,7 °C 83 % 1012,6 hPa 0,0 mm 0,0 km/h (0 Bft) S-SW 193 ° 0 min 0,000 mm 1,2 UV-I 158 W/m² 11,8 °C 14,7 °C 0,0 km/h (0 Bft)
12.07.2019 15:44 14,6 °C 86 % 1012,6 hPa 0,0 mm 0,8 km/h (0 Bft) S 175 ° 0 min 0,000 mm 1,2 UV-I 158 W/m² 12,3 °C 14,6 °C 3,2 km/h (1 Bft)
12.07.2019 15:45 14,4 °C 87 % 1012,6 hPa 0,0 mm 0,0 km/h (0 Bft) S 174 ° 0 min 0,000 mm 1,3 UV-I 169 W/m² 12,3 °C 14,4 °C 0,0 km/h (0 Bft)
12.07.2019 15:46 14,2 °C 88 % 1012,7 hPa 0,0 mm 0,6 km/h (0 Bft) S 174 ° 0 min 0,000 mm 1,2 UV-I 167 W/m² 12,2 °C 14,2 °C 3,2 km/h (1 Bft)
12.07.2019 15:47 14,1 °C 89 % 1012,7 hPa 0,0 mm 0,2 km/h (0 Bft) S 174 ° 0 min 0,000 mm 1,2 UV-I 171 W/m² 12,3 °C 14,1 °C 1,6 km/h (1 Bft)
12.07.2019 15:48 13,9 °C 89 % 1012,7 hPa 0,0 mm 1,0 km/h (0 Bft) S 174 ° 0 min 0,000 mm 1,3 UV-I 178 W/m² 12,1 °C 13,9 °C 3,2 km/h (1 Bft)
12.07.2019 15:49 13,9 °C 90 % 1012,8 hPa 0,0 mm 0,6 km/h (0 Bft) S 178 ° 0 min 0,000 mm 1,4 UV-I 188 W/m² 12,3 °C 13,9 °C 1,6 km/h (1 Bft)
12.07.2019 15:50 14,0 °C 90 % 1012,8 hPa 0,0 mm 0,0 km/h (0 Bft) S 180 ° 0 min 0,000 mm 1,5 UV-I 202 W/m² 12,4 °C 14,0 °C 0,0 km/h (0 Bft)
12.07.2019 15:51 13,9 °C 90 % 1012,8 hPa 0,0 mm 1,1 km/h (1 Bft) S 180 ° 0 min 0,000 mm 1,6 UV-I 241 W/m² 12,3 °C 13,9 °C 3,2 km/h (1 Bft)
12.07.2019 15:52 14,0 °C 91 % 1012,8 hPa 0,0 mm 0,0 km/h (0 Bft) S 180 ° 0 min 0,000 mm 1,7 UV-I 248 W/m² 12,6 °C 14,0 °C 0,0 km/h (0 Bft)
12.07.2019 15:53 14,0 °C 91 % 1012,8 hPa 0,0 mm 0,0 km/h (0 Bft) S 180 ° 0 min 0,000 mm 1,9 UV-I 262 W/m² 12,6 °C 14,0 °C 0,0 km/h (0 Bft)
12.07.2019 15:54 13,9 °C 91 % 1012,8 hPa 0,0 mm 0,0 km/h (0 Bft) S 180 ° 0 min 0,000 mm 2,5 UV-I 297 W/m² 12,5 °C 13,9 °C 0,0 km/h (0 Bft)
12.07.2019 15:55 14,0 °C 91 % 1012,7 hPa 0,0 mm 1,1 km/h (1 Bft) S 180 ° 0 min 0,000 mm 1,9 UV-I 285 W/m² 12,6 °C 14,0 °C 3,2 km/h (1 Bft)
12.07.2019 15:56 14,1 °C 91 % 1012,8 hPa 0,0 mm 0,0 km/h (0 Bft) S 180 ° 0 min 0,000 mm 1,9 UV-I 269 W/m² 12,7 °C 14,1 °C 0,0 km/h (0 Bft)
12.07.2019 15:57 14,2 °C 92 % 1012,8 hPa 0,0 mm 0,5 km/h (0 Bft) S 180 ° 0 min 0,000 mm 1,8 UV-I 262 W/m² 12,9 °C 14,2 °C 1,6 km/h (1 Bft)
12.07.2019 15:58 14,2 °C 92 % 1012,7 hPa 0,0 mm 1,9 km/h (1 Bft) S 180 ° 0 min 0,000 mm 1,8 UV-I 255 W/m² 12,9 °C 14,2 °C 3,2 km/h (1 Bft)
12.07.2019 15:59 14,2 °C 91 % 1012,7 hPa 0,0 mm 0,5 km/h (0 Bft) S 180 ° 0 min 0,000 mm 1,7 UV-I 244 W/m² 12,8 °C 14,2 °C 1,6 km/h (1 Bft)
12.07.2019 16:00 14,3 °C 91 % 1012,7 hPa 0,0 mm 0,0 km/h (0 Bft) S 180 ° 0 min 0,000 mm 1,6 UV-I 234 W/m² 12,8 °C 14,3 °C 0,0 km/h (0 Bft)
12.07.2019 16:01 14,3 °C 91 % 1012,7 hPa 0,0 mm 0,0 km/h (0 Bft) S 180 ° 0 min 0,101 mm 1,6 UV-I 234 W/m² 12,8 °C 14,3 °C 0,0 km/h (0 Bft)
12.07.2019 16:02 14,4 °C 91 % 1012,7 hPa 0,0 mm 0,1 km/h (0 Bft) S-SO 158 ° 0 min 0,000 mm 1,6 UV-I 253 W/m² 12,9 °C 14,4 °C 1,6 km/h (1 Bft)
12.07.2019 16:03 14,5 °C 91 % 1012,7 hPa 0,0 mm 0,0 km/h (0 Bft) S-SO 158 ° 0 min 0,000 mm 2,0 UV-I 301 W/m² 13,0 °C 14,5 °C 0,0 km/h (0 Bft)
12.07.2019 16:04 14,7 °C 91 % 1012,7 hPa 0,0 mm 0,1 km/h (0 Bft) S-SO 158 ° 0 min 0,000 mm 2,1 UV-I 294 W/m² 13,2 °C 14,7 °C 1,6 km/h (1 Bft)
12.07.2019 16:05 14,9 °C 91 % 1012,7 hPa 0,0 mm 0,1 km/h (0 Bft) S-SW 193 ° 0 min 0,000 mm 2,0 UV-I 272 W/m² 13,4 °C 14,9 °C 1,6 km/h (1 Bft)
12.07.2019 16:06 15,0 °C 91 % 1012,7 hPa 0,0 mm 0,0 km/h (0 Bft) S-SW 193 ° 0 min 0,000 mm 1,9 UV-I 255 W/m² 13,5 °C 15,0 °C 0,0 km/h (0 Bft)
12.07.2019 16:07 15,1 °C 90 % 1012,7 hPa 0,0 mm 1,0 km/h (0 Bft) SW 225 ° 0 min 0,000 mm 1,8 UV-I 246 W/m² 13,5 °C 15,1 °C 1,6 km/h (1 Bft)
12.07.2019 16:08 15,2 °C 89 % 1012,7 hPa 0,0 mm 0,1 km/h (0 Bft) SW 225 ° 0 min 0,000 mm 2,0 UV-I 311 W/m² 13,4 °C 15,2 °C 1,6 km/h (1 Bft)
12.07.2019 16:09 15,2 °C 89 % 1012,6 hPa 0,0 mm 0,0 km/h (0 Bft) SW 225 ° 0 min 0,000 mm 2,0 UV-I 274 W/m² 13,4 °C 15,2 °C 0,0 km/h (0 Bft)
12.07.2019 16:10 15,2 °C 88 % 1012,6 hPa 0,0 mm 0,0 km/h (0 Bft) SW 225 ° 0 min 0,000 mm 2,1 UV-I 269 W/m² 13,2 °C 15,2 °C 0,0 km/h (0 Bft)
12.07.2019 16:11 15,2 °C 89 % 1012,6 hPa 0,0 mm 0,6 km/h (0 Bft) W 274 ° 0 min 0,000 mm 2,1 UV-I 267 W/m² 13,4 °C 15,2 °C 3,2 km/h (1 Bft)
12.07.2019 16:12 15,2 °C 89 % 1012,6 hPa 0,0 mm 0,1 km/h (0 Bft) W 274 ° 0 min 0,000 mm 2,1 UV-I 278 W/m² 13,4 °C 15,2 °C 1,6 km/h (1 Bft)
12.07.2019 16:13 15,2 °C 88 % 1012,5 hPa 0,0 mm 0,7 km/h (0 Bft) W 274 ° 0 min 0,000 mm 2,2 UV-I 290 W/m² 13,2 °C 15,2 °C 1,6 km/h (1 Bft)
12.07.2019 16:14 15,3 °C 88 % 1012,5 hPa 0,0 mm 0,0 km/h (0 Bft) W 274 ° 0 min 0,000 mm 2,2 UV-I 294 W/m² 13,3 °C 15,3 °C 0,0 km/h (0 Bft)
12.07.2019 16:15 15,3 °C 88 % 1012,5 hPa 0,0 mm 0,7 km/h (0 Bft) W 274 ° 0 min 0,000 mm 2,2 UV-I 302 W/m² 13,3 °C 15,3 °C 3,2 km/h (1 Bft)
12.07.2019 16:16 15,3 °C 88 % 1012,4 hPa 0,0 mm 1,2 km/h (1 Bft) W 274 ° 0 min 0,000 mm 2,2 UV-I 302 W/m² 13,3 °C 15,3 °C 3,2 km/h (1 Bft)
12.07.2019 16:17 15,3 °C 88 % 1012,4 hPa 0,0 mm 0,0 km/h (0 Bft) W 274 ° 0 min 0,000 mm 2,2 UV-I 304 W/m² 13,3 °C 15,3 °C 0,0 km/h (0 Bft)
12.07.2019 16:18 15,4 °C 90 % 1012,4 hPa 0,0 mm 0,0 km/h (0 Bft) W 274 ° 0 min 0,000 mm 2,4 UV-I 343 W/m² 13,8 °C 15,4 °C 0,0 km/h (0 Bft)
12.07.2019 16:19 15,4 °C 90 % 1012,4 hPa 0,0 mm 0,0 km/h (0 Bft) W 274 ° 0 min 0,000 mm 2,7 UV-I 374 W/m² 13,8 °C 15,4 °C 0,0 km/h (0 Bft)
12.07.2019 16:20 15,6 °C 89 % 1012,4 hPa 0,0 mm 0,0 km/h (0 Bft) W 274 ° 0 min 0,000 mm 2,8 UV-I 376 W/m² 13,8 °C 15,6 °C 0,0 km/h (0 Bft)
12.07.2019 16:21 15,7 °C 89 % 1012,4 hPa 0,0 mm 0,0 km/h (0 Bft) W 274 ° 0 min 0,000 mm 2,8 UV-I 360 W/m² 13,9 °C 15,7 °C 0,0 km/h (0 Bft)
12.07.2019 16:22 15,8 °C 89 % 1012,4 hPa 0,0 mm 0,0 km/h (0 Bft) W 274 ° 0 min 0,000 mm 2,5 UV-I 327 W/m² 14,0 °C 15,8 °C 0,0 km/h (0 Bft)
12.07.2019 16:23 15,9 °C 88 % 1012,4 hPa 0,0 mm 0,0 km/h (0 Bft) W 274 ° 0 min 0,000 mm 2,3 UV-I 301 W/m² 13,9 °C 15,9 °C 0,0 km/h (0 Bft)
12.07.2019 16:24 16,1 °C 85 % 1012,4 hPa 0,0 mm 0,0 km/h (0 Bft) W 274 ° 0 min 0,000 mm 2,1 UV-I 281 W/m² 13,6 °C 16,1 °C 0,0 km/h (0 Bft)
12.07.2019 16:25 16,3 °C 86 % 1012,4 hPa 0,0 mm 0,0 km/h (0 Bft) W 274 ° 0 min 0,000 mm 1,9 UV-I 257 W/m² 14,0 °C 16,3 °C 0,0 km/h (0 Bft)
12.07.2019 16:26 16,3 °C 84 % 1012,4 hPa 0,0 mm 0,7 km/h (0 Bft) W 274 ° 0 min 0,000 mm 1,7 UV-I 213 W/m² 13,6 °C 16,3 °C 4,8 km/h (1 Bft)
12.07.2019 16:27 16,4 °C 84 % 1012,4 hPa 0,0 mm 3,4 km/h (1 Bft) W 274 ° 0 min 0,000 mm 1,6 UV-I 202 W/m² 13,7 °C 16,4 °C 6,4 km/h (2 Bft)
12.07.2019 16:28 16,6 °C 85 % 1012,4 hPa 0,0 mm 0,5 km/h (0 Bft) W 274 ° 0 min 0,000 mm 1,5 UV-I 204 W/m² 14,1 °C 16,6 °C 3,2 km/h (1 Bft)
12.07.2019 16:29 16,6 °C 83 % 1012,4 hPa 0,0 mm 0,0 km/h (0 Bft) W 274 ° 0 min 0,000 mm 1,5 UV-I 213 W/m² 13,7 °C 16,6 °C 0,0 km/h (0 Bft)
12.07.2019 16:30 16,4 °C 83 % 1012,3 hPa 0,0 mm 0,0 km/h (0 Bft) W 274 ° 0 min 0,000 mm 1,7 UV-I 234 W/m² 13,5 °C 16,4 °C 0,0 km/h (0 Bft)
12.07.2019 16:31 16,3 °C 85 % 1012,3 hPa 0,0 mm 0,0 km/h (0 Bft) W 274 ° 0 min 0,000 mm 1,8 UV-I 253 W/m² 13,8 °C 16,3 °C 0,0 km/h (0 Bft)
12.07.2019 16:32 16,2 °C 86 % 1012,3 hPa 0,0 mm 0,0 km/h (0 Bft) W 274 ° 0 min 0,000 mm 2,0 UV-I 271 W/m² 13,9 °C 16,2 °C 0,0 km/h (0 Bft)
12.07.2019 16:33 16,1 °C 87 % 1012,3 hPa 0,0 mm 0,0 km/h (0 Bft) W 274 ° 0 min 0,000 mm 2,0 UV-I 272 W/m² 13,9 °C 16,1 °C 0,0 km/h (0 Bft)
12.07.2019 16:34 16,1 °C 86 % 1012,3 hPa 0,0 mm 0,0 km/h (0 Bft) W 274 ° 0 min 0,000 mm 2,0 UV-I 264 W/m² 13,8 °C 16,1 °C 0,0 km/h (0 Bft)
12.07.2019 16:35 16,1 °C 86 % 1012,2 hPa 0,0 mm 0,0 km/h (0 Bft) W 274 ° 0 min 0,000 mm 1,9 UV-I 244 W/m² 13,8 °C 16,1 °C 0,0 km/h (0 Bft)
12.07.2019 16:36 16,1 °C 87 % 1012,3 hPa 0,0 mm 0,3 km/h (0 Bft) W 274 ° 0 min 0,000 mm 1,8 UV-I 244 W/m² 13,9 °C 16,1 °C 1,6 km/h (1 Bft)
12.07.2019 16:37 16,0 °C 86 % 1012,2 hPa 0,0 mm 2,1 km/h (1 Bft) W 274 ° 0 min 0,000 mm 1,7 UV-I 230 W/m² 13,7 °C 16,0 °C 3,2 km/h (1 Bft)
12.07.2019 16:38 16,1 °C 88 % 1012,2 hPa 0,0 mm 0,2 km/h (0 Bft) W 274 ° 0 min 0,000 mm 1,7 UV-I 243 W/m² 14,1 °C 16,1 °C 1,6 km/h (1 Bft)
12.07.2019 16:39 16,1 °C 89 % 1012,2 hPa 0,0 mm 0,0 km/h (0 Bft) W 274 ° 0 min 0,000 mm 1,8 UV-I 250 W/m² 14,3 °C 16,1 °C 0,0 km/h (0 Bft)
12.07.2019 16:40 16,1 °C 87 % 1012,2 hPa 0,0 mm 0,0 km/h (0 Bft) W 274 ° 0 min 0,000 mm 1,8 UV-I 250 W/m² 13,9 °C 16,1 °C 0,0 km/h (0 Bft)
12.07.2019 16:41 16,1 °C 89 % 1012,2 hPa 0,0 mm 0,0 km/h (0 Bft) W 274 ° 0 min 0,000 mm 1,7 UV-I 237 W/m² 14,3 °C 16,1 °C 0,0 km/h (0 Bft)
12.07.2019 16:42 16,2 °C 89 % 1012,1 hPa 0,0 mm 0,0 km/h (0 Bft) W 274 ° 0 min 0,000 mm 1,5 UV-I 197 W/m² 14,4 °C 16,2 °C 0,0 km/h (0 Bft)
12.07.2019 16:43 16,2 °C 88 % 1012,1 hPa 0,0 mm 0,0 km/h (0 Bft) W 274 ° 0 min 0,000 mm 1,5 UV-I 162 W/m² 14,2 °C 16,2 °C 0,0 km/h (0 Bft)
12.07.2019 16:44 16,3 °C 89 % 1012,2 hPa 0,0 mm 0,0 km/h (0 Bft) W 274 ° 0 min 0,000 mm 1,0 UV-I 114 W/m² 14,5 °C 16,3 °C 0,0 km/h (0 Bft)
12.07.2019 16:45 16,2 °C 89 % 1012,2 hPa 0,0 mm 0,3 km/h (0 Bft) S 170 ° 0 min 0,000 mm 0,7 UV-I 100 W/m² 14,4 °C 16,2 °C 3,2 km/h (1 Bft)
12.07.2019 16:46 16,1 °C 87 % 1012,2 hPa 0,0 mm 0,0 km/h (0 Bft) S-SO 151 ° 0 min 0,000 mm 0,6 UV-I 86 W/m² 13,9 °C 16,1 °C 0,0 km/h (0 Bft)
12.07.2019 16:47 16,1 °C 86 % 1012,2 hPa 0,0 mm 0,0 km/h (0 Bft) S-SO 151 ° 0 min 0,000 mm 0,5 UV-I 72 W/m² 13,8 °C 16,1 °C 0,0 km/h (0 Bft)
12.07.2019 16:48 15,9 °C 86 % 1012,4 hPa 0,0 mm 1,1 km/h (1 Bft) W 269 ° 0 min 0,000 mm 0,0 UV-I 60 W/m² 13,6 °C 15,9 °C 6,4 km/h (2 Bft)
12.07.2019 16:49 15,9 °C 86 % 1012,4 hPa 0,0 mm 2,2 km/h (1 Bft) W 267 ° 0 min 0,000 mm 0,0 UV-I 56 W/m² 13,6 °C 15,9 °C 6,4 km/h (2 Bft)
12.07.2019 16:50 15,9 °C 85 % 1012,5 hPa 0,0 mm 0,0 km/h (0 Bft) W 267 ° 0 min 0,000 mm 0,0 UV-I 69 W/m² 13,4 °C 15,9 °C 0,0 km/h (0 Bft)
12.07.2019 16:51 15,9 °C 84 % 1012,4 hPa 0,2 mm 1,5 km/h (1 Bft) S-SO 157 ° 0 min 0,000 mm 0,6 UV-I 81 W/m² 13,2 °C 15,9 °C 4,8 km/h (1 Bft)
12.07.2019 16:52 15,7 °C 85 % 1012,3 hPa 0,0 mm 1,0 km/h (0 Bft) S-SO 157 ° 0 min 0,000 mm 0,6 UV-I 90 W/m² 13,2 °C 15,7 °C 3,2 km/h (1 Bft)
12.07.2019 16:53 15,5 °C 86 % 1012,3 hPa 0,0 mm 0,0 km/h (0 Bft) S-SO 157 ° 0 min 0,000 mm 0,7 UV-I 95 W/m² 13,2 °C 15,5 °C 0,0 km/h (0 Bft)
12.07.2019 16:54 15,3 °C 88 % 1012,2 hPa 0,0 mm 0,0 km/h (0 Bft) S-SO 157 ° 0 min 0,000 mm 0,9 UV-I 116 W/m² 13,3 °C 15,3 °C 0,0 km/h (0 Bft)
12.07.2019 16:55 15,2 °C 89 % 1012,3 hPa 0,0 mm 2,2 km/h (1 Bft) S-SO 157 ° 0 min 0,000 mm 1,3 UV-I 162 W/m² 13,4 °C 15,2 °C 3,2 km/h (1 Bft)
12.07.2019 16:56 15,1 °C 90 % 1012,2 hPa 0,0 mm 1,3 km/h (1 Bft) S-SO 157 ° 0 min 0,000 mm 1,6 UV-I 243 W/m² 13,5 °C 15,1 °C 3,2 km/h (1 Bft)
12.07.2019 16:57 15,0 °C 90 % 1012,1 hPa 0,0 mm 3,3 km/h (1 Bft) S-SO 159 ° 0 min 0,000 mm 1,7 UV-I 243 W/m² 13,4 °C 15,0 °C 6,4 km/h (2 Bft)
12.07.2019 16:58 15,1 °C 90 % 1012,2 hPa 0,0 mm 5,0 km/h (1 Bft) S 177 ° 0 min 0,000 mm 1,4 UV-I 195 W/m² 13,5 °C 15,1 °C 8,0 km/h (2 Bft)
12.07.2019 16:59 15,1 °C 90 % 1012,2 hPa 0,0 mm 3,1 km/h (1 Bft) S 189 ° 0 min 0,000 mm 1,0 UV-I 144 W/m² 13,5 °C 15,1 °C 4,8 km/h (1 Bft)
12.07.2019 17:00 15,1 °C 91 % 1012,2 hPa 0,0 mm 3,8 km/h (1 Bft) S 180 ° 0 min 0,000 mm 0,9 UV-I 128 W/m² 13,6 °C 15,1 °C 4,8 km/h (1 Bft)
12.07.2019 17:01 15,1 °C 91 % 1012,2 hPa 0,0 mm 2,5 km/h (1 Bft) S 180 ° 0 min 0,127 mm 1,1 UV-I 195 W/m² 13,6 °C 15,1 °C 3,2 km/h (1 Bft)
12.07.2019 17:02 15,0 °C 91 % 1012,1 hPa 0,0 mm 2,1 km/h (1 Bft) S 180 ° 0 min 0,000 mm 1,4 UV-I 239 W/m² 13,5 °C 15,0 °C 4,8 km/h (1 Bft)
12.07.2019 17:03 15,1 °C 92 % 1012,1 hPa 0,0 mm 2,8 km/h (1 Bft) S 173 ° 0 min 0,000 mm 1,8 UV-I 262 W/m² 13,8 °C 15,1 °C 4,8 km/h (1 Bft)
12.07.2019 17:04 15,1 °C 92 % 1012,1 hPa 0,0 mm 0,0 km/h (0 Bft) S 173 ° 0 min 0,000 mm 2,0 UV-I 288 W/m² 13,8 °C 15,1 °C 0,0 km/h (0 Bft)
12.07.2019 17:05 15,2 °C 92 % 1012,1 hPa 0,0 mm 0,0 km/h (0 Bft) S 173 ° 0 min 0,000 mm 2,1 UV-I 306 W/m² 13,9 °C 15,2 °C 0,0 km/h (0 Bft)
12.07.2019 17:06 15,3 °C 92 % 1012,1 hPa 0,0 mm 0,7 km/h (0 Bft) S 173 ° 0 min 0,000 mm 2,0 UV-I 279 W/m² 14,0 °C 15,3 °C 3,2 km/h (1 Bft)
12.07.2019 17:07 15,3 °C 92 % 1012,1 hPa 0,0 mm 0,0 km/h (0 Bft) S 173 ° 0 min 0,000 mm 1,9 UV-I 237 W/m² 14,0 °C 15,3 °C 0,0 km/h (0 Bft)
12.07.2019 17:08 15,3 °C 92 % 1012,1 hPa 0,0 mm 0,0 km/h (0 Bft) S 173 ° 0 min 0,000 mm 1,8 UV-I 206 W/m² 14,0 °C 15,3 °C 0,0 km/h (0 Bft)
12.07.2019 17:09 15,5 °C 92 % 1012,0 hPa 0,0 mm 1,9 km/h (1 Bft) W-SW 254 ° 0 min 0,000 mm 1,7 UV-I 174 W/m² 14,2 °C 15,5 °C 6,4 km/h (2 Bft)
12.07.2019 17:10 15,7 °C 92 % 1012,0 hPa 0,0 mm 3,8 km/h (1 Bft) W-SW 252 ° 0 min 0,000 mm 1,6 UV-I 153 W/m² 14,4 °C 15,7 °C 6,4 km/h (2 Bft)
12.07.2019 17:11 15,8 °C 90 % 1012,0 hPa 0,0 mm 2,7 km/h (1 Bft) W 263 ° 0 min 0,000 mm 1,5 UV-I 139 W/m² 14,2 °C 15,8 °C 6,4 km/h (2 Bft)
12.07.2019 17:12 16,0 °C 89 % 1012,0 hPa 0,0 mm 6,4 km/h (2 Bft) W 269 ° 0 min 0,000 mm 1,5 UV-I 132 W/m² 14,2 °C 16,0 °C 9,7 km/h (2 Bft)
12.07.2019 17:13 16,2 °C 88 % 1012,0 hPa 0,0 mm 3,3 km/h (1 Bft) W 267 ° 0 min 0,000 mm 1,5 UV-I 128 W/m² 14,2 °C 16,2 °C 4,8 km/h (1 Bft)
12.07.2019 17:14 16,3 °C 86 % 1012,0 hPa 0,0 mm 4,0 km/h (1 Bft) W-NW 297 ° 0 min 0,000 mm 1,4 UV-I 130 W/m² 14,0 °C 16,3 °C 6,4 km/h (2 Bft)
12.07.2019 17:15 16,5 °C 85 % 1012,0 hPa 0,0 mm 2,9 km/h (1 Bft) NW 316 ° 0 min 0,000 mm 1,4 UV-I 132 W/m² 14,0 °C 16,5 °C 4,8 km/h (1 Bft)
12.07.2019 17:16 16,6 °C 86 % 1011,9 hPa 0,0 mm 2,6 km/h (1 Bft) W-NW 289 ° 0 min 0,000 mm 1,3 UV-I 134 W/m² 14,2 °C 16,6 °C 4,8 km/h (1 Bft)
12.07.2019 17:17 16,6 °C 84 % 1011,9 hPa 0,0 mm 3,1 km/h (1 Bft) W-SW 252 ° 0 min 0,000 mm 1,3 UV-I 139 W/m² 13,9 °C 16,6 °C 4,8 km/h (1 Bft)
12.07.2019 17:18 16,7 °C 84 % 1011,9 hPa 0,0 mm 1,2 km/h (1 Bft) W-SW 252 ° 0 min 0,000 mm 1,3 UV-I 142 W/m² 14,0 °C 16,7 °C 3,2 km/h (1 Bft)
12.07.2019 17:19 16,7 °C 83 % 1011,9 hPa 0,0 mm 2,4 km/h (1 Bft) W 271 ° 0 min 0,000 mm 1,2 UV-I 142 W/m² 13,8 °C 16,7 °C 3,2 km/h (1 Bft)
12.07.2019 17:20 16,7 °C 83 % 1011,9 hPa 0,0 mm 2,4 km/h (1 Bft) W 270 ° 0 min 0,000 mm 1,1 UV-I 139 W/m² 13,8 °C 16,7 °C 3,2 km/h (1 Bft)
12.07.2019 17:21 16,7 °C 84 % 1011,9 hPa 0,0 mm 2,3 km/h (1 Bft) SW 235 ° 0 min 0,000 mm 1,1 UV-I 135 W/m² 14,0 °C 16,7 °C 4,8 km/h (1 Bft)
12.07.2019 17:22 16,7 °C 83 % 1011,8 hPa 0,0 mm 0,9 km/h (0 Bft) SW 236 ° 0 min 0,000 mm 1,0 UV-I 128 W/m² 13,8 °C 16,7 °C 3,2 km/h (1 Bft)
12.07.2019 17:23 16,6 °C 84 % 1011,8 hPa 0,0 mm 4,2 km/h (1 Bft) W 263 ° 0 min 0,000 mm 0,9 UV-I 123 W/m² 13,9 °C 16,6 °C 9,7 km/h (2 Bft)
12.07.2019 17:24 16,6 °C 84 % 1011,8 hPa 0,0 mm 0,2 km/h (0 Bft) W 263 ° 0 min 0,000 mm 0,9 UV-I 118 W/m² 13,9 °C 16,6 °C 1,6 km/h (1 Bft)
12.07.2019 17:25 16,4 °C 84 % 1011,8 hPa 0,0 mm 0,0 km/h (0 Bft) W 262 ° 0 min 0,000 mm 0,9 UV-I 111 W/m² 13,7 °C 16,4 °C 0,0 km/h (0 Bft)
12.07.2019 17:26 16,4 °C 82 % 1011,8 hPa 0,0 mm 3,4 km/h (1 Bft) S 187 ° 0 min 0,000 mm 0,8 UV-I 109 W/m² 13,3 °C 16,4 °C 6,4 km/h (2 Bft)
12.07.2019 17:27 16,4 °C 83 % 1011,8 hPa 0,0 mm 3,6 km/h (1 Bft) W-SW 255 ° 0 min 0,000 mm 0,8 UV-I 109 W/m² 13,5 °C 16,4 °C 6,4 km/h (2 Bft)
12.07.2019 17:28 16,4 °C 83 % 1011,7 hPa 0,0 mm 1,0 km/h (0 Bft) W-SW 242 ° 0 min 0,000 mm 0,8 UV-I 105 W/m² 13,5 °C 16,4 °C 3,2 km/h (1 Bft)
12.07.2019 17:29 16,3 °C 83 % 1011,7 hPa 0,0 mm 1,9 km/h (1 Bft) W-SW 240 ° 0 min 0,000 mm 0,8 UV-I 102 W/m² 13,4 °C 16,3 °C 3,2 km/h (1 Bft)
12.07.2019 17:30 16,3 °C 83 % 1011,7 hPa 0,0 mm 3,6 km/h (1 Bft) S 188 ° 0 min 0,000 mm 0,7 UV-I 98 W/m² 13,4 °C 16,3 °C 4,8 km/h (1 Bft)
12.07.2019 17:31 16,3 °C 83 % 1011,7 hPa 0,0 mm 1,7 km/h (1 Bft) S-SW 197 ° 0 min 0,000 mm 0,7 UV-I 98 W/m² 13,4 °C 16,3 °C 4,8 km/h (1 Bft)
12.07.2019 17:32 16,1 °C 85 % 1011,5 hPa 0,0 mm 2,3 km/h (1 Bft) S-SW 194 ° 0 min 0,000 mm 0,8 UV-I 102 W/m² 13,6 °C 16,1 °C 4,8 km/h (1 Bft)
12.07.2019 17:33 15,8 °C 86 % 1011,6 hPa 0,2 mm 0,0 km/h (0 Bft) S-SW 194 ° 0 min 0,000 mm 0,8 UV-I 105 W/m² 13,5 °C 15,8 °C 0,0 km/h (0 Bft)
12.07.2019 17:34 15,7 °C 88 % 1011,6 hPa 0,0 mm 0,0 km/h (0 Bft) S-SW 194 ° 0 min 0,000 mm 0,8 UV-I 109 W/m² 13,7 °C 15,7 °C 0,0 km/h (0 Bft)
12.07.2019 17:35 15,5 °C 89 % 1011,4 hPa 0,0 mm 1,2 km/h (1 Bft) S-SW 194 ° 0 min 0,000 mm 0,8 UV-I 114 W/m² 13,7 °C 15,5 °C 3,2 km/h (1 Bft)
12.07.2019 17:36 15,4 °C 89 % 1011,5 hPa 0,0 mm 0,0 km/h (0 Bft) S-SW 194 ° 0 min 0,000 mm 0,8 UV-I 120 W/m² 13,6 °C 15,4 °C 0,0 km/h (0 Bft)
12.07.2019 17:37 15,3 °C 89 % 1011,5 hPa 0,0 mm 0,0 km/h (0 Bft) S-SW 194 ° 0 min 0,000 mm 0,8 UV-I 139 W/m² 13,5 °C 15,3 °C 0,0 km/h (0 Bft)
12.07.2019 17:38 15,3 °C 90 % 1011,5 hPa 0,0 mm 0,0 km/h (0 Bft) S-SW 194 ° 0 min 0,000 mm 0,9 UV-I 148 W/m² 13,7 °C 15,3 °C 0,0 km/h (0 Bft)
12.07.2019 17:39 15,3 °C 90 % 1011,5 hPa 0,0 mm 0,0 km/h (0 Bft) S-SW 194 ° 0 min 0,000 mm 1,0 UV-I 155 W/m² 13,7 °C 15,3 °C 0,0 km/h (0 Bft)
12.07.2019 17:40 15,3 °C 90 % 1011,5 hPa 0,0 mm 0,0 km/h (0 Bft) S-SW 194 ° 0 min 0,000 mm 1,0 UV-I 167 W/m² 13,7 °C 15,3 °C 0,0 km/h (0 Bft)
12.07.2019 17:41 15,3 °C 90 % 1011,5 hPa 0,2 mm 0,0 km/h (0 Bft) S-SW 194 ° 0 min 0,000 mm 1,1 UV-I 179 W/m² 13,7 °C 15,3 °C 0,0 km/h (0 Bft)
12.07.2019 17:42 15,4 °C 91 % 1011,5 hPa 0,0 mm 0,0 km/h (0 Bft) NW 313 ° 0 min 0,000 mm 1,2 UV-I 192 W/m² 13,9 °C 15,4 °C 0,0 km/h (0 Bft)
12.07.2019 17:43 15,3 °C 91 % 1011,5 hPa 0,0 mm 0,0 km/h (0 Bft) N 355 ° 0 min 0,000 mm 1,2 UV-I 195 W/m² 13,8 °C 15,3 °C 0,0 km/h (0 Bft)
12.07.2019 17:44 15,3 °C 91 % 1011,5 hPa 0,0 mm 0,0 km/h (0 Bft) N 355 ° 0 min 0,000 mm 1,3 UV-I 197 W/m² 13,8 °C 15,3 °C 0,0 km/h (0 Bft)
12.07.2019 17:45 15,4 °C 91 % 1011,5 hPa 0,0 mm 2,0 km/h (1 Bft) N 355 ° 0 min 0,000 mm 1,3 UV-I 195 W/m² 13,9 °C 15,4 °C 4,8 km/h (1 Bft)
12.07.2019 17:46 15,5 °C 90 % 1011,5 hPa 0,0 mm 4,5 km/h (1 Bft) N-NO 24 ° 0 min 0,000 mm 1,2 UV-I 193 W/m² 13,9 °C 15,5 °C 6,4 km/h (2 Bft)
12.07.2019 17:47 15,6 °C 89 % 1011,5 hPa 0,0 mm 4,6 km/h (1 Bft) N-NW 346 ° 0 min 0,000 mm 1,2 UV-I 190 W/m² 13,8 °C 15,6 °C 6,4 km/h (2 Bft)
12.07.2019 17:48 15,7 °C 89 % 1011,6 hPa 0,0 mm 3,2 km/h (1 Bft) N 350 ° 0 min 0,000 mm 1,2 UV-I 188 W/m² 13,9 °C 15,7 °C 4,8 km/h (1 Bft)
12.07.2019 17:49 15,8 °C 89 % 1011,5 hPa 0,0 mm 3,8 km/h (1 Bft) NO 36 ° 0 min 0,000 mm 1,3 UV-I 193 W/m² 14,0 °C 15,8 °C 6,4 km/h (2 Bft)
12.07.2019 17:50 15,8 °C 88 % 1011,5 hPa 0,0 mm 3,8 km/h (1 Bft) NW 319 ° 0 min 0,000 mm 1,3 UV-I 195 W/m² 13,8 °C 15,8 °C 6,4 km/h (2 Bft)
12.07.2019 17:51 15,9 °C 87 % 1011,5 hPa 0,0 mm 3,4 km/h (1 Bft) NW 305 ° 0 min 0,000 mm 1,3 UV-I 197 W/m² 13,7 °C 15,9 °C 4,8 km/h (1 Bft)
12.07.2019 17:52 15,9 °C 85 % 1011,5 hPa 0,0 mm 2,9 km/h (1 Bft) W-NW 286 ° 0 min 0,000 mm 1,3 UV-I 197 W/m² 13,4 °C 15,9 °C 4,8 km/h (1 Bft)
12.07.2019 17:53 15,9 °C 85 % 1011,5 hPa 0,0 mm 2,9 km/h (1 Bft) W-NW 285 ° 0 min 0,000 mm 1,3 UV-I 200 W/m² 13,4 °C 15,9 °C 4,8 km/h (1 Bft)
12.07.2019 17:54 15,9 °C 84 % 1011,5 hPa 0,0 mm 1,3 km/h (1 Bft) W-NW 286 ° 0 min 0,000 mm 1,4 UV-I 220 W/m² 13,2 °C 15,9 °C 3,2 km/h (1 Bft)
12.07.2019 17:55 15,9 °C 84 % 1011,4 hPa 0,0 mm 0,1 km/h (0 Bft) W-NW 286 ° 0 min 0,000 mm 1,5 UV-I 246 W/m² 13,2 °C 15,9 °C 1,6 km/h (1 Bft)
12.07.2019 17:56 15,9 °C 82 % 1011,3 hPa 0,0 mm 2,6 km/h (1 Bft) W-NW 286 ° 0 min 0,000 mm 1,5 UV-I 290 W/m² 12,8 °C 15,9 °C 3,2 km/h (1 Bft)
12.07.2019 17:57 16,0 °C 83 % 1011,3 hPa 0,0 mm 0,7 km/h (0 Bft) W-NW 286 ° 0 min 0,000 mm 1,4 UV-I 211 W/m² 13,1 °C 16,0 °C 1,6 km/h (1 Bft)
12.07.2019 17:58 16,1 °C 85 % 1011,3 hPa 0,0 mm 0,1 km/h (0 Bft) W-NW 286 ° 0 min 0,000 mm 1,5 UV-I 250 W/m² 13,6 °C 16,1 °C 1,6 km/h (1 Bft)
12.07.2019 17:59 16,2 °C 85 % 1011,3 hPa 0,0 mm 1,9 km/h (1 Bft) W-NW 286 ° 0 min 0,000 mm 1,5 UV-I 230 W/m² 13,7 °C 16,2 °C 3,2 km/h (1 Bft)
12.07.2019 18:00 16,3 °C 84 % 1011,3 hPa 0,0 mm 0,1 km/h (0 Bft) W-NW 286 ° 0 min 0,000 mm 1,5 UV-I 227 W/m² 13,6 °C 16,3 °C 1,6 km/h (1 Bft)
12.07.2019 18:01 16,4 °C 85 % 1011,3 hPa 0,0 mm 0,0 km/h (0 Bft) W-NW 286 ° 0 min 0,102 mm 1,5 UV-I 218 W/m² 13,9 °C 16,4 °C 0,0 km/h (0 Bft)
12.07.2019 18:02 16,4 °C 84 % 1011,2 hPa 0,0 mm 0,8 km/h (0 Bft) W-NW 286 ° 0 min 0,000 mm 1,5 UV-I 200 W/m² 13,7 °C 16,4 °C 3,2 km/h (1 Bft)
12.07.2019 18:03 16,5 °C 83 % 1011,2 hPa 0,0 mm 0,4 km/h (0 Bft) W-NW 286 ° 0 min 0,000 mm 1,5 UV-I 197 W/m² 13,6 °C 16,5 °C 1,6 km/h (1 Bft)
12.07.2019 18:04 16,6 °C 85 % 1011,1 hPa 0,0 mm 0,0 km/h (0 Bft) W-NW 286 ° 0 min 0,000 mm 1,5 UV-I 186 W/m² 14,1 °C 16,6 °C 0,0 km/h (0 Bft)
12.07.2019 18:05 16,7 °C 84 % 1011,1 hPa 0,0 mm 0,9 km/h (0 Bft) W-NW 286 ° 0 min 0,000 mm 1,5 UV-I 172 W/m² 14,0 °C 16,7 °C 3,2 km/h (1 Bft)
12.07.2019 18:06 16,7 °C 83 % 1011,0 hPa 0,0 mm 1,0 km/h (0 Bft) W-NW 286 ° 0 min 0,000 mm 1,4 UV-I 146 W/m² 13,8 °C 16,7 °C 1,6 km/h (1 Bft)
12.07.2019 18:07 16,7 °C 84 % 1011,1 hPa 0,0 mm 0,0 km/h (0 Bft) W-NW 286 ° 0 min 0,000 mm 1,3 UV-I 134 W/m² 14,0 °C 16,7 °C 0,0 km/h (0 Bft)
12.07.2019 18:08 16,7 °C 84 % 1011,1 hPa 0,0 mm 0,0 km/h (0 Bft) W-NW 286 ° 0 min 0,000 mm 1,2 UV-I 120 W/m² 14,0 °C 16,7 °C 0,0 km/h (0 Bft)
12.07.2019 18:09 16,7 °C 85 % 1011,0 hPa 0,0 mm 0,0 km/h (0 Bft) W-NW 286 ° 0 min 0,000 mm 1,2 UV-I 109 W/m² 14,2 °C 16,7 °C 0,0 km/h (0 Bft)
12.07.2019 18:10 16,8 °C 86 % 1011,0 hPa 0,0 mm 0,0 km/h (0 Bft) W-NW 286 ° 0 min 0,000 mm 1,1 UV-I 102 W/m² 14,4 °C 16,8 °C 0,0 km/h (0 Bft)
12.07.2019 18:11 16,7 °C 87 % 1011,0 hPa 0,0 mm 0,0 km/h (0 Bft) W-NW 286 ° 0 min 0,000 mm 1,1 UV-I 81 W/m² 14,5 °C 16,7 °C 0,0 km/h (0 Bft)
12.07.2019 18:12 16,6 °C 87 % 1011,0 hPa 0,0 mm 0,0 km/h (0 Bft) W-NW 286 ° 0 min 0,000 mm 1,1 UV-I 74 W/m² 14,4 °C 16,6 °C 0,0 km/h (0 Bft)
12.07.2019 18:13 16,4 °C 88 % 1011,0 hPa 0,0 mm 0,0 km/h (0 Bft) W-NW 286 ° 0 min 0,000 mm 1,0 UV-I 74 W/m² 14,4 °C 16,4 °C 0,0 km/h (0 Bft)
12.07.2019 18:14 16,3 °C 89 % 1011,0 hPa 0,0 mm 0,0 km/h (0 Bft) W-NW 286 ° 0 min 0,000 mm 1,0 UV-I 74 W/m² 14,5 °C 16,3 °C 0,0 km/h (0 Bft)
12.07.2019 18:15 16,2 °C 89 % 1011,0 hPa 0,0 mm 0,0 km/h (0 Bft) W-NW 286 ° 0 min 0,000 mm 1,0 UV-I 76 W/m² 14,4 °C 16,2 °C 0,0 km/h (0 Bft)
12.07.2019 18:16 16,1 °C 89 % 1010,9 hPa 0,0 mm 0,0 km/h (0 Bft) W-NW 286 ° 0 min 0,000 mm 1,0 UV-I 76 W/m² 14,3 °C 16,1 °C 0,0 km/h (0 Bft)
12.07.2019 18:17 16,1 °C 89 % 1010,8 hPa 0,0 mm 0,0 km/h (0 Bft) W-NW 286 ° 0 min 0,000 mm 0,9 UV-I 77 W/m² 14,3 °C 16,1 °C 0,0 km/h (0 Bft)
12.07.2019 18:18 16,0 °C 89 % 1010,8 hPa 0,0 mm 0,0 km/h (0 Bft) W-NW 286 ° 0 min 0,000 mm 0,9 UV-I 81 W/m² 14,2 °C 16,0 °C 0,0 km/h (0 Bft)
12.07.2019 18:19 15,9 °C 90 % 1010,8 hPa 0,0 mm 0,0 km/h (0 Bft) W-NW 286 ° 0 min 0,000 mm 0,9 UV-I 84 W/m² 14,3 °C 15,9 °C 0,0 km/h (0 Bft)
12.07.2019 18:20 15,9 °C 90 % 1010,9 hPa 0,0 mm 0,0 km/h (0 Bft) W-NW 286 ° 0 min 0,000 mm 0,9 UV-I 90 W/m² 14,3 °C 15,9 °C 0,0 km/h (0 Bft)
12.07.2019 18:21 15,8 °C 90 % 1010,9 hPa 0,0 mm 0,0 km/h (0 Bft) W-NW 286 ° 0 min 0,000 mm 0,9 UV-I 93 W/m² 14,2 °C 15,8 °C 0,0 km/h (0 Bft)
12.07.2019 18:22 15,8 °C 90 % 1010,8 hPa 0,0 mm 0,0 km/h (0 Bft) W-NW 286 ° 0 min 0,000 mm 0,9 UV-I 97 W/m² 14,2 °C 15,8 °C 0,0 km/h (0 Bft)
12.07.2019 18:23 15,8 °C 90 % 1010,8 hPa 0,0 mm 0,0 km/h (0 Bft) W-NW 286 ° 0 min 0,000 mm 0,9 UV-I 98 W/m² 14,2 °C 15,8 °C 0,0 km/h (0 Bft)
12.07.2019 18:24 15,8 °C 90 % 1010,7 hPa 0,0 mm 0,0 km/h (0 Bft) W-NW 286 ° 0 min 0,000 mm 0,9 UV-I 105 W/m² 14,2 °C 15,8 °C 0,0 km/h (0 Bft)
12.07.2019 18:25 15,7 °C 90 % 1010,7 hPa 0,0 mm 0,0 km/h (0 Bft) W-NW 286 ° 0 min 0,000 mm 0,9 UV-I 107 W/m² 14,1 °C 15,7 °C 0,0 km/h (0 Bft)
12.07.2019 18:26 15,6 °C 90 % 1010,7 hPa 0,0 mm 0,0 km/h (0 Bft) W-NW 286 ° 0 min 0,000 mm 0,8 UV-I 107 W/m² 14,0 °C 15,6 °C 0,0 km/h (0 Bft)
12.07.2019 18:27 15,6 °C 90 % 1010,7 hPa 0,0 mm 0,0 km/h (0 Bft) W-NW 286 ° 0 min 0,000 mm 0,8 UV-I 107 W/m² 14,0 °C 15,6 °C 0,0 km/h (0 Bft)
12.07.2019 18:28 15,6 °C 91 % 1010,7 hPa 0,0 mm 0,0 km/h (0 Bft) W-NW 286 ° 0 min 0,000 mm 0,8 UV-I 109 W/m² 14,1 °C 15,6 °C 0,0 km/h (0 Bft)
12.07.2019 18:29 15,6 °C 91 % 1010,7 hPa 0,0 mm 0,0 km/h (0 Bft) W-NW 286 ° 0 min 0,000 mm 0,8 UV-I 114 W/m² 14,1 °C 15,6 °C 0,0 km/h (0 Bft)
12.07.2019 18:30 15,6 °C 91 % 1010,7 hPa 0,0 mm 0,0 km/h (0 Bft) W-NW 286 ° 0 min 0,000 mm 0,8 UV-I 118 W/m² 14,1 °C 15,6 °C 0,0 km/h (0 Bft)
12.07.2019 18:31 15,6 °C 91 % 1010,6 hPa 0,0 mm 0,0 km/h (0 Bft) W-NW 286 ° 0 min 0,000 mm 0,8 UV-I 127 W/m² 14,1 °C 15,6 °C 0,0 km/h (0 Bft)
12.07.2019 18:32 15,6 °C 91 % 1010,6 hPa 0,0 mm 0,0 km/h (0 Bft) SW 232 ° 0 min 0,000 mm 0,8 UV-I 137 W/m² 14,1 °C 15,6 °C 0,0 km/h (0 Bft)
12.07.2019 18:33 15,6 °C 91 % 1010,6 hPa 0,0 mm 0,0 km/h (0 Bft) SW 232 ° 0 min 0,000 mm 0,9 UV-I 156 W/m² 14,1 °C 15,6 °C 0,0 km/h (0 Bft)
12.07.2019 18:34 15,6 °C 91 % 1010,6 hPa 0,0 mm 0,0 km/h (0 Bft) SW 232 ° 0 min 0,000 mm 0,9 UV-I 167 W/m² 14,1 °C 15,6 °C 0,0 km/h (0 Bft)
12.07.2019 18:35 15,6 °C 91 % 1010,5 hPa 0,0 mm 0,0 km/h (0 Bft) SW 232 ° 0 min 0,000 mm 1,0 UV-I 179 W/m² 14,1 °C 15,6 °C 0,0 km/h (0 Bft)
12.07.2019 18:36 15,7 °C 92 % 1010,6 hPa 0,0 mm 0,0 km/h (0 Bft) SW 232 ° 0 min 0,000 mm 1,1 UV-I 186 W/m² 14,4 °C 15,7 °C 0,0 km/h (0 Bft)
12.07.2019 18:37 15,8 °C 91 % 1010,6 hPa 0,0 mm 0,0 km/h (0 Bft) SW 232 ° 0 min 0,000 mm 1,0 UV-I 176 W/m² 14,3 °C 15,8 °C 0,0 km/h (0 Bft)
12.07.2019 18:38 15,9 °C 92 % 1010,5 hPa 0,0 mm 0,0 km/h (0 Bft) SW 232 ° 0 min 0,000 mm 1,0 UV-I 172 W/m² 14,6 °C 15,9 °C 0,0 km/h (0 Bft)
12.07.2019 18:39 16,0 °C 91 % 1010,5 hPa 0,0 mm 0,0 km/h (0 Bft) SW 232 ° 0 min 0,000 mm 1,1 UV-I 246 W/m² 14,5 °C 16,0 °C 0,0 km/h (0 Bft)
12.07.2019 18:40 16,1 °C 91 % 1010,5 hPa 0,0 mm 0,0 km/h (0 Bft) SW 232 ° 0 min 0,000 mm 1,0 UV-I 195 W/m² 14,6 °C 16,1 °C 0,0 km/h (0 Bft)
12.07.2019 18:41 16,2 °C 91 % 1010,5 hPa 0,0 mm 0,0 km/h (0 Bft) SW 232 ° 0 min 0,000 mm 1,0 UV-I 258 W/m² 14,7 °C 16,2 °C 0,0 km/h (0 Bft)
12.07.2019 18:42 16,2 °C 91 % 1010,5 hPa 0,0 mm 0,0 km/h (0 Bft) SW 232 ° 0 min 0,000 mm 1,0 UV-I 206 W/m² 14,7 °C 16,2 °C 0,0 km/h (0 Bft)
12.07.2019 18:43 16,2 °C 91 % 1010,5 hPa 0,0 mm 0,0 km/h (0 Bft) SW 232 ° 0 min 0,000 mm 1,0 UV-I 169 W/m² 14,7 °C 16,2 °C 0,0 km/h (0 Bft)
12.07.2019 18:44 16,2 °C 91 % 1010,5 hPa 0,0 mm 0,0 km/h (0 Bft) SW 232 ° 0 min 0,000 mm 1,0 UV-I 169 W/m² 14,7 °C 16,2 °C 0,0 km/h (0 Bft)
12.07.2019 18:45 16,3 °C 90 % 1010,5 hPa 0,0 mm 0,0 km/h (0 Bft) SW 232 ° 0 min 0,000 mm 1,0 UV-I 163 W/m² 14,7 °C 16,3 °C 0,0 km/h (0 Bft)
12.07.2019 18:46 16,3 °C 90 % 1010,5 hPa 0,0 mm 0,0 km/h (0 Bft) SW 232 ° 0 min 0,000 mm 1,0 UV-I 155 W/m² 14,7 °C 16,3 °C 0,0 km/h (0 Bft)
12.07.2019 18:47 16,4 °C 90 % 1010,5 hPa 0,0 mm 0,0 km/h (0 Bft) SW 232 ° 0 min 0,000 mm 1,0 UV-I 132 W/m² 14,8 °C 16,4 °C 0,0 km/h (0 Bft)
12.07.2019 18:48 16,4 °C 90 % 1010,5 hPa 0,0 mm 0,0 km/h (0 Bft) SW 232 ° 0 min 0,000 mm 0,9 UV-I 121 W/m² 14,8 °C 16,4 °C 0,0 km/h (0 Bft)
12.07.2019 18:49 16,6 °C 90 % 1010,4 hPa 0,0 mm 0,0 km/h (0 Bft) SW 232 ° 0 min 0,000 mm 0,8 UV-I 113 W/m² 15,0 °C 16,6 °C 0,0 km/h (0 Bft)
12.07.2019 18:50 16,6 °C 90 % 1010,4 hPa 0,0 mm 0,0 km/h (0 Bft) SW 232 ° 0 min 0,000 mm 0,8 UV-I 104 W/m² 15,0 °C 16,6 °C 0,0 km/h (0 Bft)
12.07.2019 18:51 16,6 °C 90 % 1010,5 hPa 0,0 mm 0,0 km/h (0 Bft) SW 232 ° 0 min 0,000 mm 0,8 UV-I 102 W/m² 15,0 °C 16,6 °C 0,0 km/h (0 Bft)
12.07.2019 18:52 16,6 °C 90 % 1010,4 hPa 0,0 mm 0,0 km/h (0 Bft) SW 232 ° 0 min 0,000 mm 0,8 UV-I 98 W/m² 15,0 °C 16,6 °C 0,0 km/h (0 Bft)
12.07.2019 18:53 16,6 °C 90 % 1010,4 hPa 0,0 mm 0,0 km/h (0 Bft) SW 232 ° 0 min 0,000 mm 0,7 UV-I 100 W/m² 15,0 °C 16,6 °C 0,0 km/h (0 Bft)
12.07.2019 18:54 16,6 °C 90 % 1010,4 hPa 0,0 mm 0,0 km/h (0 Bft) SW 232 ° 0 min 0,000 mm 0,8 UV-I 105 W/m² 15,0 °C 16,6 °C 0,0 km/h (0 Bft)
12.07.2019 18:55 16,6 °C 90 % 1010,5 hPa 0,0 mm 0,0 km/h (0 Bft) SW 232 ° 0 min 0,000 mm 0,8 UV-I 109 W/m² 15,0 °C 16,6 °C 0,0 km/h (0 Bft)
12.07.2019 18:56 16,5 °C 89 % 1010,5 hPa 0,0 mm 0,0 km/h (0 Bft) SW 232 ° 0 min 0,000 mm 0,8 UV-I 113 W/m² 14,7 °C 16,5 °C 0,0 km/h (0 Bft)
12.07.2019 18:57 16,6 °C 90 % 1010,5 hPa 0,0 mm 0,0 km/h (0 Bft) SW 232 ° 0 min 0,000 mm 0,8 UV-I 113 W/m² 15,0 °C 16,6 °C 0,0 km/h (0 Bft)
12.07.2019 18:58 16,6 °C 90 % 1010,5 hPa 0,0 mm 0,0 km/h (0 Bft) SW 232 ° 0 min 0,000 mm 0,8 UV-I 109 W/m² 15,0 °C 16,6 °C 0,0 km/h (0 Bft)
12.07.2019 18:59 16,6 °C 90 % 1010,5 hPa 0,0 mm 0,0 km/h (0 Bft) SW 232 ° 0 min 0,000 mm 0,8 UV-I 97 W/m² 15,0 °C 16,6 °C 0,0 km/h (0 Bft)
12.07.2019 19:00 16,6 °C 90 % 1010,6 hPa 0,0 mm 0,0 km/h (0 Bft) SW 232 ° 0 min 0,000 mm 0,8 UV-I 90 W/m² 15,0 °C 16,6 °C 0,0 km/h (0 Bft)
12.07.2019 19:01 16,6 °C 90 % 1010,6 hPa 0,0 mm 0,0 km/h (0 Bft) SW 232 ° 0 min 0,076 mm 0,7 UV-I 83 W/m² 15,0 °C 16,6 °C 0,0 km/h (0 Bft)
12.07.2019 19:02 16,5 °C 90 % 1010,6 hPa 0,0 mm 0,0 km/h (0 Bft) SW 232 ° 0 min 0,000 mm 0,7 UV-I 76 W/m² 14,9 °C 16,5 °C 0,0 km/h (0 Bft)
12.07.2019 19:03 16,4 °C 90 % 1010,6 hPa 0,0 mm 0,0 km/h (0 Bft) SW 232 ° 0 min 0,000 mm 0,7 UV-I 70 W/m² 14,8 °C 16,4 °C 0,0 km/h (0 Bft)
12.07.2019 19:04 16,4 °C 90 % 1010,6 hPa 0,0 mm 0,0 km/h (0 Bft) SW 232 ° 0 min 0,000 mm 0,7 UV-I 62 W/m² 14,8 °C 16,4 °C 0,0 km/h (0 Bft)
12.07.2019 19:05 16,3 °C 90 % 1010,7 hPa 0,0 mm 0,0 km/h (0 Bft) SW 232 ° 0 min 0,000 mm 0,6 UV-I 58 W/m² 14,7 °C 16,3 °C 0,0 km/h (0 Bft)
12.07.2019 19:06 16,3 °C 90 % 1010,7 hPa 0,0 mm 0,0 km/h (0 Bft) SW 232 ° 0 min 0,000 mm 0,6 UV-I 56 W/m² 14,7 °C 16,3 °C 0,0 km/h (0 Bft)
12.07.2019 19:07 16,2 °C 90 % 1010,7 hPa 0,0 mm 0,0 km/h (0 Bft) SW 232 ° 0 min 0,000 mm 0,6 UV-I 56 W/m² 14,6 °C 16,2 °C 0,0 km/h (0 Bft)
12.07.2019 19:08 16,2 °C 90 % 1010,7 hPa 0,0 mm 0,0 km/h (0 Bft) SW 232 ° 0 min 0,000 mm 0,5 UV-I 56 W/m² 14,6 °C 16,2 °C 0,0 km/h (0 Bft)
12.07.2019 19:09 16,1 °C 89 % 1010,7 hPa 0,0 mm 0,0 km/h (0 Bft) SW 232 ° 0 min 0,000 mm 0,0 UV-I 54 W/m² 14,3 °C 16,1 °C 0,0 km/h (0 Bft)
12.07.2019 19:10 16,1 °C 89 % 1010,6 hPa 0,0 mm 2,8 km/h (1 Bft) S-SW 196 ° 0 min 0,000 mm 0,0 UV-I 56 W/m² 14,3 °C 16,1 °C 9,7 km/h (2 Bft)
12.07.2019 19:11 16,1 °C 89 % 1010,6 hPa 0,0 mm 1,4 km/h (1 Bft) S-SW 207 ° 0 min 0,000 mm 0,5 UV-I 56 W/m² 14,3 °C 16,1 °C 3,2 km/h (1 Bft)
12.07.2019 19:12 16,0 °C 89 % 1010,5 hPa 0,0 mm 0,0 km/h (0 Bft) S-SW 207 ° 0 min 0,000 mm 0,5 UV-I 58 W/m² 14,2 °C 16,0 °C 0,0 km/h (0 Bft)
12.07.2019 19:13 16,0 °C 88 % 1010,5 hPa 0,0 mm 0,0 km/h (0 Bft) S-SW 207 ° 0 min 0,000 mm 0,5 UV-I 62 W/m² 14,0 °C 16,0 °C 0,0 km/h (0 Bft)
12.07.2019 19:14 16,1 °C 88 % 1010,4 hPa 0,0 mm 1,7 km/h (1 Bft) SW 224 ° 0 min 0,000 mm 0,5 UV-I 65 W/m² 14,1 °C 16,1 °C 3,2 km/h (1 Bft)
12.07.2019 19:15 16,1 °C 88 % 1010,4 hPa 0,0 mm 0,4 km/h (0 Bft) SW 224 ° 0 min 0,000 mm 0,5 UV-I 67 W/m² 14,1 °C 16,1 °C 3,2 km/h (1 Bft)
12.07.2019 19:16 16,0 °C 88 % 1010,4 hPa 0,0 mm 0,0 km/h (0 Bft) SW 224 ° 0 min 0,000 mm 0,5 UV-I 70 W/m² 14,0 °C 16,0 °C 0,0 km/h (0 Bft)
12.07.2019 19:17 16,0 °C 89 % 1010,4 hPa 0,0 mm 0,0 km/h (0 Bft) SW 224 ° 0 min 0,000 mm 0,5 UV-I 70 W/m² 14,2 °C 16,0 °C 0,0 km/h (0 Bft)
12.07.2019 19:18 15,9 °C 89 % 1010,4 hPa 0,0 mm 0,0 km/h (0 Bft) SW 224 ° 0 min 0,000 mm 0,5 UV-I 69 W/m² 14,1 °C 15,9 °C 0,0 km/h (0 Bft)
12.07.2019 19:19 15,9 °C 88 % 1010,3 hPa 0,0 mm 1,0 km/h (0 Bft) SW 223 ° 0 min 0,000 mm 0,5 UV-I 67 W/m² 13,9 °C 15,9 °C 3,2 km/h (1 Bft)
12.07.2019 19:20 16,0 °C 86 % 1010,3 hPa 0,0 mm 0,5 km/h (0 Bft) SW 222 ° 0 min 0,000 mm 0,0 UV-I 65 W/m² 13,7 °C 16,0 °C 1,6 km/h (1 Bft)
12.07.2019 19:21 16,1 °C 85 % 1010,3 hPa 0,0 mm 0,0 km/h (0 Bft) SW 223 ° 0 min 0,000 mm 0,0 UV-I 62 W/m² 13,6 °C 16,1 °C 0,0 km/h (0 Bft)
12.07.2019 19:22 16,2 °C 84 % 1010,4 hPa 0,0 mm 2,4 km/h (1 Bft) S 189 ° 0 min 0,000 mm 0,0 UV-I 60 W/m² 13,5 °C 16,2 °C 4,8 km/h (1 Bft)
12.07.2019 19:23 16,3 °C 85 % 1010,4 hPa 0,0 mm 2,9 km/h (1 Bft) W-SW 238 ° 0 min 0,000 mm 0,0 UV-I 58 W/m² 13,8 °C 16,3 °C 6,4 km/h (2 Bft)
12.07.2019 19:24 16,3 °C 86 % 1010,4 hPa 0,0 mm 6,0 km/h (2 Bft) S-SW 200 ° 0 min 0,000 mm 0,0 UV-I 56 W/m² 14,0 °C 16,3 °C 11,3 km/h (2 Bft)
12.07.2019 19:25 16,3 °C 84 % 1010,4 hPa 0,0 mm 0,7 km/h (0 Bft) S-SW 200 ° 0 min 0,000 mm 0,0 UV-I 56 W/m² 13,6 °C 16,3 °C 3,2 km/h (1 Bft)
12.07.2019 19:26 16,3 °C 82 % 1010,4 hPa 0,0 mm 0,5 km/h (0 Bft) S 180 ° 0 min 0,000 mm 0,0 UV-I 54 W/m² 13,2 °C 16,3 °C 1,6 km/h (1 Bft)
12.07.2019 19:27 16,4 °C 84 % 1010,4 hPa 0,0 mm 2,9 km/h (1 Bft) W-SW 250 ° 0 min 0,000 mm 0,0 UV-I 51 W/m² 13,7 °C 16,4 °C 4,8 km/h (1 Bft)
12.07.2019 19:28 16,3 °C 84 % 1010,4 hPa 0,0 mm 0,0 km/h (0 Bft) W-SW 250 ° 0 min 0,000 mm 0,0 UV-I 42 W/m² 13,6 °C 16,3 °C 0,0 km/h (0 Bft)
12.07.2019 19:29 16,4 °C 82 % 1010,4 hPa 0,0 mm 1,7 km/h (1 Bft) W-SW 246 ° 0 min 0,000 mm 0,0 UV-I 35 W/m² 13,3 °C 16,4 °C 4,8 km/h (1 Bft)
12.07.2019 19:30 16,4 °C 82 % 1010,4 hPa 0,0 mm 0,7 km/h (0 Bft) SW 230 ° 0 min 0,000 mm 0,0 UV-I 30 W/m² 13,3 °C 16,4 °C 1,6 km/h (1 Bft)
12.07.2019 19:31 16,4 °C 82 % 1010,4 hPa 0,0 mm 3,8 km/h (1 Bft) W-SW 252 ° 0 min 0,000 mm 0,0 UV-I 25 W/m² 13,3 °C 16,4 °C 6,4 km/h (2 Bft)
12.07.2019 19:32 16,4 °C 83 % 1010,4 hPa 0,0 mm 1,3 km/h (1 Bft) W-SW 252 ° 0 min 0,000 mm 0,0 UV-I 19 W/m² 13,5 °C 16,4 °C 3,2 km/h (1 Bft)
12.07.2019 19:33 16,4 °C 82 % 1010,4 hPa 0,0 mm 0,0 km/h (0 Bft) W-SW 253 ° 0 min 0,000 mm 0,0 UV-I 18 W/m² 13,3 °C 16,4 °C 0,0 km/h (0 Bft)
12.07.2019 19:34 16,4 °C 83 % 1010,4 hPa 0,0 mm 3,6 km/h (1 Bft) W 262 ° 0 min 0,000 mm 0,0 UV-I 14 W/m² 13,5 °C 16,4 °C 6,4 km/h (2 Bft)
12.07.2019 19:35 16,3 °C 83 % 1010,4 hPa 0,0 mm 1,9 km/h (1 Bft) W-SW 248 ° 0 min 0,000 mm 0,0 UV-I 14 W/m² 13,4 °C 16,3 °C 3,2 km/h (1 Bft)
12.07.2019 19:36 16,2 °C 83 % 1010,3 hPa 0,0 mm 0,1 km/h (0 Bft) W-SW 248 ° 0 min 0,000 mm 0,0 UV-I 14 W/m² 13,3 °C 16,2 °C 1,6 km/h (1 Bft)
12.07.2019 19:37 16,1 °C 84 % 1010,3 hPa 0,0 mm 0,0 km/h (0 Bft) W-SW 248 ° 0 min 0,000 mm 0,0 UV-I 14 W/m² 13,4 °C 16,1 °C 0,0 km/h (0 Bft)
12.07.2019 19:38 16,0 °C 83 % 1010,3 hPa 0,0 mm 0,0 km/h (0 Bft) W-SW 248 ° 0 min 0,000 mm 0,0 UV-I 14 W/m² 13,1 °C 16,0 °C 0,0 km/h (0 Bft)
12.07.2019 19:39 16,0 °C 83 % 1010,3 hPa 0,0 mm 2,5 km/h (1 Bft) W 263 ° 0 min 0,000 mm 0,0 UV-I 14 W/m² 13,1 °C 16,0 °C 6,4 km/h (2 Bft)
12.07.2019 19:40 16,1 °C 83 % 1010,3 hPa 0,0 mm 2,2 km/h (1 Bft) W 262 ° 0 min 0,000 mm 0,0 UV-I 12 W/m² 13,2 °C 16,1 °C 4,8 km/h (1 Bft)
12.07.2019 19:41 16,1 °C 84 % 1010,3 hPa 0,0 mm 2,0 km/h (1 Bft) SW 228 ° 0 min 0,000 mm 0,0 UV-I 12 W/m² 13,4 °C 16,1 °C 4,8 km/h (1 Bft)
12.07.2019 19:42 16,1 °C 83 % 1010,4 hPa 0,0 mm 0,0 km/h (0 Bft) SW 228 ° 0 min 0,000 mm 0,0 UV-I 12 W/m² 13,2 °C 16,1 °C 0,0 km/h (0 Bft)
12.07.2019 19:43 16,1 °C 82 % 1010,4 hPa 0,0 mm 1,6 km/h (1 Bft) S 188 ° 0 min 0,000 mm 0,0 UV-I 12 W/m² 13,0 °C 16,1 °C 6,4 km/h (2 Bft)
12.07.2019 19:44 16,1 °C 82 % 1010,4 hPa 0,0 mm 0,0 km/h (0 Bft) S 188 ° 0 min 0,000 mm 0,0 UV-I 11 W/m² 13,0 °C 16,1 °C 0,0 km/h (0 Bft)
12.07.2019 19:45 16,1 °C 81 % 1010,4 hPa 0,0 mm 0,0 km/h (0 Bft) S 188 ° 0 min 0,000 mm 0,0 UV-I 9 W/m² 12,8 °C 16,1 °C 0,0 km/h (0 Bft)
12.07.2019 19:46 16,2 °C 81 % 1010,4 hPa 0,0 mm 1,1 km/h (1 Bft) S 188 ° 0 min 0,000 mm 0,0 UV-I 9 W/m² 12,9 °C 16,2 °C 3,2 km/h (1 Bft)
12.07.2019 19:47 16,2 °C 80 % 1010,4 hPa 0,0 mm 2,0 km/h (1 Bft) W-SW 250 ° 0 min 0,000 mm 0,0 UV-I 9 W/m² 12,7 °C 16,2 °C 6,4 km/h (2 Bft)
12.07.2019 19:48 16,3 °C 80 % 1010,4 hPa 0,0 mm 0,6 km/h (0 Bft) S 184 ° 0 min 0,000 mm 0,0 UV-I 11 W/m² 12,8 °C 16,3 °C 3,2 km/h (1 Bft)
12.07.2019 19:49 16,3 °C 80 % 1010,4 hPa 0,0 mm 0,1 km/h (0 Bft) W-SW 254 ° 0 min 0,000 mm 0,0 UV-I 11 W/m² 12,8 °C 16,3 °C 3,2 km/h (1 Bft)
12.07.2019 19:50 16,3 °C 80 % 1010,4 hPa 0,0 mm 2,1 km/h (1 Bft) W-SW 244 ° 0 min 0,000 mm 0,0 UV-I 11 W/m² 12,8 °C 16,3 °C 4,8 km/h (1 Bft)
12.07.2019 19:51 16,3 °C 80 % 1010,4 hPa 0,0 mm 4,4 km/h (1 Bft) S 190 ° 0 min 0,000 mm 0,0 UV-I 11 W/m² 12,8 °C 16,3 °C 9,7 km/h (2 Bft)
12.07.2019 19:52 16,3 °C 80 % 1010,4 hPa 0,0 mm 1,8 km/h (1 Bft) S-SW 193 ° 0 min 0,000 mm 0,0 UV-I 9 W/m² 12,8 °C 16,3 °C 3,2 km/h (1 Bft)
12.07.2019 19:53 16,3 °C 80 % 1010,5 hPa 0,0 mm 1,3 km/h (1 Bft) S-SW 211 ° 0 min 0,000 mm 0,0 UV-I 9 W/m² 12,8 °C 16,3 °C 3,2 km/h (1 Bft)
12.07.2019 19:54 16,3 °C 80 % 1010,5 hPa 0,0 mm 0,8 km/h (0 Bft) SW 235 ° 0 min 0,000 mm 0,0 UV-I 7 W/m² 12,8 °C 16,3 °C 3,2 km/h (1 Bft)
12.07.2019 19:55 16,3 °C 80 % 1010,5 hPa 0,0 mm 0,0 km/h (0 Bft) SW 235 ° 0 min 0,000 mm 0,0 UV-I 5 W/m² 12,8 °C 16,3 °C 0,0 km/h (0 Bft)
12.07.2019 19:56 16,3 °C 80 % 1010,5 hPa 0,0 mm 0,0 km/h (0 Bft) SW 235 ° 0 min 0,000 mm 0,0 UV-I 5 W/m² 12,8 °C 16,3 °C 0,0 km/h (0 Bft)
12.07.2019 19:57 16,3 °C 81 % 1010,6 hPa 0,0 mm 0,0 km/h (0 Bft) SW 235 ° 0 min 0,000 mm 0,0 UV-I 0 W/m² 13,0 °C 16,3 °C 0,0 km/h (0 Bft)
12.07.2019 19:58 16,2 °C 81 % 1010,6 hPa 0,0 mm 1,5 km/h (1 Bft) SW 235 ° 0 min 0,000 mm 0,0 UV-I 0 W/m² 12,9 °C 16,2 °C 3,2 km/h (1 Bft)
12.07.2019 19:59 16,2 °C 81 % 1010,8 hPa 0,0 mm 3,9 km/h (1 Bft) W-NW 287 ° 0 min 0,000 mm 0,0 UV-I 0 W/m² 12,9 °C 16,2 °C 6,4 km/h (2 Bft)
12.07.2019 20:00 16,1 °C 82 % 1010,9 hPa 0,0 mm 4,3 km/h (1 Bft) W-NW 285 ° 0 min 0,000 mm 0,0 UV-I 0 W/m² 13,0 °C 16,1 °C 6,4 km/h (2 Bft)
12.07.2019 20:01 16,0 °C 83 % 1011,2 hPa 0,0 mm 6,0 km/h (2 Bft) W-NW 284 ° 0 min 0,026 mm 0,0 UV-I 0 W/m² 13,1 °C 16,0 °C 8,0 km/h (2 Bft)
12.07.2019 20:02 15,9 °C 84 % 1011,3 hPa 0,0 mm 6,9 km/h (2 Bft) W 265 ° 0 min 0,000 mm 0,0 UV-I 0 W/m² 13,2 °C 15,9 °C 12,9 km/h (3 Bft)
12.07.2019 20:03 15,9 °C 85 % 1011,5 hPa 0,0 mm 8,0 km/h (2 Bft) W-NW 283 ° 0 min 0,000 mm 0,0 UV-I 0 W/m² 13,4 °C 15,9 °C 14,5 km/h (3 Bft)
12.07.2019 20:04 15,7 °C 85 % 1011,5 hPa 0,2 mm 6,5 km/h (2 Bft) W-NW 282 ° 0 min 0,000 mm 0,0 UV-I 0 W/m² 13,2 °C 15,7 °C 12,9 km/h (3 Bft)
12.07.2019 20:05 15,7 °C 85 % 1011,5 hPa 0,0 mm 13,7 km/h (3 Bft) W 279 ° 0 min 0,000 mm 0,0 UV-I 0 W/m² 13,2 °C 15,7 °C 17,7 km/h (3 Bft)
12.07.2019 20:06 15,6 °C 85 % 1011,4 hPa 0,0 mm 14,0 km/h (3 Bft) W 280 ° 0 min 0,000 mm 0,0 UV-I 0 W/m² 13,1 °C 15,6 °C 19,3 km/h (3 Bft)
12.07.2019 20:07 15,4 °C 83 % 1011,4 hPa 0,0 mm 9,4 km/h (2 Bft) W-NW 284 ° 0 min 0,000 mm 0,0 UV-I 0 W/m² 12,5 °C 15,4 °C 14,5 km/h (3 Bft)
12.07.2019 20:08 15,3 °C 83 % 1011,3 hPa 0,2 mm 4,8 km/h (1 Bft) W-SW 247 ° 0 min 0,000 mm 0,0 UV-I 0 W/m² 12,4 °C 15,3 °C 9,7 km/h (2 Bft)
12.07.2019 20:09 15,1 °C 84 % 1011,2 hPa 0,0 mm 4,7 km/h (1 Bft) SW 225 ° 0 min 0,000 mm 0,0 UV-I 0 W/m² 12,4 °C 15,1 °C 11,3 km/h (2 Bft)
12.07.2019 20:10 14,9 °C 85 % 1011,3 hPa 0,0 mm 1,7 km/h (1 Bft) W-SW 240 ° 0 min 0,000 mm 0,0 UV-I 0 W/m² 12,4 °C 14,9 °C 4,8 km/h (1 Bft)
12.07.2019 20:11 14,8 °C 86 % 1011,4 hPa 0,0 mm 1,6 km/h (1 Bft) W-SW 252 ° 0 min 0,000 mm 0,0 UV-I 0 W/m² 12,5 °C 14,8 °C 3,2 km/h (1 Bft)
12.07.2019 20:12 14,6 °C 87 % 1011,6 hPa 0,2 mm 6,3 km/h (2 Bft) W 275 ° 0 min 0,000 mm 0,0 UV-I 0 W/m² 12,5 °C 14,6 °C 8,0 km/h (2 Bft)
12.07.2019 20:13 14,6 °C 87 % 1011,7 hPa 0,0 mm 9,5 km/h (2 Bft) W 266 ° 0 min 0,000 mm 0,0 UV-I 0 W/m² 12,5 °C 14,6 °C 12,9 km/h (3 Bft)
12.07.2019 20:14 14,4 °C 87 % 1011,8 hPa 0,0 mm 5,2 km/h (1 Bft) W 265 ° 0 min 0,000 mm 0,0 UV-I 0 W/m² 12,3 °C 14,4 °C 11,3 km/h (2 Bft)
12.07.2019 20:15 14,4 °C 88 % 1011,8 hPa 0,0 mm 3,2 km/h (1 Bft) W-NW 283 ° 0 min 0,000 mm 0,0 UV-I 0 W/m² 12,4 °C 14,4 °C 6,4 km/h (2 Bft)
12.07.2019 20:16 14,3 °C 88 % 1011,9 hPa 0,2 mm 4,6 km/h (1 Bft) W 277 ° 0 min 0,000 mm 0,0 UV-I 0 W/m² 12,3 °C 14,3 °C 6,4 km/h (2 Bft)
12.07.2019 20:17 14,3 °C 88 % 1011,8 hPa 0,0 mm 6,3 km/h (2 Bft) W 266 ° 0 min 0,000 mm 0,0 UV-I 0 W/m² 12,3 °C 14,3 °C 12,9 km/h (3 Bft)
12.07.2019 20:18 14,2 °C 89 % 1011,8 hPa 0,0 mm 3,7 km/h (1 Bft) W-SW 247 ° 0 min 0,000 mm 0,0 UV-I 0 W/m² 12,4 °C 14,2 °C 9,7 km/h (2 Bft)
12.07.2019 20:19 14,2 °C 89 % 1011,9 hPa 0,0 mm 0,9 km/h (0 Bft) SW 232 ° 0 min 0,000 mm 0,0 UV-I 0 W/m² 12,4 °C 14,2 °C 4,8 km/h (1 Bft)
12.07.2019 20:20 14,1 °C 89 % 1011,9 hPa 0,2 mm 4,3 km/h (1 Bft) W 273 ° 0 min 0,000 mm 0,0 UV-I 0 W/m² 12,3 °C 14,1 °C 9,7 km/h (2 Bft)
12.07.2019 20:21 14,1 °C 89 % 1011,9 hPa 0,0 mm 3,5 km/h (1 Bft) W-SW 243 ° 0 min 0,000 mm 0,0 UV-I 0 W/m² 12,3 °C 14,1 °C 8,0 km/h (2 Bft)
12.07.2019 20:22 14,0 °C 90 % 1011,9 hPa 0,0 mm 4,7 km/h (1 Bft) W-SW 248 ° 0 min 0,000 mm 0,0 UV-I 0 W/m² 12,4 °C 14,0 °C 9,7 km/h (2 Bft)
12.07.2019 20:23 14,0 °C 90 % 1011,9 hPa 0,2 mm 5,9 km/h (2 Bft) W-SW 256 ° 0 min 0,000 mm 0,0 UV-I 0 W/m² 12,4 °C 14,0 °C 11,3 km/h (2 Bft)
12.07.2019 20:24 14,0 °C 90 % 1011,9 hPa 0,0 mm 4,0 km/h (1 Bft) W 265 ° 0 min 0,000 mm 0,0 UV-I 0 W/m² 12,4 °C 14,0 °C 6,4 km/h (2 Bft)
12.07.2019 20:25 13,9 °C 91 % 1012,0 hPa 0,0 mm 5,2 km/h (1 Bft) W-SW 258 ° 0 min 0,000 mm 0,0 UV-I 0 W/m² 12,5 °C 13,9 °C 9,7 km/h (2 Bft)
12.07.2019 20:26 13,9 °C 91 % 1012,1 hPa 0,0 mm 3,5 km/h (1 Bft) NW 313 ° 0 min 0,000 mm 0,0 UV-I 0 W/m² 12,5 °C 13,9 °C 6,4 km/h (2 Bft)
12.07.2019 20:27 13,9 °C 91 % 1012,1 hPa 0,0 mm 5,5 km/h (1 Bft) W-SW 250 ° 0 min 0,000 mm 0,0 UV-I 0 W/m² 12,5 °C 13,9 °C 9,7 km/h (2 Bft)
12.07.2019 20:28 13,9 °C 91 % 1012,1 hPa 0,2 mm 4,2 km/h (1 Bft) W 267 ° 0 min 0,000 mm 0,0 UV-I 0 W/m² 12,5 °C 13,9 °C 6,4 km/h (2 Bft)
12.07.2019 20:29 13,9 °C 91 % 1012,1 hPa 0,0 mm 4,0 km/h (1 Bft) W 274 ° 0 min 0,000 mm 0,0 UV-I 0 W/m² 12,5 °C 13,9 °C 9,7 km/h (2 Bft)
12.07.2019 20:30 13,9 °C 91 % 1012,2 hPa 0,0 mm 3,1 km/h (1 Bft) W 259 ° 0 min 0,000 mm 0,0 UV-I 0 W/m² 12,5 °C 13,9 °C 4,8 km/h (1 Bft)
12.07.2019 20:31 13,9 °C 91 % 1012,3 hPa 0,0 mm 5,5 km/h (1 Bft) W 273 ° 0 min 0,000 mm 0,0 UV-I 0 W/m² 12,5 °C 13,9 °C 11,3 km/h (2 Bft)
12.07.2019 20:32 13,9 °C 91 % 1012,3 hPa 0,2 mm 3,9 km/h (1 Bft) W-NW 284 ° 0 min 0,000 mm 0,0 UV-I 0 W/m² 12,5 °C 13,9 °C 6,4 km/h (2 Bft)
12.07.2019 20:33 13,9 °C 91 % 1012,4 hPa 0,0 mm 2,5 km/h (1 Bft) W-NW 285 ° 0 min 0,000 mm 0,0 UV-I 0 W/m² 12,5 °C 13,9 °C 4,8 km/h (1 Bft)
12.07.2019 20:34 13,9 °C 91 % 1012,4 hPa 0,0 mm 2,4 km/h (1 Bft) W 276 ° 0 min 0,000 mm 0,0 UV-I 0 W/m² 12,5 °C 13,9 °C 4,8 km/h (1 Bft)
12.07.2019 20:35 13,9 °C 91 % 1012,4 hPa 0,0 mm 0,8 km/h (0 Bft) NW 313 ° 0 min 0,000 mm 0,0 UV-I 0 W/m² 12,5 °C 13,9 °C 3,2 km/h (1 Bft)
12.07.2019 20:36 13,9 °C 91 % 1012,3 hPa 0,2 mm 6,1 km/h (2 Bft) W 259 ° 0 min 0,000 mm 0,0 UV-I 0 W/m² 12,5 °C 13,9 °C 11,3 km/h (2 Bft)
12.07.2019 20:37 13,8 °C 92 % 1012,4 hPa 0,0 mm 6,1 km/h (2 Bft) W 278 ° 0 min 0,000 mm 0,0 UV-I 0 W/m² 12,5 °C 13,8 °C 11,3 km/h (2 Bft)
12.07.2019 20:38 13,8 °C 92 % 1012,5 hPa 0,0 mm 4,3 km/h (1 Bft) W-NW 286 ° 0 min 0,000 mm 0,0 UV-I 0 W/m² 12,5 °C 13,8 °C 9,7 km/h (2 Bft)
12.07.2019 20:39 13,8 °C 92 % 1012,5 hPa 0,2 mm 4,8 km/h (1 Bft) W-NW 294 ° 0 min 0,000 mm 0,0 UV-I 0 W/m² 12,5 °C 13,8 °C 6,4 km/h (2 Bft)
12.07.2019 20:40 13,8 °C 92 % 1012,5 hPa 0,0 mm 4,8 km/h (1 Bft) W 267 ° 0 min 0,000 mm 0,0 UV-I 0 W/m² 12,5 °C 13,8 °C 9,7 km/h (2 Bft)
12.07.2019 20:41 13,8 °C 92 % 1012,6 hPa 0,0 mm 3,1 km/h (1 Bft) W 264 ° 0 min 0,000 mm 0,0 UV-I 0 W/m² 12,5 °C 13,8 °C 4,8 km/h (1 Bft)
12.07.2019 20:42 13,7 °C 92 % 1012,6 hPa 0,2 mm 5,2 km/h (1 Bft) S 188 ° 0 min 0,000 mm 0,0 UV-I 0 W/m² 12,4 °C 13,7 °C 9,7 km/h (2 Bft)
12.07.2019 20:43 13,7 °C 92 % 1012,7 hPa 0,0 mm 2,1 km/h (1 Bft) W-SW 249 ° 0 min 0,000 mm 0,0 UV-I 0 W/m² 12,4 °C 13,7 °C 4,8 km/h (1 Bft)
12.07.2019 20:44 13,7 °C 92 % 1012,6 hPa 0,2 mm 2,6 km/h (1 Bft) S 175 ° 0 min 0,000 mm 0,0 UV-I 0 W/m² 12,4 °C 13,7 °C 4,8 km/h (1 Bft)
12.07.2019 20:45 13,7 °C 92 % 1012,5 hPa 0,0 mm 2,8 km/h (1 Bft) S 184 ° 0 min 0,000 mm 0,0 UV-I 0 W/m² 12,4 °C 13,7 °C 4,8 km/h (1 Bft)
12.07.2019 20:46 13,6 °C 92 % 1012,5 hPa 0,0 mm 4,1 km/h (1 Bft) S 175 ° 0 min 0,000 mm 0,0 UV-I 0 W/m² 12,3 °C 13,6 °C 6,4 km/h (2 Bft)
12.07.2019 20:47 13,6 °C 92 % 1012,5 hPa 0,2 mm 5,8 km/h (2 Bft) S 190 ° 0 min 0,000 mm 0,0 UV-I 0 W/m² 12,3 °C 13,6 °C 9,7 km/h (2 Bft)
12.07.2019 20:48 13,6 °C 92 % 1012,5 hPa 0,0 mm 5,4 km/h (1 Bft) S 190 ° 0 min 0,000 mm 0,0 UV-I 0 W/m² 12,3 °C 13,6 °C 8,0 km/h (2 Bft)
12.07.2019 20:49 13,6 °C 92 % 1012,5 hPa 0,0 mm 1,6 km/h (1 Bft) S-SW 208 ° 0 min 0,000 mm 0,0 UV-I 0 W/m² 12,3 °C 13,6 °C 4,8 km/h (1 Bft)
12.07.2019 20:50 13,6 °C 92 % 1012,5 hPa 0,2 mm 1,8 km/h (1 Bft) S-SO 152 ° 0 min 0,000 mm 0,0 UV-I 0 W/m² 12,3 °C 13,6 °C 4,8 km/h (1 Bft)
12.07.2019 20:51 13,6 °C 92 % 1012,4 hPa 0,0 mm 1,9 km/h (1 Bft) S-SO 152 ° 0 min 0,000 mm 0,0 UV-I 0 W/m² 12,3 °C 13,6 °C 3,2 km/h (1 Bft)
12.07.2019 20:52 13,6 °C 92 % 1012,3 hPa 0,2 mm 1,2 km/h (1 Bft) S-SO 152 ° 0 min 0,000 mm 0,0 UV-I 0 W/m² 12,3 °C 13,6 °C 3,2 km/h (1 Bft)
12.07.2019 20:53 13,5 °C 92 % 1012,1 hPa 0,0 mm 3,0 km/h (1 Bft) S-SO 149 ° 0 min 0,000 mm 0,0 UV-I 0 W/m² 12,2 °C 13,5 °C 4,8 km/h (1 Bft)
12.07.2019 20:54 13,5 °C 92 % 1012,1 hPa 0,0 mm 0,2 km/h (0 Bft) S-SO 149 ° 0 min 0,000 mm 0,0 UV-I 0 W/m² 12,2 °C 13,5 °C 1,6 km/h (1 Bft)
12.07.2019 20:55 13,5 °C 92 % 1012,0 hPa 0,2 mm 1,9 km/h (1 Bft) S-SO 148 ° 0 min 0,000 mm 0,0 UV-I 0 W/m² 12,2 °C 13,5 °C 3,2 km/h (1 Bft)
12.07.2019 20:56 13,4 °C 93 % 1012,0 hPa 0,0 mm 2,1 km/h (1 Bft) S-SO 149 ° 0 min 0,000 mm 0,0 UV-I 0 W/m² 12,3 °C 13,4 °C 3,2 km/h (1 Bft)
12.07.2019 20:57 13,4 °C 93 % 1012,0 hPa 0,0 mm 0,1 km/h (0 Bft) S-SO 149 ° 0 min 0,000 mm 0,0 UV-I 0 W/m² 12,3 °C 13,4 °C 1,6 km/h (1 Bft)
12.07.2019 20:58 13,4 °C 93 % 1011,8 hPa 0,2 mm 0,5 km/h (0 Bft) S-SO 149 ° 0 min 0,000 mm 0,0 UV-I 0 W/m² 12,3 °C 13,4 °C 3,2 km/h (1 Bft)
12.07.2019 20:59 13,4 °C 93 % 1011,7 hPa 0,0 mm 1,5 km/h (1 Bft) S-SO 161 ° 0 min 0,000 mm 0,0 UV-I 0 W/m² 12,3 °C 13,4 °C 3,2 km/h (1 Bft)
12.07.2019 21:00 13,4 °C 93 % 1011,6 hPa 0,2 mm 0,3 km/h (0 Bft) S-SO 161 ° 0 min 0,000 mm 0,0 UV-I 0 W/m² 12,3 °C 13,4 °C 1,6 km/h (1 Bft)
12.07.2019 21:01 13,3 °C 93 % 1011,6 hPa 0,0 mm 1,9 km/h (1 Bft) SW 225 ° 0 min 0,000 mm 0,0 UV-I 0 W/m² 12,2 °C 13,3 °C 4,8 km/h (1 Bft)
12.07.2019 21:02 13,3 °C 93 % 1011,6 hPa 0,0 mm 3,8 km/h (1 Bft) W 260 ° 0 min 0,000 mm 0,0 UV-I 0 W/m² 12,2 °C 13,3 °C 4,8 km/h (1 Bft)
12.07.2019 21:03 13,3 °C 93 % 1011,6 hPa 0,2 mm 0,5 km/h (0 Bft) S-SW 211 ° 0 min 0,000 mm 0,0 UV-I 0 W/m² 12,2 °C 13,3 °C 1,6 km/h (1 Bft)
12.07.2019 21:04 13,4 °C 93 % 1011,6 hPa 0,0 mm 0,0 km/h (0 Bft) S-SW 211 ° 0 min 0,000 mm 0,0 UV-I 0 W/m² 12,3 °C 13,4 °C 0,0 km/h (0 Bft)
12.07.2019 21:05 13,3 °C 93 % 1011,6 hPa 0,0 mm 1,3 km/h (1 Bft) W-SW 250 ° 0 min 0,000 mm 0,0 UV-I 0 W/m² 12,2 °C 13,3 °C 4,8 km/h (1 Bft)
12.07.2019 21:06 13,3 °C 93 % 1011,6 hPa 0,2 mm 0,7 km/h (0 Bft) SW 235 ° 0 min 0,000 mm 0,0 UV-I 0 W/m² 12,2 °C 13,3 °C 1,6 km/h (1 Bft)
12.07.2019 21:07 13,3 °C 93 % 1011,6 hPa 0,0 mm 2,7 km/h (1 Bft) SW 222 ° 0 min 0,000 mm 0,0 UV-I 0 W/m² 12,2 °C 13,3 °C 6,4 km/h (2 Bft)
12.07.2019 21:08 13,3 °C 93 % 1011,6 hPa 0,0 mm 1,1 km/h (1 Bft) SW 224 ° 0 min 0,000 mm 0,0 UV-I 0 W/m² 12,2 °C 13,3 °C 3,2 km/h (1 Bft)
12.07.2019 21:09 13,3 °C 93 % 1011,5 hPa 0,2 mm 0,0 km/h (0 Bft) S-SW 211 ° 0 min 0,000 mm 0,0 UV-I 0 W/m² 12,2 °C 13,3 °C 0,0 km/h (0 Bft)
12.07.2019 21:10 13,3 °C 93 % 1011,5 hPa 0,0 mm 0,1 km/h (0 Bft) W 260 ° 0 min 0,000 mm 0,0 UV-I 0 W/m² 12,2 °C 13,3 °C 1,6 km/h (1 Bft)
12.07.2019 21:11 13,3 °C 94 % 1011,5 hPa 0,0 mm 0,6 km/h (0 Bft) W-SW 256 ° 0 min 0,000 mm 0,0 UV-I 0 W/m² 12,4 °C 13,3 °C 3,2 km/h (1 Bft)
12.07.2019 21:12 13,3 °C 94 % 1011,5 hPa 0,2 mm 0,0 km/h (0 Bft) W-SW 257 ° 0 min 0,000 mm 0,0 UV-I 0 W/m² 12,4 °C 13,3 °C 0,0 km/h (0 Bft)
12.07.2019 21:13 13,3 °C 93 % 1011,5 hPa 0,0 mm 0,4 km/h (0 Bft) W-NW 296 ° 0 min 0,000 mm 0,0 UV-I 0 W/m² 12,2 °C 13,3 °C 4,8 km/h (1 Bft)
12.07.2019 21:14 13,3 °C 93 % 1011,5 hPa 0,0 mm 1,3 km/h (1 Bft) W 276 ° 0 min 0,000 mm 0,0 UV-I 0 W/m² 12,2 °C 13,3 °C 4,8 km/h (1 Bft)
12.07.2019 21:15 13,2 °C 93 % 1011,5 hPa 0,2 mm 1,0 km/h (0 Bft) W 273 ° 0 min 0,000 mm 0,0 UV-I 0 W/m² 12,1 °C 13,2 °C 4,8 km/h (1 Bft)
12.07.2019 21:16 13,2 °C 93 % 1011,5 hPa 0,0 mm 0,5 km/h (0 Bft) W 273 ° 0 min 0,000 mm 0,0 UV-I 0 W/m² 12,1 °C 13,2 °C 3,2 km/h (1 Bft)
12.07.2019 21:17 13,1 °C 93 % 1011,5 hPa 0,0 mm 1,4 km/h (1 Bft) W 273 ° 0 min 0,000 mm 0,0 UV-I 0 W/m² 12,0 °C 13,1 °C 3,2 km/h (1 Bft)
12.07.2019 21:18 13,1 °C 93 % 1011,5 hPa 0,2 mm 1,5 km/h (1 Bft) W-NW 296 ° 0 min 0,000 mm 0,0 UV-I 0 W/m² 12,0 °C 13,1 °C 6,4 km/h (2 Bft)
12.07.2019 21:19 13,1 °C 93 % 1011,5 hPa 0,0 mm 4,7 km/h (1 Bft) W 281 ° 0 min 0,000 mm 0,0 UV-I 0 W/m² 12,0 °C 13,1 °C 6,4 km/h (2 Bft)
12.07.2019 21:20 13,0 °C 94 % 1011,6 hPa 0,0 mm 8,2 km/h (2 Bft) W-NW 296 ° 0 min 0,000 mm 0,0 UV-I 0 W/m² 12,1 °C 13,0 °C 12,9 km/h (3 Bft)
12.07.2019 21:21 13,0 °C 94 % 1011,7 hPa 0,0 mm 6,5 km/h (2 Bft) SW 236 ° 0 min 0,000 mm 0,0 UV-I 0 W/m² 12,1 °C 13,0 °C 11,3 km/h (2 Bft)
12.07.2019 21:22 12,9 °C 94 % 1011,7 hPa 0,2 mm 3,5 km/h (1 Bft) W 263 ° 0 min 0,000 mm 0,0 UV-I 0 W/m² 12,0 °C 12,9 °C 6,4 km/h (2 Bft)
12.07.2019 21:23 12,9 °C 94 % 1011,7 hPa 0,0 mm 7,0 km/h (2 Bft) SW 229 ° 0 min 0,000 mm 0,0 UV-I 0 W/m² 12,0 °C 12,9 °C 11,3 km/h (2 Bft)
12.07.2019 21:24 12,9 °C 94 % 1011,9 hPa 0,0 mm 4,2 km/h (1 Bft) W 260 ° 0 min 0,000 mm 0,0 UV-I 0 W/m² 12,0 °C 12,9 °C 6,4 km/h (2 Bft)
12.07.2019 21:25 12,9 °C 94 % 1011,9 hPa 0,2 mm 3,4 km/h (1 Bft) W 262 ° 0 min 0,000 mm 0,0 UV-I 0 W/m² 12,0 °C 12,9 °C 6,4 km/h (2 Bft)
12.07.2019 21:26 12,9 °C 93 % 1011,9 hPa 0,0 mm 3,9 km/h (1 Bft) W-SW 240 ° 0 min 0,000 mm 0,0 UV-I 0 W/m² 11,8 °C 12,9 °C 4,8 km/h (1 Bft)
12.07.2019 21:27 12,9 °C 93 % 1011,9 hPa 0,0 mm 4,8 km/h (1 Bft) W 279 ° 0 min 0,000 mm 0,0 UV-I 0 W/m² 11,8 °C 12,9 °C 11,3 km/h (2 Bft)
12.07.2019 21:28 12,9 °C 93 % 1011,9 hPa 0,0 mm 6,4 km/h (2 Bft) SW 232 ° 0 min 0,000 mm 0,0 UV-I 0 W/m² 11,8 °C 12,9 °C 9,7 km/h (2 Bft)
12.07.2019 21:29 12,8 °C 93 % 1011,9 hPa 0,0 mm 5,6 km/h (1 Bft) W 272 ° 0 min 0,000 mm 0,0 UV-I 0 W/m² 11,7 °C 12,8 °C 9,7 km/h (2 Bft)
12.07.2019 21:30 12,8 °C 93 % 1011,8 hPa 0,2 mm 2,2 km/h (1 Bft) W-SW 255 ° 0 min 0,000 mm 0,0 UV-I 0 W/m² 11,7 °C 12,8 °C 4,8 km/h (1 Bft)
12.07.2019 21:31 12,8 °C 93 % 1011,7 hPa 0,0 mm 1,7 km/h (1 Bft) W 261 ° 0 min 0,000 mm 0,0 UV-I 0 W/m² 11,7 °C 12,8 °C 3,2 km/h (1 Bft)
12.07.2019 21:32 12,8 °C 93 % 1011,8 hPa 0,0 mm 2,6 km/h (1 Bft) W-SW 238 ° 0 min 0,000 mm 0,0 UV-I 0 W/m² 11,7 °C 12,8 °C 6,4 km/h (2 Bft)
12.07.2019 21:33 12,8 °C 93 % 1011,8 hPa 0,2 mm 3,1 km/h (1 Bft) W 273 ° 0 min 0,000 mm 0,0 UV-I 0 W/m² 11,7 °C 12,8 °C 4,8 km/h (1 Bft)
12.07.2019 21:34 12,8 °C 93 % 1011,7 hPa 0,0 mm 2,5 km/h (1 Bft) W-SW 256 ° 0 min 0,000 mm 0,0 UV-I 0 W/m² 11,7 °C 12,8 °C 3,2 km/h (1 Bft)
12.07.2019 21:35 12,8 °C 93 % 1011,8 hPa 0,0 mm 0,6 km/h (0 Bft) W-SW 254 ° 0 min 0,000 mm 0,0 UV-I 0 W/m² 11,7 °C 12,8 °C 3,2 km/h (1 Bft)
12.07.2019 21:36 12,8 °C 93 % 1011,7 hPa 0,0 mm 0,5 km/h (0 Bft) W-SW 254 ° 0 min 0,000 mm 0,0 UV-I 0 W/m² 11,7 °C 12,8 °C 3,2 km/h (1 Bft)
12.07.2019 21:37 12,7 °C 93 % 1011,8 hPa 0,0 mm 2,5 km/h (1 Bft) S-SO 159 ° 0 min 0,000 mm 0,0 UV-I 0 W/m² 11,6 °C 12,7 °C 8,0 km/h (2 Bft)
12.07.2019 21:38 12,8 °C 93 % 1011,9 hPa 0,2 mm 2,5 km/h (1 Bft) W 259 ° 0 min 0,000 mm 0,0 UV-I 0 W/m² 11,7 °C 12,8 °C 6,4 km/h (2 Bft)
12.07.2019 21:39 12,7 °C 93 % 1011,9 hPa 0,0 mm 2,4 km/h (1 Bft) NW 320 ° 0 min 0,000 mm 0,0 UV-I 0 W/m² 11,6 °C 12,7 °C 4,8 km/h (1 Bft)
12.07.2019 21:40 12,8 °C 93 % 1011,7 hPa 0,0 mm 1,1 km/h (1 Bft) N-NW 328 ° 0 min 0,000 mm 0,0 UV-I 0 W/m² 11,7 °C 12,8 °C 3,2 km/h (1 Bft)
12.07.2019 21:41 12,8 °C 93 % 1011,5 hPa 0,0 mm 1,2 km/h (1 Bft) O 101 ° 0 min 0,000 mm 0,0 UV-I 0 W/m² 11,7 °C 12,8 °C 4,8 km/h (1 Bft)
12.07.2019 21:42 12,8 °C 93 % 1011,3 hPa 0,2 mm 5,2 km/h (1 Bft) O 90 ° 0 min 0,000 mm 0,0 UV-I 0 W/m² 11,7 °C 12,8 °C 6,4 km/h (2 Bft)
12.07.2019 21:43 12,7 °C 94 % 1011,1 hPa 0,0 mm 5,8 km/h (2 Bft) O-NO 77 ° 0 min 0,000 mm 0,0 UV-I 0 W/m² 11,8 °C 12,7 °C 9,7 km/h (2 Bft)
12.07.2019 21:44 12,7 °C 94 % 1010,9 hPa 0,0 mm 1,9 km/h (1 Bft) O 94 ° 0 min 0,000 mm 0,0 UV-I 0 W/m² 11,8 °C 12,7 °C 4,8 km/h (1 Bft)
12.07.2019 21:45 12,7 °C 94 % 1011,1 hPa 0,0 mm 1,8 km/h (1 Bft) NW 319 ° 0 min 0,000 mm 0,0 UV-I 0 W/m² 11,8 °C 12,7 °C 4,8 km/h (1 Bft)
12.07.2019 21:46 12,7 °C 94 % 1011,2 hPa 0,2 mm 3,6 km/h (1 Bft) NW 315 ° 0 min 0,000 mm 0,0 UV-I 0 W/m² 11,8 °C 12,7 °C 6,4 km/h (2 Bft)
12.07.2019 21:47 12,7 °C 94 % 1011,4 hPa 0,0 mm 4,0 km/h (1 Bft) W-SW 250 ° 0 min 0,000 mm 0,0 UV-I 0 W/m² 11,8 °C 12,7 °C 8,0 km/h (2 Bft)
12.07.2019 21:48 12,6 °C 94 % 1011,3 hPa 0,0 mm 5,7 km/h (1 Bft) W 263 ° 0 min 0,000 mm 0,0 UV-I 0 W/m² 11,7 °C 12,6 °C 9,7 km/h (2 Bft)
12.07.2019 21:49 12,6 °C 94 % 1011,5 hPa 0,0 mm 2,1 km/h (1 Bft) W 270 ° 0 min 0,000 mm 0,0 UV-I 0 W/m² 11,7 °C 12,6 °C 4,8 km/h (1 Bft)
12.07.2019 21:50 12,6 °C 94 % 1011,4 hPa 0,2 mm 1,3 km/h (1 Bft) S-SW 209 ° 0 min 0,000 mm 0,0 UV-I 0 W/m² 11,7 °C 12,6 °C 4,8 km/h (1 Bft)
12.07.2019 21:51 12,6 °C 94 % 1011,3 hPa 0,0 mm 0,0 km/h (0 Bft) S-SW 207 ° 0 min 0,000 mm 0,0 UV-I 0 W/m² 11,7 °C 12,6 °C 0,0 km/h (0 Bft)
12.07.2019 21:52 12,6 °C 94 % 1011,3 hPa 0,0 mm 0,5 km/h (0 Bft) SW 227 ° 0 min 0,000 mm 0,0 UV-I 0 W/m² 11,7 °C 12,6 °C 1,6 km/h (1 Bft)
12.07.2019 21:53 12,6 °C 94 % 1011,4 hPa 0,0 mm 1,6 km/h (1 Bft) W-SW 257 ° 0 min 0,000 mm 0,0 UV-I 0 W/m² 11,7 °C 12,6 °C 4,8 km/h (1 Bft)
12.07.2019 21:54 12,6 °C 93 % 1011,4 hPa 0,0 mm 0,1 km/h (0 Bft) W-SW 257 ° 0 min 0,000 mm 0,0 UV-I 0 W/m² 11,5 °C 12,6 °C 1,6 km/h (1 Bft)
12.07.2019 21:55 12,5 °C 93 % 1011,4 hPa 0,2 mm 1,2 km/h (1 Bft) S-SW 195 ° 0 min 0,000 mm 0,0 UV-I 0 W/m² 11,4 °C 12,5 °C 3,2 km/h (1 Bft)
12.07.2019 21:56 12,5 °C 94 % 1011,5 hPa 0,0 mm 2,5 km/h (1 Bft) W 266 ° 0 min 0,000 mm 0,0 UV-I 0 W/m² 11,6 °C 12,5 °C 6,4 km/h (2 Bft)
12.07.2019 21:57 12,6 °C 94 % 1011,4 hPa 0,0 mm 3,0 km/h (1 Bft) W-NW 286 ° 0 min 0,000 mm 0,0 UV-I 0 W/m² 11,7 °C 12,6 °C 6,4 km/h (2 Bft)
12.07.2019 21:58 12,6 °C 94 % 1011,5 hPa 0,0 mm 0,1 km/h (0 Bft) W-NW 286 ° 0 min 0,000 mm 0,0 UV-I 0 W/m² 11,7 °C 12,6 °C 1,6 km/h (1 Bft)
12.07.2019 21:59 12,6 °C 94 % 1011,5 hPa 0,0 mm 0,9 km/h (0 Bft) W-NW 286 ° 0 min 0,000 mm 0,0 UV-I 0 W/m² 11,7 °C 12,6 °C 1,6 km/h (1 Bft)
12.07.2019 22:00 12,6 °C 94 % 1011,6 hPa 0,2 mm 0,3 km/h (0 Bft) W-NW 286 ° 0 min 0,000 mm 0,0 UV-I 0 W/m² 11,7 °C 12,6 °C 1,6 km/h (1 Bft)
12.07.2019 22:01 12,6 °C 94 % 1011,6 hPa 0,0 mm 0,0 km/h (0 Bft) W-NW 286 ° 0 min 0,000 mm 0,0 UV-I 0 W/m² 11,7 °C 12,6 °C 0,0 km/h (0 Bft)
12.07.2019 22:02 12,5 °C 94 % 1011,7 hPa 0,0 mm 1,3 km/h (1 Bft) S-SW 194 ° 0 min 0,000 mm 0,0 UV-I 0 W/m² 11,6 °C 12,5 °C 4,8 km/h (1 Bft)
12.07.2019 22:03 12,6 °C 94 % 1011,7 hPa 0,0 mm 1,5 km/h (1 Bft) SO 143 ° 0 min 0,000 mm 0,0 UV-I 0 W/m² 11,7 °C 12,6 °C 4,8 km/h (1 Bft)
12.07.2019 22:04 12,5 °C 94 % 1011,6 hPa 0,0 mm 0,8 km/h (0 Bft) SO 145 ° 0 min 0,000 mm 0,0 UV-I 0 W/m² 11,6 °C 12,5 °C 3,2 km/h (1 Bft)
12.07.2019 22:05 12,5 °C 94 % 1011,6 hPa 0,0 mm 1,1 km/h (1 Bft) SO 145 ° 0 min 0,000 mm 0,0 UV-I 0 W/m² 11,6 °C 12,5 °C 3,2 km/h (1 Bft)
12.07.2019 22:06 12,5 °C 94 % 1011,6 hPa 0,2 mm 0,2 km/h (0 Bft) SO 145 ° 0 min 0,000 mm 0,0 UV-I 0 W/m² 11,6 °C 12,5 °C 1,6 km/h (1 Bft)
12.07.2019 22:07 12,6 °C 94 % 1011,6 hPa 0,0 mm 0,1 km/h (0 Bft) SO 145 ° 0 min 0,000 mm 0,0 UV-I 0 W/m² 11,7 °C 12,6 °C 1,6 km/h (1 Bft)
12.07.2019 22:08 12,5 °C 94 % 1011,7 hPa 0,0 mm 0,1 km/h (0 Bft) SO 145 ° 0 min 0,000 mm 0,0 UV-I 0 W/m² 11,6 °C 12,5 °C 1,6 km/h (1 Bft)
12.07.2019 22:09 12,5 °C 94 % 1011,8 hPa 0,0 mm 3,3 km/h (1 Bft) W 270 ° 0 min 0,000 mm 0,0 UV-I 0 W/m² 11,6 °C 12,5 °C 9,7 km/h (2 Bft)
12.07.2019 22:10 12,6 °C 94 % 1011,9 hPa 0,0 mm 1,6 km/h (1 Bft) S 175 ° 0 min 0,000 mm 0,0 UV-I 0 W/m² 11,7 °C 12,6 °C 4,8 km/h (1 Bft)
12.07.2019 22:11 12,5 °C 94 % 1011,9 hPa 0,0 mm 1,1 km/h (1 Bft) S 175 ° 0 min 0,000 mm 0,0 UV-I 0 W/m² 11,6 °C 12,5 °C 3,2 km/h (1 Bft)
12.07.2019 22:12 12,6 °C 94 % 1011,9 hPa 0,2 mm 5,6 km/h (1 Bft) W-SW 254 ° 0 min 0,000 mm 0,0 UV-I 0 W/m² 11,7 °C 12,6 °C 9,7 km/h (2 Bft)
12.07.2019 22:13 12,6 °C 94 % 1011,9 hPa 0,0 mm 8,4 km/h (2 Bft) W-NW 290 ° 0 min 0,000 mm 0,0 UV-I 0 W/m² 11,7 °C 12,6 °C 12,9 km/h (3 Bft)
12.07.2019 22:14 12,6 °C 94 % 1011,8 hPa 0,0 mm 8,3 km/h (2 Bft) W 263 ° 0 min 0,000 mm 0,0 UV-I 0 W/m² 11,7 °C 12,6 °C 11,3 km/h (2 Bft)
12.07.2019 22:15 12,6 °C 94 % 1011,9 hPa 0,0 mm 4,6 km/h (1 Bft) W 269 ° 0 min 0,000 mm 0,0 UV-I 0 W/m² 11,7 °C 12,6 °C 9,7 km/h (2 Bft)
12.07.2019 22:16 12,6 °C 94 % 1011,7 hPa 0,0 mm 0,4 km/h (0 Bft) W 271 ° 0 min 0,000 mm 0,0 UV-I 0 W/m² 11,7 °C 12,6 °C 1,6 km/h (1 Bft)
12.07.2019 22:17 12,6 °C 94 % 1011,6 hPa 0,0 mm 1,2 km/h (1 Bft) N-NW 333 ° 0 min 0,000 mm 0,0 UV-I 0 W/m² 11,7 °C 12,6 °C 3,2 km/h (1 Bft)
12.07.2019 22:18 12,6 °C 94 % 1011,6 hPa 0,2 mm 0,2 km/h (0 Bft) N-NW 334 ° 0 min 0,000 mm 0,0 UV-I 0 W/m² 11,7 °C 12,6 °C 1,6 km/h (1 Bft)
12.07.2019 22:19 12,6 °C 94 % 1011,6 hPa 0,0 mm 0,0 km/h (0 Bft) N-NW 334 ° 0 min 0,000 mm 0,0 UV-I 0 W/m² 11,7 °C 12,6 °C 0,0 km/h (0 Bft)
12.07.2019 22:20 12,6 °C 94 % 1011,6 hPa 0,0 mm 0,0 km/h (0 Bft) N-NW 334 ° 0 min 0,000 mm 0,0 UV-I 0 W/m² 11,7 °C 12,6 °C 0,0 km/h (0 Bft)
12.07.2019 22:21 12,6 °C 94 % 1011,6 hPa 0,0 mm 0,3 km/h (0 Bft) W-NW 288 ° 0 min 0,000 mm 0,0 UV-I 0 W/m² 11,7 °C 12,6 °C 3,2 km/h (1 Bft)
12.07.2019 22:22 12,6 °C 94 % 1011,5 hPa 0,0 mm 0,0 km/h (0 Bft) W-NW 288 ° 0 min 0,000 mm 0,0 UV-I 0 W/m² 11,7 °C 12,6 °C 0,0 km/h (0 Bft)
12.07.2019 22:23 12,6 °C 94 % 1011,3 hPa 0,0 mm 0,0 km/h (0 Bft) W-NW 288 ° 0 min 0,000 mm 0,0 UV-I 0 W/m² 11,7 °C 12,6 °C 0,0 km/h (0 Bft)
12.07.2019 22:24 12,6 °C 94 % 1011,3 hPa 0,2 mm 0,1 km/h (0 Bft) W-NW 288 ° 0 min 0,000 mm 0,0 UV-I 0 W/m² 11,7 °C 12,6 °C 1,6 km/h (1 Bft)
12.07.2019 22:25 12,6 °C 94 % 1011,5 hPa 0,0 mm 3,6 km/h (1 Bft) W 264 ° 0 min 0,000 mm 0,0 UV-I 0 W/m² 11,7 °C 12,6 °C 6,4 km/h (2 Bft)
12.07.2019 22:26 12,6 °C 94 % 1011,5 hPa 0,0 mm 3,9 km/h (1 Bft) W-SW 248 ° 0 min 0,000 mm 0,0 UV-I 0 W/m² 11,7 °C 12,6 °C 9,7 km/h (2 Bft)
12.07.2019 22:27 12,6 °C 94 % 1011,4 hPa 0,0 mm 2,3 km/h (1 Bft) S 170 ° 0 min 0,000 mm 0,0 UV-I 0 W/m² 11,7 °C 12,6 °C 6,4 km/h (2 Bft)
12.07.2019 22:28 12,5 °C 94 % 1011,4 hPa 0,0 mm 2,3 km/h (1 Bft) NW 309 ° 0 min 0,000 mm 0,0 UV-I 0 W/m² 11,6 °C 12,5 °C 6,4 km/h (2 Bft)
12.07.2019 22:29 12,5 °C 94 % 1011,3 hPa 0,0 mm 1,7 km/h (1 Bft) W 275 ° 0 min 0,000 mm 0,0 UV-I 0 W/m² 11,6 °C 12,5 °C 4,8 km/h (1 Bft)
12.07.2019 22:30 12,5 °C 94 % 1011,4 hPa 0,2 mm 4,6 km/h (1 Bft) W 269 ° 0 min 0,000 mm 0,0 UV-I 0 W/m² 11,6 °C 12,5 °C 6,4 km/h (2 Bft)
12.07.2019 22:31 12,5 °C 94 % 1011,4 hPa 0,0 mm 1,9 km/h (1 Bft) W 268 ° 0 min 0,000 mm 0,0 UV-I 0 W/m² 11,6 °C 12,5 °C 3,2 km/h (1 Bft)
12.07.2019 22:32 12,5 °C 94 % 1011,3 hPa 0,0 mm 0,1 km/h (0 Bft) W 268 ° 0 min 0,000 mm 0,0 UV-I 0 W/m² 11,6 °C 12,5 °C 1,6 km/h (1 Bft)
12.07.2019 22:33 12,6 °C 94 % 1011,3 hPa 0,0 mm 1,0 km/h (0 Bft) S 180 ° 0 min 0,000 mm 0,0 UV-I 0 W/m² 11,7 °C 12,6 °C 3,2 km/h (1 Bft)
12.07.2019 22:34 12,5 °C 94 % 1011,3 hPa 0,0 mm 0,3 km/h (0 Bft) S 180 ° 0 min 0,000 mm 0,0 UV-I 0 W/m² 11,6 °C 12,5 °C 1,6 km/h (1 Bft)
12.07.2019 22:35 12,5 °C 94 % 1011,3 hPa 0,0 mm 0,0 km/h (0 Bft) S 180 ° 0 min 0,000 mm 0,0 UV-I 0 W/m² 11,6 °C 12,5 °C 0,0 km/h (0 Bft)
12.07.2019 22:36 12,6 °C 94 % 1011,3 hPa 0,0 mm 0,0 km/h (0 Bft) S 180 ° 0 min 0,000 mm 0,0 UV-I 0 W/m² 11,7 °C 12,6 °C 0,0 km/h (0 Bft)
12.07.2019 22:37 12,6 °C 94 % 1011,3 hPa 0,2 mm 0,0 km/h (0 Bft) S 180 ° 0 min 0,000 mm 0,0 UV-I 0 W/m² 11,7 °C 12,6 °C 0,0 km/h (0 Bft)
12.07.2019 22:38 12,5 °C 94 % 1011,3 hPa 0,0 mm 0,8 km/h (0 Bft) SW 236 ° 0 min 0,000 mm 0,0 UV-I 0 W/m² 11,6 °C 12,5 °C 4,8 km/h (1 Bft)
12.07.2019 22:39 12,5 °C 94 % 1011,2 hPa 0,0 mm 2,3 km/h (1 Bft) SW 236 ° 0 min 0,000 mm 0,0 UV-I 0 W/m² 11,6 °C 12,5 °C 4,8 km/h (1 Bft)
12.07.2019 22:40 12,6 °C 94 % 1011,2 hPa 0,0 mm 0,8 km/h (0 Bft) SW 236 ° 0 min 0,000 mm 0,0 UV-I 0 W/m² 11,7 °C 12,6 °C 3,2 km/h (1 Bft)
12.07.2019 22:41 12,6 °C 94 % 1011,2 hPa 0,0 mm 0,4 km/h (0 Bft) SW 236 ° 0 min 0,000 mm 0,0 UV-I 0 W/m² 11,7 °C 12,6 °C 1,6 km/h (1 Bft)
12.07.2019 22:42 12,5 °C 94 % 1011,1 hPa 0,0 mm 0,7 km/h (0 Bft) S-SO 158 ° 0 min 0,000 mm 0,0 UV-I 0 W/m² 11,6 °C 12,5 °C 3,2 km/h (1 Bft)
12.07.2019 22:43 12,5 °C 94 % 1011,1 hPa 0,0 mm 1,2 km/h (1 Bft) W-NW 288 ° 0 min 0,000 mm 0,0 UV-I 0 W/m² 11,6 °C 12,5 °C 4,8 km/h (1 Bft)
12.07.2019 22:44 12,5 °C 94 % 1011,1 hPa 0,0 mm 1,9 km/h (1 Bft) W-SW 244 ° 0 min 0,000 mm 0,0 UV-I 0 W/m² 11,6 °C 12,5 °C 3,2 km/h (1 Bft)
12.07.2019 22:45 12,5 °C 94 % 1011,2 hPa 0,2 mm 0,7 km/h (0 Bft) W-SW 252 ° 0 min 0,000 mm 0,0 UV-I 0 W/m² 11,6 °C 12,5 °C 3,2 km/h (1 Bft)
12.07.2019 22:46 12,5 °C 94 % 1011,1 hPa 0,0 mm 0,2 km/h (0 Bft) W-SW 252 ° 0 min 0,000 mm 0,0 UV-I 0 W/m² 11,6 °C 12,5 °C 3,2 km/h (1 Bft)
12.07.2019 22:47 12,4 °C 94 % 1011,1 hPa 0,0 mm 3,1 km/h (1 Bft) W-SW 258 ° 0 min 0,000 mm 0,0 UV-I 0 W/m² 11,5 °C 12,4 °C 9,7 km/h (2 Bft)
12.07.2019 22:48 12,5 °C 94 % 1011,1 hPa 0,0 mm 0,9 km/h (0 Bft) W-SW 252 ° 0 min 0,000 mm 0,0 UV-I 0 W/m² 11,6 °C 12,5 °C 3,2 km/h (1 Bft)
12.07.2019 22:49 12,4 °C 94 % 1011,1 hPa 0,0 mm 0,0 km/h (0 Bft) W-SW 254 ° 0 min 0,000 mm 0,0 UV-I 0 W/m² 11,5 °C 12,4 °C 0,0 km/h (0 Bft)
12.07.2019 22:50 12,4 °C 94 % 1011,1 hPa 0,0 mm 0,5 km/h (0 Bft) W-SW 254 ° 0 min 0,000 mm 0,0 UV-I 0 W/m² 11,5 °C 12,4 °C 3,2 km/h (1 Bft)
12.07.2019 22:51 12,5 °C 94 % 1011,0 hPa 0,0 mm 0,3 km/h (0 Bft) W-SW 253 ° 0 min 0,000 mm 0,0 UV-I 0 W/m² 11,6 °C 12,5 °C 1,6 km/h (1 Bft)
12.07.2019 22:52 12,5 °C 94 % 1011,0 hPa 0,0 mm 0,5 km/h (0 Bft) W-SW 253 ° 0 min 0,000 mm 0,0 UV-I 0 W/m² 11,6 °C 12,5 °C 1,6 km/h (1 Bft)
12.07.2019 22:53 12,5 °C 94 % 1011,1 hPa 0,2 mm 0,6 km/h (0 Bft) W-SW 240 ° 0 min 0,000 mm 0,0 UV-I 0 W/m² 11,6 °C 12,5 °C 3,2 km/h (1 Bft)
12.07.2019 22:54 12,6 °C 94 % 1011,1 hPa 0,0 mm 1,9 km/h (1 Bft) SW 234 ° 0 min 0,000 mm 0,0 UV-I 0 W/m² 11,7 °C 12,6 °C 3,2 km/h (1 Bft)
12.07.2019 22:55 12,6 °C 94 % 1011,1 hPa 0,0 mm 3,9 km/h (1 Bft) S 182 ° 0 min 0,000 mm 0,0 UV-I 0 W/m² 11,7 °C 12,6 °C 8,0 km/h (2 Bft)
12.07.2019 22:56 12,6 °C 94 % 1011,1 hPa 0,0 mm 4,0 km/h (1 Bft) S 190 ° 0 min 0,000 mm 0,0 UV-I 0 W/m² 11,7 °C 12,6 °C 6,4 km/h (2 Bft)
12.07.2019 22:57 12,6 °C 94 % 1011,1 hPa 0,0 mm 2,6 km/h (1 Bft) W 263 ° 0 min 0,000 mm 0,0 UV-I 0 W/m² 11,7 °C 12,6 °C 6,4 km/h (2 Bft)
12.07.2019 22:58 12,7 °C 94 % 1011,2 hPa 0,0 mm 6,2 km/h (2 Bft) NW 306 ° 0 min 0,000 mm 0,0 UV-I 0 W/m² 11,8 °C 12,7 °C 9,7 km/h (2 Bft)
12.07.2019 22:59 12,7 °C 94 % 1011,2 hPa 0,0 mm 19,8 km/h (3 Bft) NW 324 ° 0 min 0,000 mm 0,0 UV-I 0 W/m² 11,8 °C 12,7 °C 25,7 km/h (4 Bft)
12.07.2019 23:00 12,7 °C 94 % 1012,7 hPa 0,0 mm 12,1 km/h (2 Bft) N-NW 338 ° 0 min 0,000 mm 0,0 UV-I 0 W/m² 11,8 °C 12,7 °C 20,9 km/h (4 Bft)
12.07.2019 23:01 12,8 °C 94 % 1012,6 hPa 0,0 mm 15,4 km/h (3 Bft) N-NW 329 ° 0 min 0,000 mm 0,0 UV-I 0 W/m² 11,9 °C 12,8 °C 22,5 km/h (4 Bft)
12.07.2019 23:02 12,7 °C 94 % 1012,7 hPa 0,0 mm 14,1 km/h (3 Bft) W-NW 283 ° 0 min 0,000 mm 0,0 UV-I 0 W/m² 11,8 °C 12,7 °C 19,3 km/h (3 Bft)
12.07.2019 23:03 12,8 °C 94 % 1012,6 hPa 0,2 mm 8,7 km/h (2 Bft) W-NW 299 ° 0 min 0,000 mm 0,0 UV-I 0 W/m² 11,9 °C 12,8 °C 17,7 km/h (3 Bft)
12.07.2019 23:04 12,7 °C 94 % 1012,6 hPa 0,0 mm 8,7 km/h (2 Bft) N-NW 344 ° 0 min 0,000 mm 0,0 UV-I 0 W/m² 11,8 °C 12,7 °C 14,5 km/h (3 Bft)
12.07.2019 23:05 12,7 °C 93 % 1012,5 hPa 0,0 mm 10,8 km/h (2 Bft) W-NW 283 ° 0 min 0,000 mm 0,0 UV-I 0 W/m² 11,6 °C 12,7 °C 19,3 km/h (3 Bft)
12.07.2019 23:06 12,7 °C 93 % 1012,6 hPa 0,0 mm 11,6 km/h (2 Bft) NW 317 ° 0 min 0,000 mm 0,0 UV-I 0 W/m² 11,6 °C 12,7 °C 19,3 km/h (3 Bft)
12.07.2019 23:07 12,6 °C 93 % 1012,5 hPa 0,0 mm 11,5 km/h (2 Bft) NW 304 ° 0 min 0,000 mm 0,0 UV-I 0 W/m² 11,5 °C 12,6 °C 19,3 km/h (3 Bft)
12.07.2019 23:08 12,6 °C 93 % 1012,6 hPa 0,0 mm 14,7 km/h (3 Bft) NW 325 ° 0 min 0,000 mm 0,0 UV-I 0 W/m² 11,5 °C 12,6 °C 24,1 km/h (4 Bft)
12.07.2019 23:09 12,5 °C 93 % 1012,7 hPa 0,0 mm 11,2 km/h (2 Bft) W-NW 300 ° 0 min 0,000 mm 0,0 UV-I 0 W/m² 11,4 °C 12,5 °C 17,7 km/h (3 Bft)
12.07.2019 23:10 12,4 °C 93 % 1012,6 hPa 0,0 mm 8,9 km/h (2 Bft) NW 304 ° 0 min 0,000 mm 0,0 UV-I 0 W/m² 11,3 °C 12,4 °C 20,9 km/h (4 Bft)
12.07.2019 23:11 12,4 °C 93 % 1012,7 hPa 0,0 mm 14,6 km/h (3 Bft) W-NW 290 ° 0 min 0,000 mm 0,0 UV-I 0 W/m² 11,3 °C 12,4 °C 20,9 km/h (4 Bft)
12.07.2019 23:12 12,3 °C 93 % 1012,6 hPa 0,2 mm 11,1 km/h (2 Bft) W-NW 299 ° 0 min 0,000 mm 0,0 UV-I 0 W/m² 11,2 °C 12,3 °C 14,5 km/h (3 Bft)
12.07.2019 23:13 12,3 °C 92 % 1012,6 hPa 0,0 mm 7,2 km/h (2 Bft) W 273 ° 0 min 0,000 mm 0,0 UV-I 0 W/m² 11,0 °C 12,3 °C 19,3 km/h (3 Bft)
12.07.2019 23:14 12,3 °C 92 % 1012,7 hPa 0,0 mm 8,1 km/h (2 Bft) W-NW 288 ° 0 min 0,000 mm 0,0 UV-I 0 W/m² 11,0 °C 12,3 °C 12,9 km/h (3 Bft)
12.07.2019 23:15 12,2 °C 92 % 1012,7 hPa 0,0 mm 11,9 km/h (2 Bft) W-SW 245 ° 0 min 0,000 mm 0,0 UV-I 0 W/m² 10,9 °C 12,2 °C 16,1 km/h (3 Bft)
12.07.2019 23:16 12,2 °C 92 % 1012,7 hPa 0,0 mm 12,1 km/h (2 Bft) W-SW 252 ° 0 min 0,000 mm 0,0 UV-I 0 W/m² 10,9 °C 12,2 °C 16,1 km/h (3 Bft)
12.07.2019 23:17 12,1 °C 92 % 1012,7 hPa 0,0 mm 8,9 km/h (2 Bft) W 281 ° 0 min 0,000 mm 0,0 UV-I 0 W/m² 10,8 °C 12,1 °C 14,5 km/h (3 Bft)
12.07.2019 23:18 12,1 °C 92 % 1012,6 hPa 0,0 mm 5,2 km/h (1 Bft) W-SW 257 ° 0 min 0,000 mm 0,0 UV-I 0 W/m² 10,8 °C 12,1 °C 8,0 km/h (2 Bft)
12.07.2019 23:19 12,0 °C 92 % 1012,7 hPa 0,0 mm 7,6 km/h (2 Bft) W 268 ° 0 min 0,000 mm 0,0 UV-I 0 W/m² 10,7 °C 12,0 °C 12,9 km/h (3 Bft)
12.07.2019 23:20 11,9 °C 92 % 1012,7 hPa 0,0 mm 7,6 km/h (2 Bft) W-SW 242 ° 0 min 0,000 mm 0,0 UV-I 0 W/m² 10,6 °C 11,9 °C 11,3 km/h (2 Bft)
12.07.2019 23:21 11,9 °C 92 % 1012,7 hPa 0,0 mm 9,3 km/h (2 Bft) W-SW 242 ° 0 min 0,000 mm 0,0 UV-I 0 W/m² 10,6 °C 11,9 °C 19,3 km/h (3 Bft)
12.07.2019 23:22 11,8 °C 92 % 1012,7 hPa 0,0 mm 6,7 km/h (2 Bft) W-SW 247 ° 0 min 0,000 mm 0,0 UV-I 0 W/m² 10,5 °C 11,8 °C 12,9 km/h (3 Bft)
12.07.2019 23:23 11,8 °C 92 % 1012,7 hPa 0,2 mm 3,6 km/h (1 Bft) W 281 ° 0 min 0,000 mm 0,0 UV-I 0 W/m² 10,5 °C 11,8 °C 12,9 km/h (3 Bft)
12.07.2019 23:24 11,8 °C 92 % 1012,7 hPa 0,0 mm 12,7 km/h (3 Bft) W 271 ° 0 min 0,000 mm 0,0 UV-I 0 W/m² 10,5 °C 11,8 °C 20,9 km/h (4 Bft)
12.07.2019 23:25 11,8 °C 92 % 1012,8 hPa 0,0 mm 5,7 km/h (1 Bft) W 274 ° 0 min 0,000 mm 0,0 UV-I 0 W/m² 10,5 °C 11,8 °C 9,7 km/h (2 Bft)
12.07.2019 23:26 11,7 °C 92 % 1012,8 hPa 0,0 mm 9,3 km/h (2 Bft) S 178 ° 0 min 0,000 mm 0,0 UV-I 0 W/m² 10,4 °C 11,7 °C 12,9 km/h (3 Bft)
12.07.2019 23:27 11,7 °C 92 % 1012,8 hPa 0,0 mm 2,3 km/h (1 Bft) SW 219 ° 0 min 0,000 mm 0,0 UV-I 0 W/m² 10,4 °C 11,7 °C 6,4 km/h (2 Bft)
12.07.2019 23:28 11,7 °C 92 % 1012,8 hPa 0,0 mm 4,1 km/h (1 Bft) W 271 ° 0 min 0,000 mm 0,0 UV-I 0 W/m² 10,4 °C 11,7 °C 9,7 km/h (2 Bft)
12.07.2019 23:29 11,7 °C 93 % 1012,7 hPa 0,0 mm 2,4 km/h (1 Bft) W-SW 256 ° 0 min 0,000 mm 0,0 UV-I 0 W/m² 10,6 °C 11,7 °C 8,0 km/h (2 Bft)
12.07.2019 23:30 11,7 °C 92 % 1012,7 hPa 0,0 mm 0,6 km/h (0 Bft) S 182 ° 0 min 0,000 mm 0,0 UV-I 0 W/m² 10,4 °C 11,7 °C 3,2 km/h (1 Bft)
12.07.2019 23:31 11,6 °C 92 % 1012,7 hPa 0,0 mm 1,1 km/h (1 Bft) S 182 ° 0 min 0,000 mm 0,0 UV-I 0 W/m² 10,3 °C 11,6 °C 3,2 km/h (1 Bft)
12.07.2019 23:32 11,6 °C 92 % 1012,7 hPa 0,2 mm 2,9 km/h (1 Bft) S-SW 212 ° 0 min 0,000 mm 0,0 UV-I 0 W/m² 10,3 °C 11,6 °C 6,4 km/h (2 Bft)
12.07.2019 23:33 11,6 °C 92 % 1012,7 hPa 0,0 mm 4,4 km/h (1 Bft) S 187 ° 0 min 0,000 mm 0,0 UV-I 0 W/m² 10,3 °C 11,6 °C 9,7 km/h (2 Bft)
12.07.2019 23:34 11,6 °C 93 % 1012,7 hPa 0,0 mm 4,1 km/h (1 Bft) S 187 ° 0 min 0,000 mm 0,0 UV-I 0 W/m² 10,5 °C 11,6 °C 8,0 km/h (2 Bft)
12.07.2019 23:35 11,6 °C 93 % 1012,7 hPa 0,0 mm 3,0 km/h (1 Bft) W 259 ° 0 min 0,000 mm 0,0 UV-I 0 W/m² 10,5 °C 11,6 °C 6,4 km/h (2 Bft)
12.07.2019 23:36 11,6 °C 93 % 1012,7 hPa 0,0 mm 6,4 km/h (2 Bft) S-SW 207 ° 0 min 0,000 mm 0,0 UV-I 0 W/m² 10,5 °C 11,6 °C 12,9 km/h (3 Bft)
12.07.2019 23:37 11,6 °C 93 % 1012,6 hPa 0,0 mm 7,7 km/h (2 Bft) S-SW 193 ° 0 min 0,000 mm 0,0 UV-I 0 W/m² 10,5 °C 11,6 °C 16,1 km/h (3 Bft)
12.07.2019 23:38 11,6 °C 93 % 1012,6 hPa 0,0 mm 2,1 km/h (1 Bft) S-SW 200 ° 0 min 0,000 mm 0,0 UV-I 0 W/m² 10,5 °C 11,6 °C 4,8 km/h (1 Bft)
12.07.2019 23:39 11,7 °C 93 % 1012,6 hPa 0,0 mm 5,4 km/h (1 Bft) S-SW 196 ° 0 min 0,000 mm 0,0 UV-I 0 W/m² 10,6 °C 11,7 °C 8,0 km/h (2 Bft)
12.07.2019 23:40 11,7 °C 93 % 1012,6 hPa 0,0 mm 3,7 km/h (1 Bft) S-SW 198 ° 0 min 0,000 mm 0,0 UV-I 0 W/m² 10,6 °C 11,7 °C 6,4 km/h (2 Bft)
12.07.2019 23:41 11,7 °C 93 % 1012,5 hPa 0,0 mm 3,5 km/h (1 Bft) S 179 ° 0 min 0,000 mm 0,0 UV-I 0 W/m² 10,6 °C 11,7 °C 8,0 km/h (2 Bft)
12.07.2019 23:42 11,7 °C 93 % 1012,5 hPa 0,0 mm 3,8 km/h (1 Bft) SW 223 ° 0 min 0,000 mm 0,0 UV-I 0 W/m² 10,6 °C 11,7 °C 6,4 km/h (2 Bft)
12.07.2019 23:43 11,6 °C 93 % 1012,5 hPa 0,0 mm 1,8 km/h (1 Bft) SW 232 ° 0 min 0,000 mm 0,0 UV-I 0 W/m² 10,5 °C 11,6 °C 4,8 km/h (1 Bft)
12.07.2019 23:44 11,7 °C 93 % 1012,5 hPa 0,0 mm 5,2 km/h (1 Bft) SW 223 ° 0 min 0,000 mm 0,0 UV-I 0 W/m² 10,6 °C 11,7 °C 9,7 km/h (2 Bft)
12.07.2019 23:45 11,6 °C 93 % 1012,4 hPa 0,2 mm 2,5 km/h (1 Bft) S-SW 202 ° 0 min 0,000 mm 0,0 UV-I 0 W/m² 10,5 °C 11,6 °C 6,4 km/h (2 Bft)
12.07.2019 23:46 11,7 °C 93 % 1012,4 hPa 0,0 mm 2,2 km/h (1 Bft) S-SW 202 ° 0 min 0,000 mm 0,0 UV-I 0 W/m² 10,6 °C 11,7 °C 4,8 km/h (1 Bft)
12.07.2019 23:47 11,6 °C 93 % 1012,4 hPa 0,0 mm 0,5 km/h (0 Bft) SW 215 ° 0 min 0,000 mm 0,0 UV-I 0 W/m² 10,5 °C 11,6 °C 1,6 km/h (1 Bft)
12.07.2019 23:48 11,6 °C 93 % 1012,4 hPa 0,0 mm 2,9 km/h (1 Bft) S 178 ° 0 min 0,000 mm 0,0 UV-I 0 W/m² 10,5 °C 11,6 °C 6,4 km/h (2 Bft)
12.07.2019 23:49 11,6 °C 93 % 1012,5 hPa 0,0 mm 3,5 km/h (1 Bft) S-SW 208 ° 0 min 0,000 mm 0,0 UV-I 0 W/m² 10,5 °C 11,6 °C 9,7 km/h (2 Bft)
12.07.2019 23:50 11,6 °C 93 % 1012,5 hPa 0,0 mm 8,5 km/h (2 Bft) S-SW 210 ° 0 min 0,000 mm 0,0 UV-I 0 W/m² 10,5 °C 11,6 °C 12,9 km/h (3 Bft)
12.07.2019 23:51 11,6 °C 93 % 1012,6 hPa 0,0 mm 1,9 km/h (1 Bft) S-SW 194 ° 0 min 0,000 mm 0,0 UV-I 0 W/m² 10,5 °C 11,6 °C 4,8 km/h (1 Bft)
12.07.2019 23:52 11,6 °C 93 % 1012,7 hPa 0,0 mm 0,4 km/h (0 Bft) S-SW 194 ° 0 min 0,000 mm 0,0 UV-I 0 W/m² 10,5 °C 11,6 °C 3,2 km/h (1 Bft)
12.07.2019 23:53 11,6 °C 93 % 1012,7 hPa 0,0 mm 0,7 km/h (0 Bft) S-SW 194 ° 0 min 0,000 mm 0,0 UV-I 0 W/m² 10,5 °C 11,6 °C 3,2 km/h (1 Bft)
12.07.2019 23:54 11,6 °C 93 % 1012,7 hPa 0,0 mm 0,7 km/h (0 Bft) S-SW 194 ° 0 min 0,000 mm 0,0 UV-I 0 W/m² 10,5 °C 11,6 °C 3,2 km/h (1 Bft)
12.07.2019 23:55 11,5 °C 93 % 1012,7 hPa 0,0 mm 0,6 km/h (0 Bft) S-SW 194 ° 0 min 0,000 mm 0,0 UV-I 0 W/m² 10,4 °C 11,5 °C 3,2 km/h (1 Bft)
12.07.2019 23:56 11,6 °C 93 % 1012,7 hPa 0,0 mm 3,1 km/h (1 Bft) W 276 ° 0 min 0,000 mm 0,0 UV-I 0 W/m² 10,5 °C 11,6 °C 8,0 km/h (2 Bft)
12.07.2019 23:57 11,4 °C 93 % 1012,7 hPa 0,2 mm 0,7 km/h (0 Bft) W 276 ° 0 min 0,000 mm 0,0 UV-I 0 W/m² 10,3 °C 11,4 °C 3,2 km/h (1 Bft)
12.07.2019 23:58 11,4 °C 93 % 1012,7 hPa 0,0 mm 0,0 km/h (0 Bft) W 276 ° 0 min 0,000 mm 0,0 UV-I 0 W/m² 10,3 °C 11,4 °C 0,0 km/h (0 Bft)
12.07.2019 23:59 11,4 °C 93 % 1012,8 hPa 0,0 mm 4,8 km/h (1 Bft) S 188 ° 0 min 0,000 mm 0,0 UV-I 0 W/m² 10,3 °C 11,4 °C 6,4 km/h (2 Bft)
_ Min-Zeit 23:59 19:56 19:41 - 23:58 - - - - - - 23:59 23:59 23:58
Minimum _ 11,4 °C 80 % 1010,3 hPa - 0,0 km/h (0 Bft) - - - - - - 10,3 °C 11,4 °C 0,0 km/h (0 Bft)
_ Max-Zeit 18:10 08:53 00:33 23:57 22:59 - - 23:59 17:01 15:07 15:07 19:01 18:10 22:59
Maximum _ 16,8 °C 95 % 1014,4 hPa 0,2 mm 19,8 km/h
NW (3 Bft)
- - 0 min 0,127 mm 3,1 UV-I 385 W/m² 15,0 °C 16,8 °C 25,7 km/h
NW (4 Bft)
Durchschnitt _ 13,5 °C 92 % 1012,7 hPa #15,2 mm 1,7 km/h (1 Bft) W - #0 min. #0,991 mm 1,3 UV-I 76 W/m² 12,1 °C 13,5 °C 3,4 km/h (1 Bft)